<?xml version="1.0" encoding="UTF-8"?>
<gpx xmlns="http://www.topografix.com/GPX/1/1" xmlns:xsi="http://www.w3.org/2001/XMLSchema-instance" version="1.1" xsi:schemaLocation="http://www.topografix.com/GPX/1/1 http://www.topografix.com/GPX/1/1/gpx.xsd">
  <metadata>
    <name>Austrian 1/2 Iron Triathlon</name>
  </metadata>
  <trk>
    <name>Austrian 1/2 Iron Triathlon</name>
    <trkseg>
      <trkpt lat="46.717623" lon="15.798766">
        <ele>229.936397</ele>
        <time>2024-05-11T09:55:00.000Z</time>
      </trkpt>
      <trkpt lat="46.717636" lon="15.79876">
        <ele>229.936396</ele>
        <time>2024-05-11T09:55:00.000Z</time>
      </trkpt>
      <trkpt lat="46.717311" lon="15.798112">
        <ele>229.936393</ele>
        <time>2024-05-11T09:55:06.000Z</time>
      </trkpt>
      <trkpt lat="46.7171" lon="15.797649">
        <ele>229.970644</ele>
        <time>2024-05-11T09:55:10.000Z</time>
      </trkpt>
      <trkpt lat="46.71669" lon="15.796735">
        <ele>230.808063</ele>
        <time>2024-05-11T09:55:18.000Z</time>
      </trkpt>
      <trkpt lat="46.716489" lon="15.796346">
        <ele>231.175505</ele>
        <time>2024-05-11T09:55:22.000Z</time>
      </trkpt>
      <trkpt lat="46.716266" lon="15.795971">
        <ele>231.54595</ele>
        <time>2024-05-11T09:55:26.000Z</time>
      </trkpt>
      <trkpt lat="46.716285" lon="15.795894">
        <ele>231.609173</ele>
        <time>2024-05-11T09:55:27.000Z</time>
      </trkpt>
      <trkpt lat="46.716321" lon="15.795693">
        <ele>231.756741</ele>
        <time>2024-05-11T09:55:29.000Z</time>
      </trkpt>
      <trkpt lat="46.716364" lon="15.795358">
        <ele>231.957248</ele>
        <time>2024-05-11T09:55:32.000Z</time>
      </trkpt>
      <trkpt lat="46.716378" lon="15.795127">
        <ele>232.011926</ele>
        <time>2024-05-11T09:55:34.000Z</time>
      </trkpt>
      <trkpt lat="46.716391" lon="15.795029">
        <ele>232.033597</ele>
        <time>2024-05-11T09:55:35.000Z</time>
      </trkpt>
      <trkpt lat="46.716416" lon="15.794786">
        <ele>232.092464</ele>
        <time>2024-05-11T09:55:37.000Z</time>
      </trkpt>
      <trkpt lat="46.716407" lon="15.794706">
        <ele>232.109963</ele>
        <time>2024-05-11T09:55:38.000Z</time>
      </trkpt>
      <trkpt lat="46.716356" lon="15.794428">
        <ele>232.176588</ele>
        <time>2024-05-11T09:55:40.000Z</time>
      </trkpt>
      <trkpt lat="46.716352" lon="15.794246">
        <ele>232.217318</ele>
        <time>2024-05-11T09:55:41.000Z</time>
      </trkpt>
      <trkpt lat="46.716572" lon="15.794307">
        <ele>232.291201</ele>
        <time>2024-05-11T09:55:43.000Z</time>
      </trkpt>
      <trkpt lat="46.716692" lon="15.794347">
        <ele>232.33419</ele>
        <time>2024-05-11T09:55:44.000Z</time>
      </trkpt>
      <trkpt lat="46.71675" lon="15.794354">
        <ele>232.357304</ele>
        <time>2024-05-11T09:55:45.000Z</time>
      </trkpt>
      <trkpt lat="46.716942" lon="15.794423">
        <ele>232.422285</ele>
        <time>2024-05-11T09:55:47.000Z</time>
      </trkpt>
      <trkpt lat="46.71704" lon="15.794455">
        <ele>232.457537</ele>
        <time>2024-05-11T09:55:48.000Z</time>
      </trkpt>
      <trkpt lat="46.717128" lon="15.794497">
        <ele>232.48539</ele>
        <time>2024-05-11T09:55:49.000Z</time>
      </trkpt>
      <trkpt lat="46.717623" lon="15.794706">
        <ele>232.524759</ele>
        <time>2024-05-11T09:55:55.000Z</time>
      </trkpt>
      <trkpt lat="46.717888" lon="15.79483">
        <ele>232.512573</ele>
        <time>2024-05-11T09:55:58.000Z</time>
      </trkpt>
      <trkpt lat="46.71795" lon="15.79487">
        <ele>232.509422</ele>
        <time>2024-05-11T09:55:59.000Z</time>
      </trkpt>
      <trkpt lat="46.718257" lon="15.795013">
        <ele>232.49438</ele>
        <time>2024-05-11T09:56:03.000Z</time>
      </trkpt>
      <trkpt lat="46.718521" lon="15.795109">
        <ele>232.482527</ele>
        <time>2024-05-11T09:56:06.000Z</time>
      </trkpt>
      <trkpt lat="46.718842" lon="15.795142">
        <ele>232.468159</ele>
        <time>2024-05-11T09:56:10.000Z</time>
      </trkpt>
      <trkpt lat="46.719184" lon="15.795131">
        <ele>232.337377</ele>
        <time>2024-05-11T09:56:14.000Z</time>
      </trkpt>
      <trkpt lat="46.719266" lon="15.795135">
        <ele>232.27835</ele>
        <time>2024-05-11T09:56:15.000Z</time>
      </trkpt>
      <trkpt lat="46.719551" lon="15.79511">
        <ele>232.065351</ele>
        <time>2024-05-11T09:56:18.000Z</time>
      </trkpt>
      <trkpt lat="46.720115" lon="15.795103">
        <ele>231.643117</ele>
        <time>2024-05-11T09:56:24.000Z</time>
      </trkpt>
      <trkpt lat="46.720405" lon="15.795147">
        <ele>231.41879</ele>
        <time>2024-05-11T09:56:27.000Z</time>
      </trkpt>
      <trkpt lat="46.720576" lon="15.795171">
        <ele>231.298563</ele>
        <time>2024-05-11T09:56:29.000Z</time>
      </trkpt>
      <trkpt lat="46.720811" lon="15.795264">
        <ele>231.120343</ele>
        <time>2024-05-11T09:56:32.000Z</time>
      </trkpt>
      <trkpt lat="46.72088" lon="15.795281">
        <ele>231.090871</ele>
        <time>2024-05-11T09:56:33.000Z</time>
      </trkpt>
      <trkpt lat="46.721011" lon="15.795351">
        <ele>231.041083</ele>
        <time>2024-05-11T09:56:35.000Z</time>
      </trkpt>
      <trkpt lat="46.721042" lon="15.795376">
        <ele>231.031202</ele>
        <time>2024-05-11T09:56:35.000Z</time>
      </trkpt>
      <trkpt lat="46.721186" lon="15.795453">
        <ele>230.976187</ele>
        <time>2024-05-11T09:56:37.000Z</time>
      </trkpt>
      <trkpt lat="46.721794" lon="15.796077">
        <ele>230.712891</ele>
        <time>2024-05-11T09:56:45.000Z</time>
      </trkpt>
      <trkpt lat="46.721968" lon="15.79619">
        <ele>230.644449</ele>
        <time>2024-05-11T09:56:47.000Z</time>
      </trkpt>
      <trkpt lat="46.722224" lon="15.796259">
        <ele>230.553794</ele>
        <time>2024-05-11T09:56:50.000Z</time>
      </trkpt>
      <trkpt lat="46.722583" lon="15.796331">
        <ele>230.548151</ele>
        <time>2024-05-11T09:56:54.000Z</time>
      </trkpt>
      <trkpt lat="46.722627" lon="15.796335">
        <ele>230.569013</ele>
        <time>2024-05-11T09:56:54.000Z</time>
      </trkpt>
      <trkpt lat="46.722748" lon="15.796391">
        <ele>230.632171</ele>
        <time>2024-05-11T09:56:55.000Z</time>
      </trkpt>
      <trkpt lat="46.722845" lon="15.796463">
        <ele>230.678694</ele>
        <time>2024-05-11T09:56:56.000Z</time>
      </trkpt>
      <trkpt lat="46.72298" lon="15.79654">
        <ele>230.743261</ele>
        <time>2024-05-11T09:56:58.000Z</time>
      </trkpt>
      <trkpt lat="46.723123" lon="15.796675">
        <ele>230.819912</ele>
        <time>2024-05-11T09:57:00.000Z</time>
      </trkpt>
      <trkpt lat="46.723127" lon="15.796703">
        <ele>230.826984</ele>
        <time>2024-05-11T09:57:00.000Z</time>
      </trkpt>
      <trkpt lat="46.723484" lon="15.797114">
        <ele>231.031943</ele>
        <time>2024-05-11T09:57:05.000Z</time>
      </trkpt>
      <trkpt lat="46.724075" lon="15.797772">
        <ele>231.386307</ele>
        <time>2024-05-11T09:57:13.000Z</time>
      </trkpt>
      <trkpt lat="46.724311" lon="15.798038">
        <ele>231.565609</ele>
        <time>2024-05-11T09:57:16.000Z</time>
      </trkpt>
      <trkpt lat="46.724425" lon="15.798191">
        <ele>231.654565</ele>
        <time>2024-05-11T09:57:18.000Z</time>
      </trkpt>
      <trkpt lat="46.724512" lon="15.798285">
        <ele>231.718176</ele>
        <time>2024-05-11T09:57:19.000Z</time>
      </trkpt>
      <trkpt lat="46.724549" lon="15.798341">
        <ele>231.753852</ele>
        <time>2024-05-11T09:57:20.000Z</time>
      </trkpt>
      <trkpt lat="46.724639" lon="15.798422">
        <ele>231.817474</ele>
        <time>2024-05-11T09:57:21.000Z</time>
      </trkpt>
      <trkpt lat="46.724798" lon="15.798641">
        <ele>231.950756</ele>
        <time>2024-05-11T09:57:23.000Z</time>
      </trkpt>
      <trkpt lat="46.725037" lon="15.798921">
        <ele>232.128786</ele>
        <time>2024-05-11T09:57:26.000Z</time>
      </trkpt>
      <trkpt lat="46.725213" lon="15.799232">
        <ele>232.295607</ele>
        <time>2024-05-11T09:57:29.000Z</time>
      </trkpt>
      <trkpt lat="46.725241" lon="15.799277">
        <ele>232.318646</ele>
        <time>2024-05-11T09:57:29.000Z</time>
      </trkpt>
      <trkpt lat="46.725398" lon="15.79955">
        <ele>232.407571</ele>
        <time>2024-05-11T09:57:32.000Z</time>
      </trkpt>
      <trkpt lat="46.72543" lon="15.799619">
        <ele>232.423241</ele>
        <time>2024-05-11T09:57:33.000Z</time>
      </trkpt>
      <trkpt lat="46.725501" lon="15.799568">
        <ele>232.448824</ele>
        <time>2024-05-11T09:57:34.000Z</time>
      </trkpt>
      <trkpt lat="46.725821" lon="15.799378">
        <ele>232.542437</ele>
        <time>2024-05-11T09:57:38.000Z</time>
      </trkpt>
      <trkpt lat="46.726259" lon="15.799354">
        <ele>232.659778</ele>
        <time>2024-05-11T09:57:43.000Z</time>
      </trkpt>
      <trkpt lat="46.726678" lon="15.799376">
        <ele>232.776028</ele>
        <time>2024-05-11T09:57:48.000Z</time>
      </trkpt>
      <trkpt lat="46.726842" lon="15.799403">
        <ele>232.818663</ele>
        <time>2024-05-11T09:57:50.000Z</time>
      </trkpt>
      <trkpt lat="46.72703" lon="15.798806">
        <ele>232.87245</ele>
        <time>2024-05-11T09:57:55.000Z</time>
      </trkpt>
      <trkpt lat="46.727072" lon="15.79846">
        <ele>232.888385</ele>
        <time>2024-05-11T09:57:58.000Z</time>
      </trkpt>
      <trkpt lat="46.727056" lon="15.798014">
        <ele>232.909768</ele>
        <time>2024-05-11T09:58:01.000Z</time>
      </trkpt>
      <trkpt lat="46.727068" lon="15.798012">
        <ele>232.909773</ele>
        <time>2024-05-11T09:58:01.000Z</time>
      </trkpt>
      <trkpt lat="46.727054" lon="15.797636">
        <ele>232.927287</ele>
        <time>2024-05-11T09:58:04.000Z</time>
      </trkpt>
      <trkpt lat="46.727041" lon="15.797211">
        <ele>232.946469</ele>
        <time>2024-05-11T09:58:07.000Z</time>
      </trkpt>
      <trkpt lat="46.727027" lon="15.796746">
        <ele>232.968439</ele>
        <time>2024-05-11T09:58:11.000Z</time>
      </trkpt>
      <trkpt lat="46.727037" lon="15.796424">
        <ele>233.008564</ele>
        <time>2024-05-11T09:58:13.000Z</time>
      </trkpt>
      <trkpt lat="46.727125" lon="15.796091">
        <ele>233.061779</ele>
        <time>2024-05-11T09:58:16.000Z</time>
      </trkpt>
      <trkpt lat="46.727231" lon="15.795793">
        <ele>233.113873</ele>
        <time>2024-05-11T09:58:19.000Z</time>
      </trkpt>
      <trkpt lat="46.727265" lon="15.79566">
        <ele>233.13449</ele>
        <time>2024-05-11T09:58:20.000Z</time>
      </trkpt>
      <trkpt lat="46.727379" lon="15.795384">
        <ele>233.182296</ele>
        <time>2024-05-11T09:58:22.000Z</time>
      </trkpt>
      <trkpt lat="46.727463" lon="15.795098">
        <ele>233.231252</ele>
        <time>2024-05-11T09:58:24.000Z</time>
      </trkpt>
      <trkpt lat="46.727688" lon="15.794478">
        <ele>233.335293</ele>
        <time>2024-05-11T09:58:29.000Z</time>
      </trkpt>
      <trkpt lat="46.727729" lon="15.794302">
        <ele>233.36274</ele>
        <time>2024-05-11T09:58:30.000Z</time>
      </trkpt>
      <trkpt lat="46.72781" lon="15.794017">
        <ele>233.43014</ele>
        <time>2024-05-11T09:58:32.000Z</time>
      </trkpt>
      <trkpt lat="46.727859" lon="15.793881">
        <ele>233.459174</ele>
        <time>2024-05-11T09:58:33.000Z</time>
      </trkpt>
      <trkpt lat="46.727879" lon="15.793798">
        <ele>233.479606</ele>
        <time>2024-05-11T09:58:34.000Z</time>
      </trkpt>
      <trkpt lat="46.727917" lon="15.793656">
        <ele>233.512549</ele>
        <time>2024-05-11T09:58:35.000Z</time>
      </trkpt>
      <trkpt lat="46.727973" lon="15.793507">
        <ele>233.546994</ele>
        <time>2024-05-11T09:58:36.000Z</time>
      </trkpt>
      <trkpt lat="46.727992" lon="15.793414">
        <ele>233.57031</ele>
        <time>2024-05-11T09:58:37.000Z</time>
      </trkpt>
      <trkpt lat="46.728076" lon="15.793178">
        <ele>233.627737</ele>
        <time>2024-05-11T09:58:39.000Z</time>
      </trkpt>
      <trkpt lat="46.728193" lon="15.792923">
        <ele>233.693487</ele>
        <time>2024-05-11T09:58:41.000Z</time>
      </trkpt>
      <trkpt lat="46.728336" lon="15.792582">
        <ele>233.781503</ele>
        <time>2024-05-11T09:58:44.000Z</time>
      </trkpt>
      <trkpt lat="46.72844" lon="15.792305">
        <ele>233.85107</ele>
        <time>2024-05-11T09:58:46.000Z</time>
      </trkpt>
      <trkpt lat="46.728582" lon="15.791838">
        <ele>233.946853</ele>
        <time>2024-05-11T09:58:50.000Z</time>
      </trkpt>
      <trkpt lat="46.728607" lon="15.791729">
        <ele>233.961815</ele>
        <time>2024-05-11T09:58:51.000Z</time>
      </trkpt>
      <trkpt lat="46.72868" lon="15.791498">
        <ele>233.995212</ele>
        <time>2024-05-11T09:58:53.000Z</time>
      </trkpt>
      <trkpt lat="46.728778" lon="15.791178">
        <ele>234.040285</ele>
        <time>2024-05-11T09:58:56.000Z</time>
      </trkpt>
      <trkpt lat="46.728879" lon="15.790914">
        <ele>234.077527</ele>
        <time>2024-05-11T09:58:58.000Z</time>
      </trkpt>
      <trkpt lat="46.729079" lon="15.790379">
        <ele>234.1565</ele>
        <time>2024-05-11T09:59:03.000Z</time>
      </trkpt>
      <trkpt lat="46.729107" lon="15.790343">
        <ele>234.162182</ele>
        <time>2024-05-11T09:59:03.000Z</time>
      </trkpt>
      <trkpt lat="46.729126" lon="15.790249">
        <ele>234.174072</ele>
        <time>2024-05-11T09:59:04.000Z</time>
      </trkpt>
      <trkpt lat="46.729192" lon="15.790175">
        <ele>234.189776</ele>
        <time>2024-05-11T09:59:05.000Z</time>
      </trkpt>
      <trkpt lat="46.729254" lon="15.790151">
        <ele>234.202471</ele>
        <time>2024-05-11T09:59:06.000Z</time>
      </trkpt>
      <trkpt lat="46.729346" lon="15.790185">
        <ele>234.220018</ele>
        <time>2024-05-11T09:59:07.000Z</time>
      </trkpt>
      <trkpt lat="46.72975" lon="15.790469">
        <ele>234.240684</ele>
        <time>2024-05-11T09:59:12.000Z</time>
      </trkpt>
      <trkpt lat="46.730255" lon="15.790818">
        <ele>234.168329</ele>
        <time>2024-05-11T09:59:18.000Z</time>
      </trkpt>
      <trkpt lat="46.730392" lon="15.790847">
        <ele>234.149391</ele>
        <time>2024-05-11T09:59:20.000Z</time>
      </trkpt>
      <trkpt lat="46.730497" lon="15.790863">
        <ele>234.135557</ele>
        <time>2024-05-11T09:59:21.000Z</time>
      </trkpt>
      <trkpt lat="46.730638" lon="15.790839">
        <ele>234.116993</ele>
        <time>2024-05-11T09:59:23.000Z</time>
      </trkpt>
      <trkpt lat="46.730777" lon="15.790766">
        <ele>234.098416</ele>
        <time>2024-05-11T09:59:25.000Z</time>
      </trkpt>
      <trkpt lat="46.731175" lon="15.79055">
        <ele>234.041646</ele>
        <time>2024-05-11T09:59:30.000Z</time>
      </trkpt>
      <trkpt lat="46.731681" lon="15.790103">
        <ele>234.030526</ele>
        <time>2024-05-11T09:59:37.000Z</time>
      </trkpt>
      <trkpt lat="46.732352" lon="15.789329">
        <ele>234.030289</ele>
        <time>2024-05-11T09:59:47.000Z</time>
      </trkpt>
      <trkpt lat="46.732991" lon="15.788532">
        <ele>234.173711</ele>
        <time>2024-05-11T09:59:56.000Z</time>
      </trkpt>
      <trkpt lat="46.735253" lon="15.785792">
        <ele>235.52518</ele>
        <time>2024-05-11T10:00:29.000Z</time>
      </trkpt>
      <trkpt lat="46.736048" lon="15.784892">
        <ele>236.407278</ele>
        <time>2024-05-11T10:00:40.000Z</time>
      </trkpt>
      <trkpt lat="46.736059" lon="15.784867">
        <ele>236.437984</ele>
        <time>2024-05-11T10:00:40.000Z</time>
      </trkpt>
      <trkpt lat="46.737935" lon="15.782815">
        <ele>238.288953</ele>
        <time>2024-05-11T10:01:06.000Z</time>
      </trkpt>
      <trkpt lat="46.738256" lon="15.782464">
        <ele>238.542447</ele>
        <time>2024-05-11T10:01:10.000Z</time>
      </trkpt>
      <trkpt lat="46.738565" lon="15.78212">
        <ele>238.821669</ele>
        <time>2024-05-11T10:01:14.000Z</time>
      </trkpt>
      <trkpt lat="46.738774" lon="15.781882">
        <ele>239.033935</ele>
        <time>2024-05-11T10:01:17.000Z</time>
      </trkpt>
      <trkpt lat="46.739152" lon="15.781483">
        <ele>239.387612</ele>
        <time>2024-05-11T10:01:22.000Z</time>
      </trkpt>
      <trkpt lat="46.739549" lon="15.781043">
        <ele>239.770638</ele>
        <time>2024-05-11T10:01:28.000Z</time>
      </trkpt>
      <trkpt lat="46.739726" lon="15.78083">
        <ele>239.955955</ele>
        <time>2024-05-11T10:01:31.000Z</time>
      </trkpt>
      <trkpt lat="46.739858" lon="15.780667">
        <ele>240.28907</ele>
        <time>2024-05-11T10:01:33.000Z</time>
      </trkpt>
      <trkpt lat="46.739962" lon="15.780468">
        <ele>240.684221</ele>
        <time>2024-05-11T10:01:35.000Z</time>
      </trkpt>
      <trkpt lat="46.739966" lon="15.780369">
        <ele>240.846598</ele>
        <time>2024-05-11T10:01:36.000Z</time>
      </trkpt>
      <trkpt lat="46.740184" lon="15.780255">
        <ele>241.395053</ele>
        <time>2024-05-11T10:01:39.000Z</time>
      </trkpt>
      <trkpt lat="46.740247" lon="15.780226">
        <ele>241.510337</ele>
        <time>2024-05-11T10:01:40.000Z</time>
      </trkpt>
      <trkpt lat="46.740409" lon="15.7801">
        <ele>241.952706</ele>
        <time>2024-05-11T10:01:42.000Z</time>
      </trkpt>
      <trkpt lat="46.741093" lon="15.77961">
        <ele>243.725618</ele>
        <time>2024-05-11T10:01:50.000Z</time>
      </trkpt>
      <trkpt lat="46.741905" lon="15.779183">
        <ele>244.426975</ele>
        <time>2024-05-11T10:02:00.000Z</time>
      </trkpt>
      <trkpt lat="46.744469" lon="15.77806">
        <ele>244.326108</ele>
        <time>2024-05-11T10:02:30.000Z</time>
      </trkpt>
      <trkpt lat="46.744967" lon="15.777848">
        <ele>244.280405</ele>
        <time>2024-05-11T10:02:36.000Z</time>
      </trkpt>
      <trkpt lat="46.745259" lon="15.777736">
        <ele>244.335048</ele>
        <time>2024-05-11T10:02:39.000Z</time>
      </trkpt>
      <trkpt lat="46.746016" lon="15.777401">
        <ele>244.476304</ele>
        <time>2024-05-11T10:02:48.000Z</time>
      </trkpt>
      <trkpt lat="46.746745" lon="15.777105">
        <ele>244.855228</ele>
        <time>2024-05-11T10:02:56.000Z</time>
      </trkpt>
      <trkpt lat="46.747272" lon="15.776935">
        <ele>245.348248</ele>
        <time>2024-05-11T10:03:02.000Z</time>
      </trkpt>
      <trkpt lat="46.747696" lon="15.776845">
        <ele>245.728105</ele>
        <time>2024-05-11T10:03:07.000Z</time>
      </trkpt>
      <trkpt lat="46.747978" lon="15.776808">
        <ele>245.993994</ele>
        <time>2024-05-11T10:03:10.000Z</time>
      </trkpt>
      <trkpt lat="46.748525" lon="15.776806">
        <ele>246.716935</ele>
        <time>2024-05-11T10:03:16.000Z</time>
      </trkpt>
      <trkpt lat="46.749056" lon="15.776872">
        <ele>247.552199</ele>
        <time>2024-05-11T10:03:22.000Z</time>
      </trkpt>
      <trkpt lat="46.749239" lon="15.776917">
        <ele>247.851153</ele>
        <time>2024-05-11T10:03:24.000Z</time>
      </trkpt>
      <trkpt lat="46.749519" lon="15.777012">
        <ele>248.306223</ele>
        <time>2024-05-11T10:03:27.000Z</time>
      </trkpt>
      <trkpt lat="46.749651" lon="15.777042">
        <ele>248.533536</ele>
        <time>2024-05-11T10:03:28.000Z</time>
      </trkpt>
      <trkpt lat="46.749708" lon="15.777055">
        <ele>248.625625</ele>
        <time>2024-05-11T10:03:29.000Z</time>
      </trkpt>
      <trkpt lat="46.74978" lon="15.777074">
        <ele>248.731714</ele>
        <time>2024-05-11T10:03:30.000Z</time>
      </trkpt>
      <trkpt lat="46.750108" lon="15.777146">
        <ele>249.124345</ele>
        <time>2024-05-11T10:03:34.000Z</time>
      </trkpt>
      <trkpt lat="46.75048" lon="15.777157">
        <ele>249.303741</ele>
        <time>2024-05-11T10:03:38.000Z</time>
      </trkpt>
      <trkpt lat="46.750493" lon="15.777164">
        <ele>249.317104</ele>
        <time>2024-05-11T10:03:38.000Z</time>
      </trkpt>
      <trkpt lat="46.750714" lon="15.777132">
        <ele>249.428014</ele>
        <time>2024-05-11T10:03:40.000Z</time>
      </trkpt>
      <trkpt lat="46.75105" lon="15.777032">
        <ele>249.592863</ele>
        <time>2024-05-11T10:03:44.000Z</time>
      </trkpt>
      <trkpt lat="46.751425" lon="15.776859">
        <ele>249.787717</ele>
        <time>2024-05-11T10:03:48.000Z</time>
      </trkpt>
      <trkpt lat="46.752085" lon="15.776577">
        <ele>249.983825</ele>
        <time>2024-05-11T10:03:56.000Z</time>
      </trkpt>
      <trkpt lat="46.752347" lon="15.776448">
        <ele>250.009894</ele>
        <time>2024-05-11T10:03:59.000Z</time>
      </trkpt>
      <trkpt lat="46.752543" lon="15.776398">
        <ele>250.028866</ele>
        <time>2024-05-11T10:04:01.000Z</time>
      </trkpt>
      <trkpt lat="46.752867" lon="15.776294">
        <ele>250.061118</ele>
        <time>2024-05-11T10:04:05.000Z</time>
      </trkpt>
      <trkpt lat="46.753109" lon="15.77623">
        <ele>250.083961</ele>
        <time>2024-05-11T10:04:08.000Z</time>
      </trkpt>
      <trkpt lat="46.753122" lon="15.77622">
        <ele>250.086498</ele>
        <time>2024-05-11T10:04:08.000Z</time>
      </trkpt>
      <trkpt lat="46.753484" lon="15.776105">
        <ele>250.12261</ele>
        <time>2024-05-11T10:04:12.000Z</time>
      </trkpt>
      <trkpt lat="46.753568" lon="15.776063">
        <ele>250.13847</ele>
        <time>2024-05-11T10:04:13.000Z</time>
      </trkpt>
      <trkpt lat="46.753588" lon="15.776042">
        <ele>250.142812</ele>
        <time>2024-05-11T10:04:13.000Z</time>
      </trkpt>
      <trkpt lat="46.754003" lon="15.775825">
        <ele>250.22681</ele>
        <time>2024-05-11T10:04:18.000Z</time>
      </trkpt>
      <trkpt lat="46.754076" lon="15.775751">
        <ele>250.244676</ele>
        <time>2024-05-11T10:04:19.000Z</time>
      </trkpt>
      <trkpt lat="46.754471" lon="15.775482">
        <ele>250.326739</ele>
        <time>2024-05-11T10:04:24.000Z</time>
      </trkpt>
      <trkpt lat="46.756213" lon="15.773665">
        <ele>250.30468</ele>
        <time>2024-05-11T10:04:48.000Z</time>
      </trkpt>
      <trkpt lat="46.756408" lon="15.773474">
        <ele>250.277096</ele>
        <time>2024-05-11T10:04:51.000Z</time>
      </trkpt>
      <trkpt lat="46.757081" lon="15.772805">
        <ele>249.513004</ele>
        <time>2024-05-11T10:05:00.000Z</time>
      </trkpt>
      <trkpt lat="46.757207" lon="15.772673">
        <ele>249.333159</ele>
        <time>2024-05-11T10:05:02.000Z</time>
      </trkpt>
      <trkpt lat="46.757275" lon="15.772602">
        <ele>249.24139</ele>
        <time>2024-05-11T10:05:03.000Z</time>
      </trkpt>
      <trkpt lat="46.757596" lon="15.772248">
        <ele>248.78854</ele>
        <time>2024-05-11T10:05:07.000Z</time>
      </trkpt>
      <trkpt lat="46.757652" lon="15.772161">
        <ele>248.695329</ele>
        <time>2024-05-11T10:05:08.000Z</time>
      </trkpt>
      <trkpt lat="46.757821" lon="15.771976">
        <ele>248.457455</ele>
        <time>2024-05-11T10:05:10.000Z</time>
      </trkpt>
      <trkpt lat="46.757923" lon="15.771891">
        <ele>248.339433</ele>
        <time>2024-05-11T10:05:11.000Z</time>
      </trkpt>
      <trkpt lat="46.758367" lon="15.771426">
        <ele>247.80373</ele>
        <time>2024-05-11T10:05:17.000Z</time>
      </trkpt>
      <trkpt lat="46.758732" lon="15.771095">
        <ele>247.393067</ele>
        <time>2024-05-11T10:05:22.000Z</time>
      </trkpt>
      <trkpt lat="46.758774" lon="15.771037">
        <ele>247.337547</ele>
        <time>2024-05-11T10:05:23.000Z</time>
      </trkpt>
      <trkpt lat="46.759607" lon="15.770354">
        <ele>246.521901</ele>
        <time>2024-05-11T10:05:34.000Z</time>
      </trkpt>
      <trkpt lat="46.760349" lon="15.769913">
        <ele>246.42461</ele>
        <time>2024-05-11T10:05:43.000Z</time>
      </trkpt>
      <trkpt lat="46.760924" lon="15.769696">
        <ele>246.353484</ele>
        <time>2024-05-11T10:05:50.000Z</time>
      </trkpt>
      <trkpt lat="46.762091" lon="15.769538">
        <ele>246.479769</ele>
        <time>2024-05-11T10:06:03.000Z</time>
      </trkpt>
      <trkpt lat="46.763151" lon="15.769584">
        <ele>246.697601</ele>
        <time>2024-05-11T10:06:15.000Z</time>
      </trkpt>
      <trkpt lat="46.763353" lon="15.769604">
        <ele>246.770721</ele>
        <time>2024-05-11T10:06:17.000Z</time>
      </trkpt>
      <trkpt lat="46.763457" lon="15.769613">
        <ele>246.803572</ele>
        <time>2024-05-11T10:06:18.000Z</time>
      </trkpt>
      <trkpt lat="46.76358" lon="15.769623">
        <ele>246.848855</ele>
        <time>2024-05-11T10:06:19.000Z</time>
      </trkpt>
      <trkpt lat="46.767146" lon="15.77003">
        <ele>248.263646</ele>
        <time>2024-05-11T10:06:59.000Z</time>
      </trkpt>
      <trkpt lat="46.768079" lon="15.770044">
        <ele>248.735873</ele>
        <time>2024-05-11T10:07:09.000Z</time>
      </trkpt>
      <trkpt lat="46.768938" lon="15.769977">
        <ele>249.235017</ele>
        <time>2024-05-11T10:07:19.000Z</time>
      </trkpt>
      <trkpt lat="46.769473" lon="15.769844">
        <ele>249.572164</ele>
        <time>2024-05-11T10:07:25.000Z</time>
      </trkpt>
      <trkpt lat="46.771323" lon="15.769423">
        <ele>250.625253</ele>
        <time>2024-05-11T10:07:46.000Z</time>
      </trkpt>
      <trkpt lat="46.772015" lon="15.76927">
        <ele>250.990001</ele>
        <time>2024-05-11T10:07:54.000Z</time>
      </trkpt>
      <trkpt lat="46.772556" lon="15.769107">
        <ele>251.220263</ele>
        <time>2024-05-11T10:08:00.000Z</time>
      </trkpt>
      <trkpt lat="46.772835" lon="15.769004">
        <ele>251.338328</ele>
        <time>2024-05-11T10:08:03.000Z</time>
      </trkpt>
      <trkpt lat="46.773686" lon="15.768736">
        <ele>251.689198</ele>
        <time>2024-05-11T10:08:13.000Z</time>
      </trkpt>
      <trkpt lat="46.77457" lon="15.768258">
        <ele>251.89934</ele>
        <time>2024-05-11T10:08:23.000Z</time>
      </trkpt>
      <trkpt lat="46.774988" lon="15.767956">
        <ele>251.997398</ele>
        <time>2024-05-11T10:08:28.000Z</time>
      </trkpt>
      <trkpt lat="46.775317" lon="15.767811">
        <ele>252.069485</ele>
        <time>2024-05-11T10:08:32.000Z</time>
      </trkpt>
      <trkpt lat="46.775649" lon="15.767793">
        <ele>252.094186</ele>
        <time>2024-05-11T10:08:36.000Z</time>
      </trkpt>
      <trkpt lat="46.775805" lon="15.767776">
        <ele>252.099888</ele>
        <time>2024-05-11T10:08:38.000Z</time>
      </trkpt>
      <trkpt lat="46.775912" lon="15.767805">
        <ele>252.103339</ele>
        <time>2024-05-11T10:08:39.000Z</time>
      </trkpt>
      <trkpt lat="46.776168" lon="15.767893">
        <ele>252.11223</ele>
        <time>2024-05-11T10:08:42.000Z</time>
      </trkpt>
      <trkpt lat="46.776823" lon="15.768068">
        <ele>252.134702</ele>
        <time>2024-05-11T10:08:49.000Z</time>
      </trkpt>
      <trkpt lat="46.77707" lon="15.768065">
        <ele>252.142821</ele>
        <time>2024-05-11T10:08:52.000Z</time>
      </trkpt>
      <trkpt lat="46.777325" lon="15.767988">
        <ele>252.224989</ele>
        <time>2024-05-11T10:08:55.000Z</time>
      </trkpt>
      <trkpt lat="46.777759" lon="15.767821">
        <ele>252.456079</ele>
        <time>2024-05-11T10:09:00.000Z</time>
      </trkpt>
      <trkpt lat="46.778168" lon="15.767657">
        <ele>252.68084</ele>
        <time>2024-05-11T10:09:05.000Z</time>
      </trkpt>
      <trkpt lat="46.778257" lon="15.767636">
        <ele>252.725461</ele>
        <time>2024-05-11T10:09:06.000Z</time>
      </trkpt>
      <trkpt lat="46.778393" lon="15.767584">
        <ele>252.800924</ele>
        <time>2024-05-11T10:09:08.000Z</time>
      </trkpt>
      <trkpt lat="46.778612" lon="15.76746">
        <ele>252.91676</ele>
        <time>2024-05-11T10:09:11.000Z</time>
      </trkpt>
      <trkpt lat="46.778659" lon="15.767395">
        <ele>252.949063</ele>
        <time>2024-05-11T10:09:12.000Z</time>
      </trkpt>
      <trkpt lat="46.778697" lon="15.767356">
        <ele>252.974901</ele>
        <time>2024-05-11T10:09:13.000Z</time>
      </trkpt>
      <trkpt lat="46.778925" lon="15.767107">
        <ele>253.131644</ele>
        <time>2024-05-11T10:09:16.000Z</time>
      </trkpt>
      <trkpt lat="46.778952" lon="15.767083">
        <ele>253.153739</ele>
        <time>2024-05-11T10:09:16.000Z</time>
      </trkpt>
      <trkpt lat="46.779157" lon="15.76677">
        <ele>253.341361</ele>
        <time>2024-05-11T10:09:19.000Z</time>
      </trkpt>
      <trkpt lat="46.779328" lon="15.766511">
        <ele>253.497659</ele>
        <time>2024-05-11T10:09:22.000Z</time>
      </trkpt>
      <trkpt lat="46.779475" lon="15.766263">
        <ele>253.639058</ele>
        <time>2024-05-11T10:09:24.000Z</time>
      </trkpt>
      <trkpt lat="46.77978" lon="15.766477">
        <ele>253.849774</ele>
        <time>2024-05-11T10:09:28.000Z</time>
      </trkpt>
      <trkpt lat="46.779974" lon="15.766622">
        <ele>253.994525</ele>
        <time>2024-05-11T10:09:30.000Z</time>
      </trkpt>
      <trkpt lat="46.780002" lon="15.766625">
        <ele>254.002157</ele>
        <time>2024-05-11T10:09:30.000Z</time>
      </trkpt>
      <trkpt lat="46.780166" lon="15.766796">
        <ele>254.140446</ele>
        <time>2024-05-11T10:09:32.000Z</time>
      </trkpt>
      <trkpt lat="46.780295" lon="15.767011">
        <ele>254.273632</ele>
        <time>2024-05-11T10:09:34.000Z</time>
      </trkpt>
      <trkpt lat="46.780358" lon="15.767156">
        <ele>254.376199</ele>
        <time>2024-05-11T10:09:35.000Z</time>
      </trkpt>
      <trkpt lat="46.780522" lon="15.767554">
        <ele>254.650693</ele>
        <time>2024-05-11T10:09:39.000Z</time>
      </trkpt>
      <trkpt lat="46.78059" lon="15.76765">
        <ele>254.735946</ele>
        <time>2024-05-11T10:09:40.000Z</time>
      </trkpt>
      <trkpt lat="46.780728" lon="15.767704">
        <ele>254.855705</ele>
        <time>2024-05-11T10:09:42.000Z</time>
      </trkpt>
      <trkpt lat="46.781106" lon="15.767618">
        <ele>255.182675</ele>
        <time>2024-05-11T10:09:46.000Z</time>
      </trkpt>
      <trkpt lat="46.781148" lon="15.767626">
        <ele>255.228244</ele>
        <time>2024-05-11T10:09:46.000Z</time>
      </trkpt>
      <trkpt lat="46.78134" lon="15.767679">
        <ele>255.393207</ele>
        <time>2024-05-11T10:09:48.000Z</time>
      </trkpt>
      <trkpt lat="46.781496" lon="15.767727">
        <ele>255.531521</ele>
        <time>2024-05-11T10:09:50.000Z</time>
      </trkpt>
      <trkpt lat="46.781536" lon="15.767742">
        <ele>255.569483</ele>
        <time>2024-05-11T10:09:50.000Z</time>
      </trkpt>
      <trkpt lat="46.781718" lon="15.767788">
        <ele>255.727325</ele>
        <time>2024-05-11T10:09:52.000Z</time>
      </trkpt>
      <trkpt lat="46.781763" lon="15.767832">
        <ele>255.799983</ele>
        <time>2024-05-11T10:09:53.000Z</time>
      </trkpt>
      <trkpt lat="46.781915" lon="15.767922">
        <ele>256.491633</ele>
        <time>2024-05-11T10:09:55.000Z</time>
      </trkpt>
      <trkpt lat="46.782038" lon="15.768028">
        <ele>257.083704</ele>
        <time>2024-05-11T10:09:57.000Z</time>
      </trkpt>
      <trkpt lat="46.78211" lon="15.768229">
        <ele>257.821014</ele>
        <time>2024-05-11T10:09:59.000Z</time>
      </trkpt>
      <trkpt lat="46.7823" lon="15.768812">
        <ele>259.777319</ele>
        <time>2024-05-11T10:10:04.000Z</time>
      </trkpt>
      <trkpt lat="46.78251" lon="15.769048">
        <ele>260.920437</ele>
        <time>2024-05-11T10:10:07.000Z</time>
      </trkpt>
      <trkpt lat="46.783346" lon="15.769594">
        <ele>265.609104</ele>
        <time>2024-05-11T10:10:17.000Z</time>
      </trkpt>
      <trkpt lat="46.783892" lon="15.770071">
        <ele>269.882382</ele>
        <time>2024-05-11T10:10:24.000Z</time>
      </trkpt>
      <trkpt lat="46.785072" lon="15.770689">
        <ele>276.10967</ele>
        <time>2024-05-11T10:10:38.000Z</time>
      </trkpt>
      <trkpt lat="46.78522" lon="15.77078">
        <ele>276.277919</ele>
        <time>2024-05-11T10:10:40.000Z</time>
      </trkpt>
      <trkpt lat="46.785421" lon="15.770884">
        <ele>276.486043</ele>
        <time>2024-05-11T10:10:42.000Z</time>
      </trkpt>
      <trkpt lat="46.785692" lon="15.771019">
        <ele>276.780763</ele>
        <time>2024-05-11T10:10:45.000Z</time>
      </trkpt>
      <trkpt lat="46.785763" lon="15.771065">
        <ele>276.838358</ele>
        <time>2024-05-11T10:10:46.000Z</time>
      </trkpt>
      <trkpt lat="46.785865" lon="15.771075">
        <ele>276.94833</ele>
        <time>2024-05-11T10:10:47.000Z</time>
      </trkpt>
      <trkpt lat="46.786294" lon="15.771183">
        <ele>277.381106</ele>
        <time>2024-05-11T10:10:52.000Z</time>
      </trkpt>
      <trkpt lat="46.78631" lon="15.771183">
        <ele>277.411637</ele>
        <time>2024-05-11T10:10:52.000Z</time>
      </trkpt>
      <trkpt lat="46.786628" lon="15.771307">
        <ele>277.193246</ele>
        <time>2024-05-11T10:10:56.000Z</time>
      </trkpt>
      <trkpt lat="46.786879" lon="15.771477">
        <ele>276.678803</ele>
        <time>2024-05-11T10:10:59.000Z</time>
      </trkpt>
      <trkpt lat="46.786958" lon="15.771517">
        <ele>276.526532</ele>
        <time>2024-05-11T10:11:00.000Z</time>
      </trkpt>
      <trkpt lat="46.787196" lon="15.771602">
        <ele>276.073534</ele>
        <time>2024-05-11T10:11:03.000Z</time>
      </trkpt>
      <trkpt lat="46.787254" lon="15.771618">
        <ele>275.96224</ele>
        <time>2024-05-11T10:11:04.000Z</time>
      </trkpt>
      <trkpt lat="46.787581" lon="15.771675">
        <ele>275.383494</ele>
        <time>2024-05-11T10:11:08.000Z</time>
      </trkpt>
      <trkpt lat="46.787601" lon="15.771676">
        <ele>275.352573</ele>
        <time>2024-05-11T10:11:08.000Z</time>
      </trkpt>
      <trkpt lat="46.787756" lon="15.771692">
        <ele>275.070243</ele>
        <time>2024-05-11T10:11:10.000Z</time>
      </trkpt>
      <trkpt lat="46.787843" lon="15.771703">
        <ele>274.886321</ele>
        <time>2024-05-11T10:11:11.000Z</time>
      </trkpt>
      <trkpt lat="46.787976" lon="15.771723">
        <ele>274.654996</ele>
        <time>2024-05-11T10:11:12.000Z</time>
      </trkpt>
      <trkpt lat="46.788162" lon="15.771743">
        <ele>274.333138</ele>
        <time>2024-05-11T10:11:14.000Z</time>
      </trkpt>
      <trkpt lat="46.788163" lon="15.771754">
        <ele>274.302215</ele>
        <time>2024-05-11T10:11:14.000Z</time>
      </trkpt>
      <trkpt lat="46.788338" lon="15.771808">
        <ele>274.816547</ele>
        <time>2024-05-11T10:11:16.000Z</time>
      </trkpt>
      <trkpt lat="46.788697" lon="15.77194">
        <ele>276.021215</ele>
        <time>2024-05-11T10:11:20.000Z</time>
      </trkpt>
      <trkpt lat="46.789015" lon="15.772058">
        <ele>277.124133</ele>
        <time>2024-05-11T10:11:24.000Z</time>
      </trkpt>
      <trkpt lat="46.789778" lon="15.772214">
        <ele>279.661053</ele>
        <time>2024-05-11T10:11:33.000Z</time>
      </trkpt>
      <trkpt lat="46.78991" lon="15.772318">
        <ele>280.146015</ele>
        <time>2024-05-11T10:11:35.000Z</time>
      </trkpt>
      <trkpt lat="46.790292" lon="15.772631">
        <ele>282.554199</ele>
        <time>2024-05-11T10:11:40.000Z</time>
      </trkpt>
      <trkpt lat="46.790377" lon="15.772716">
        <ele>283.189485</ele>
        <time>2024-05-11T10:11:41.000Z</time>
      </trkpt>
      <trkpt lat="46.790388" lon="15.772741">
        <ele>283.292672</ele>
        <time>2024-05-11T10:11:41.000Z</time>
      </trkpt>
      <trkpt lat="46.790652" lon="15.773034">
        <ele>285.098793</ele>
        <time>2024-05-11T10:11:45.000Z</time>
      </trkpt>
      <trkpt lat="46.790832" lon="15.773446">
        <ele>287.017058</ele>
        <time>2024-05-11T10:11:49.000Z</time>
      </trkpt>
      <trkpt lat="46.790995" lon="15.773906">
        <ele>289.065091</ele>
        <time>2024-05-11T10:11:53.000Z</time>
      </trkpt>
      <trkpt lat="46.791078" lon="15.774292">
        <ele>290.538795</ele>
        <time>2024-05-11T10:11:56.000Z</time>
      </trkpt>
      <trkpt lat="46.791235" lon="15.77466">
        <ele>291.536775</ele>
        <time>2024-05-11T10:11:59.000Z</time>
      </trkpt>
      <trkpt lat="46.791984" lon="15.775836">
        <ele>295.251122</ele>
        <time>2024-05-11T10:12:11.000Z</time>
      </trkpt>
      <trkpt lat="46.792463" lon="15.776411">
        <ele>296.02906</ele>
        <time>2024-05-11T10:12:18.000Z</time>
      </trkpt>
      <trkpt lat="46.792619" lon="15.77686">
        <ele>295.394165</ele>
        <time>2024-05-11T10:12:22.000Z</time>
      </trkpt>
      <trkpt lat="46.792781" lon="15.778228">
        <ele>293.648072</ele>
        <time>2024-05-11T10:12:33.000Z</time>
      </trkpt>
      <trkpt lat="46.792982" lon="15.778787">
        <ele>291.533909</ele>
        <time>2024-05-11T10:12:38.000Z</time>
      </trkpt>
      <trkpt lat="46.793234" lon="15.77917">
        <ele>288.222343</ele>
        <time>2024-05-11T10:12:42.000Z</time>
      </trkpt>
      <trkpt lat="46.793225" lon="15.779179">
        <ele>288.222342</ele>
        <time>2024-05-11T10:12:42.000Z</time>
      </trkpt>
      <trkpt lat="46.79332" lon="15.77928">
        <ele>287.187104</ele>
        <time>2024-05-11T10:12:43.000Z</time>
      </trkpt>
      <trkpt lat="46.793417" lon="15.779359">
        <ele>286.10371</ele>
        <time>2024-05-11T10:12:44.000Z</time>
      </trkpt>
      <trkpt lat="46.793553" lon="15.779436">
        <ele>284.87091</ele>
        <time>2024-05-11T10:12:46.000Z</time>
      </trkpt>
      <trkpt lat="46.793793" lon="15.779434">
        <ele>282.565233</ele>
        <time>2024-05-11T10:12:49.000Z</time>
      </trkpt>
      <trkpt lat="46.794118" lon="15.779289">
        <ele>279.439363</ele>
        <time>2024-05-11T10:12:53.000Z</time>
      </trkpt>
      <trkpt lat="46.79418" lon="15.779269">
        <ele>278.956433</ele>
        <time>2024-05-11T10:12:54.000Z</time>
      </trkpt>
      <trkpt lat="46.79433" lon="15.779215">
        <ele>277.538071</ele>
        <time>2024-05-11T10:12:56.000Z</time>
      </trkpt>
      <trkpt lat="46.794707" lon="15.779181">
        <ele>275.006968</ele>
        <time>2024-05-11T10:13:00.000Z</time>
      </trkpt>
      <trkpt lat="46.79485" lon="15.779061">
        <ele>273.948708</ele>
        <time>2024-05-11T10:13:02.000Z</time>
      </trkpt>
      <trkpt lat="46.795018" lon="15.778873">
        <ele>272.667724</ele>
        <time>2024-05-11T10:13:04.000Z</time>
      </trkpt>
      <trkpt lat="46.79527" lon="15.778593">
        <ele>270.728866</ele>
        <time>2024-05-11T10:13:08.000Z</time>
      </trkpt>
      <trkpt lat="46.795389" lon="15.778491">
        <ele>269.80368</ele>
        <time>2024-05-11T10:13:10.000Z</time>
      </trkpt>
      <trkpt lat="46.795485" lon="15.77846">
        <ele>269.285887</ele>
        <time>2024-05-11T10:13:11.000Z</time>
      </trkpt>
      <trkpt lat="46.795538" lon="15.778446">
        <ele>268.97951</ele>
        <time>2024-05-11T10:13:12.000Z</time>
      </trkpt>
      <trkpt lat="46.795726" lon="15.778595">
        <ele>267.677945</ele>
        <time>2024-05-11T10:13:14.000Z</time>
      </trkpt>
      <trkpt lat="46.795893" lon="15.77888">
        <ele>266.039913</ele>
        <time>2024-05-11T10:13:17.000Z</time>
      </trkpt>
      <trkpt lat="46.795958" lon="15.778979">
        <ele>265.738831</ele>
        <time>2024-05-11T10:13:18.000Z</time>
      </trkpt>
      <trkpt lat="46.796063" lon="15.779154">
        <ele>265.810156</ele>
        <time>2024-05-11T10:13:20.000Z</time>
      </trkpt>
      <trkpt lat="46.796167" lon="15.779321">
        <ele>265.885466</ele>
        <time>2024-05-11T10:13:22.000Z</time>
      </trkpt>
      <trkpt lat="46.796288" lon="15.779504">
        <ele>265.957105</ele>
        <time>2024-05-11T10:13:24.000Z</time>
      </trkpt>
      <trkpt lat="46.796408" lon="15.779637">
        <ele>266.022982</ele>
        <time>2024-05-11T10:13:26.000Z</time>
      </trkpt>
      <trkpt lat="46.796625" lon="15.779716">
        <ele>266.123266</ele>
        <time>2024-05-11T10:13:28.000Z</time>
      </trkpt>
      <trkpt lat="46.796759" lon="15.779658">
        <ele>266.184633</ele>
        <time>2024-05-11T10:13:30.000Z</time>
      </trkpt>
      <trkpt lat="46.796994" lon="15.779461">
        <ele>266.306746</ele>
        <time>2024-05-11T10:13:33.000Z</time>
      </trkpt>
      <trkpt lat="46.797289" lon="15.779216">
        <ele>266.458884</ele>
        <time>2024-05-11T10:13:37.000Z</time>
      </trkpt>
      <trkpt lat="46.797393" lon="15.779583">
        <ele>266.618633</ele>
        <time>2024-05-11T10:13:40.000Z</time>
      </trkpt>
      <trkpt lat="46.79762" lon="15.780705">
        <ele>267.254434</ele>
        <time>2024-05-11T10:13:49.000Z</time>
      </trkpt>
      <trkpt lat="46.797692" lon="15.782154">
        <ele>268.033479</ele>
        <time>2024-05-11T10:14:00.000Z</time>
      </trkpt>
      <trkpt lat="46.797711" lon="15.78225">
        <ele>268.078943</ele>
        <time>2024-05-11T10:14:01.000Z</time>
      </trkpt>
      <trkpt lat="46.797823" lon="15.782983">
        <ele>268.437441</ele>
        <time>2024-05-11T10:14:07.000Z</time>
      </trkpt>
      <trkpt lat="46.798021" lon="15.783712">
        <ele>268.795656</ele>
        <time>2024-05-11T10:14:13.000Z</time>
      </trkpt>
      <trkpt lat="46.798074" lon="15.783902">
        <ele>268.896197</ele>
        <time>2024-05-11T10:14:15.000Z</time>
      </trkpt>
      <trkpt lat="46.798123" lon="15.78407">
        <ele>268.98693</ele>
        <time>2024-05-11T10:14:16.000Z</time>
      </trkpt>
      <trkpt lat="46.798625" lon="15.78518">
        <ele>269.634319</ele>
        <time>2024-05-11T10:14:26.000Z</time>
      </trkpt>
      <trkpt lat="46.799383" lon="15.786552">
        <ele>270.51267</ele>
        <time>2024-05-11T10:14:39.000Z</time>
      </trkpt>
      <trkpt lat="46.799438" lon="15.786799">
        <ele>270.633261</ele>
        <time>2024-05-11T10:14:41.000Z</time>
      </trkpt>
      <trkpt lat="46.799628" lon="15.787255">
        <ele>270.88236</ele>
        <time>2024-05-11T10:14:45.000Z</time>
      </trkpt>
      <trkpt lat="46.799928" lon="15.788196">
        <ele>271.381068</ele>
        <time>2024-05-11T10:14:53.000Z</time>
      </trkpt>
      <trkpt lat="46.800626" lon="15.789278">
        <ele>271.887341</ele>
        <time>2024-05-11T10:15:04.000Z</time>
      </trkpt>
      <trkpt lat="46.800867" lon="15.789846">
        <ele>272.027647</ele>
        <time>2024-05-11T10:15:09.000Z</time>
      </trkpt>
      <trkpt lat="46.800939" lon="15.790093">
        <ele>272.082021</ele>
        <time>2024-05-11T10:15:11.000Z</time>
      </trkpt>
      <trkpt lat="46.801008" lon="15.790461">
        <ele>272.158178</ele>
        <time>2024-05-11T10:15:14.000Z</time>
      </trkpt>
      <trkpt lat="46.801137" lon="15.79089">
        <ele>272.252901</ele>
        <time>2024-05-11T10:15:18.000Z</time>
      </trkpt>
      <trkpt lat="46.801344" lon="15.791315">
        <ele>272.260831</ele>
        <time>2024-05-11T10:15:22.000Z</time>
      </trkpt>
      <trkpt lat="46.801535" lon="15.791615">
        <ele>272.240522</ele>
        <time>2024-05-11T10:15:25.000Z</time>
      </trkpt>
      <trkpt lat="46.801809" lon="15.791877">
        <ele>272.218275</ele>
        <time>2024-05-11T10:15:29.000Z</time>
      </trkpt>
      <trkpt lat="46.803574" lon="15.79283">
        <ele>272.125525</ele>
        <time>2024-05-11T10:15:50.000Z</time>
      </trkpt>
      <trkpt lat="46.805752" lon="15.79451">
        <ele>272.456301</ele>
        <time>2024-05-11T10:16:17.000Z</time>
      </trkpt>
      <trkpt lat="46.806179" lon="15.794752">
        <ele>272.697395</ele>
        <time>2024-05-11T10:16:22.000Z</time>
      </trkpt>
      <trkpt lat="46.806246" lon="15.794815">
        <ele>272.761287</ele>
        <time>2024-05-11T10:16:23.000Z</time>
      </trkpt>
      <trkpt lat="46.80635" lon="15.794878">
        <ele>272.8393</ele>
        <time>2024-05-11T10:16:24.000Z</time>
      </trkpt>
      <trkpt lat="46.806378" lon="15.79491">
        <ele>272.870386</ele>
        <time>2024-05-11T10:16:24.000Z</time>
      </trkpt>
      <trkpt lat="46.80645" lon="15.795059">
        <ele>272.956355</ele>
        <time>2024-05-11T10:16:25.000Z</time>
      </trkpt>
      <trkpt lat="46.806545" lon="15.795355">
        <ele>273.122334</ele>
        <time>2024-05-11T10:16:27.000Z</time>
      </trkpt>
      <trkpt lat="46.806606" lon="15.795498">
        <ele>273.198352</ele>
        <time>2024-05-11T10:16:28.000Z</time>
      </trkpt>
      <trkpt lat="46.806646" lon="15.795612">
        <ele>273.262577</ele>
        <time>2024-05-11T10:16:29.000Z</time>
      </trkpt>
      <trkpt lat="46.806739" lon="15.795856">
        <ele>273.410252</ele>
        <time>2024-05-11T10:16:31.000Z</time>
      </trkpt>
      <trkpt lat="46.806857" lon="15.796157">
        <ele>273.572643</ele>
        <time>2024-05-11T10:16:34.000Z</time>
      </trkpt>
      <trkpt lat="46.80698" lon="15.79644">
        <ele>273.743403</ele>
        <time>2024-05-11T10:16:37.000Z</time>
      </trkpt>
      <trkpt lat="46.807184" lon="15.796804">
        <ele>273.994106</ele>
        <time>2024-05-11T10:16:41.000Z</time>
      </trkpt>
      <trkpt lat="46.807268" lon="15.796941">
        <ele>274.09785</ele>
        <time>2024-05-11T10:16:42.000Z</time>
      </trkpt>
      <trkpt lat="46.807352" lon="15.797109">
        <ele>274.209447</ele>
        <time>2024-05-11T10:16:44.000Z</time>
      </trkpt>
      <trkpt lat="46.807378" lon="15.797176">
        <ele>274.250057</ele>
        <time>2024-05-11T10:16:45.000Z</time>
      </trkpt>
      <trkpt lat="46.807547" lon="15.797567">
        <ele>274.495548</ele>
        <time>2024-05-11T10:16:49.000Z</time>
      </trkpt>
      <trkpt lat="46.807541" lon="15.797571">
        <ele>274.500479</ele>
        <time>2024-05-11T10:16:49.000Z</time>
      </trkpt>
      <trkpt lat="46.807596" lon="15.797675">
        <ele>274.57101</ele>
        <time>2024-05-11T10:16:50.000Z</time>
      </trkpt>
      <trkpt lat="46.807678" lon="15.797854">
        <ele>274.681702</ele>
        <time>2024-05-11T10:16:52.000Z</time>
      </trkpt>
      <trkpt lat="46.807789" lon="15.798111">
        <ele>274.846086</ele>
        <time>2024-05-11T10:16:54.000Z</time>
      </trkpt>
      <trkpt lat="46.807778" lon="15.798116">
        <ele>274.853005</ele>
        <time>2024-05-11T10:16:54.000Z</time>
      </trkpt>
      <trkpt lat="46.807853" lon="15.798426">
        <ele>275.027206</ele>
        <time>2024-05-11T10:16:57.000Z</time>
      </trkpt>
      <trkpt lat="46.808041" lon="15.798413">
        <ele>275.175214</ele>
        <time>2024-05-11T10:16:59.000Z</time>
      </trkpt>
      <trkpt lat="46.8081" lon="15.798394">
        <ele>275.218445</ele>
        <time>2024-05-11T10:17:00.000Z</time>
      </trkpt>
      <trkpt lat="46.808186" lon="15.798354">
        <ele>275.308563</ele>
        <time>2024-05-11T10:17:01.000Z</time>
      </trkpt>
      <trkpt lat="46.808294" lon="15.798083">
        <ele>275.518065</ele>
        <time>2024-05-11T10:17:03.000Z</time>
      </trkpt>
      <trkpt lat="46.808336" lon="15.797845">
        <ele>275.688577</ele>
        <time>2024-05-11T10:17:05.000Z</time>
      </trkpt>
      <trkpt lat="46.808566" lon="15.797211">
        <ele>276.164275</ele>
        <time>2024-05-11T10:17:10.000Z</time>
      </trkpt>
      <trkpt lat="46.808878" lon="15.796521">
        <ele>276.717293</ele>
        <time>2024-05-11T10:17:16.000Z</time>
      </trkpt>
      <trkpt lat="46.809129" lon="15.796172">
        <ele>277.055894</ele>
        <time>2024-05-11T10:17:20.000Z</time>
      </trkpt>
      <trkpt lat="46.809314" lon="15.796014">
        <ele>277.23443</ele>
        <time>2024-05-11T10:17:22.000Z</time>
      </trkpt>
      <trkpt lat="46.809541" lon="15.796162">
        <ele>277.445744</ele>
        <time>2024-05-11T10:17:25.000Z</time>
      </trkpt>
      <trkpt lat="46.811323" lon="15.797756">
        <ele>279.182207</ele>
        <time>2024-05-11T10:17:48.000Z</time>
      </trkpt>
      <trkpt lat="46.811981" lon="15.798209">
        <ele>279.759609</ele>
        <time>2024-05-11T10:17:56.000Z</time>
      </trkpt>
      <trkpt lat="46.812477" lon="15.798455">
        <ele>280.202003</ele>
        <time>2024-05-11T10:18:02.000Z</time>
      </trkpt>
      <trkpt lat="46.813024" lon="15.798448">
        <ele>280.698761</ele>
        <time>2024-05-11T10:18:08.000Z</time>
      </trkpt>
      <trkpt lat="46.813795" lon="15.798352">
        <ele>281.406362</ele>
        <time>2024-05-11T10:18:17.000Z</time>
      </trkpt>
      <trkpt lat="46.814036" lon="15.798313">
        <ele>281.585833</ele>
        <time>2024-05-11T10:18:20.000Z</time>
      </trkpt>
      <trkpt lat="46.814383" lon="15.798284">
        <ele>281.586342</ele>
        <time>2024-05-11T10:18:24.000Z</time>
      </trkpt>
      <trkpt lat="46.814418" lon="15.798304">
        <ele>281.586408</ele>
        <time>2024-05-11T10:18:24.000Z</time>
      </trkpt>
      <trkpt lat="46.814521" lon="15.798324">
        <ele>281.586574</ele>
        <time>2024-05-11T10:18:25.000Z</time>
      </trkpt>
      <trkpt lat="46.815022" lon="15.798533">
        <ele>281.587359</ele>
        <time>2024-05-11T10:18:31.000Z</time>
      </trkpt>
      <trkpt lat="46.816046" lon="15.798975">
        <ele>281.436396</ele>
        <time>2024-05-11T10:18:43.000Z</time>
      </trkpt>
      <trkpt lat="46.816347" lon="15.79906">
        <ele>281.294324</ele>
        <time>2024-05-11T10:18:46.000Z</time>
      </trkpt>
      <trkpt lat="46.816562" lon="15.799144">
        <ele>281.192119</ele>
        <time>2024-05-11T10:18:48.000Z</time>
      </trkpt>
      <trkpt lat="46.816673" lon="15.799182">
        <ele>281.13896</ele>
        <time>2024-05-11T10:18:49.000Z</time>
      </trkpt>
      <trkpt lat="46.816851" lon="15.799227">
        <ele>281.051718</ele>
        <time>2024-05-11T10:18:51.000Z</time>
      </trkpt>
      <trkpt lat="46.817577" lon="15.799548">
        <ele>280.806719</ele>
        <time>2024-05-11T10:18:59.000Z</time>
      </trkpt>
      <trkpt lat="46.817791" lon="15.799582">
        <ele>280.921604</ele>
        <time>2024-05-11T10:19:01.000Z</time>
      </trkpt>
      <trkpt lat="46.817849" lon="15.799588">
        <ele>280.951529</ele>
        <time>2024-05-11T10:19:02.000Z</time>
      </trkpt>
      <trkpt lat="46.81874" lon="15.799853">
        <ele>281.425534</ele>
        <time>2024-05-11T10:19:12.000Z</time>
      </trkpt>
      <trkpt lat="46.819155" lon="15.800101">
        <ele>281.664338</ele>
        <time>2024-05-11T10:19:17.000Z</time>
      </trkpt>
      <trkpt lat="46.819282" lon="15.800178">
        <ele>281.750351</ele>
        <time>2024-05-11T10:19:19.000Z</time>
      </trkpt>
      <trkpt lat="46.819522" lon="15.800289">
        <ele>281.966987</ele>
        <time>2024-05-11T10:19:22.000Z</time>
      </trkpt>
      <trkpt lat="46.820106" lon="15.800298">
        <ele>282.443668</ele>
        <time>2024-05-11T10:19:28.000Z</time>
      </trkpt>
      <trkpt lat="46.820635" lon="15.800152">
        <ele>282.878968</ele>
        <time>2024-05-11T10:19:34.000Z</time>
      </trkpt>
      <trkpt lat="46.820865" lon="15.799996">
        <ele>283.080752</ele>
        <time>2024-05-11T10:19:37.000Z</time>
      </trkpt>
      <trkpt lat="46.821017" lon="15.799864">
        <ele>283.23243</ele>
        <time>2024-05-11T10:19:39.000Z</time>
      </trkpt>
      <trkpt lat="46.821572" lon="15.799626">
        <ele>283.72147</ele>
        <time>2024-05-11T10:19:45.000Z</time>
      </trkpt>
      <trkpt lat="46.822076" lon="15.799469">
        <ele>284.165524</ele>
        <time>2024-05-11T10:19:51.000Z</time>
      </trkpt>
      <trkpt lat="46.822529" lon="15.799191">
        <ele>284.57625</ele>
        <time>2024-05-11T10:19:56.000Z</time>
      </trkpt>
      <trkpt lat="46.823402" lon="15.798482">
        <ele>285.744833</ele>
        <time>2024-05-11T10:20:07.000Z</time>
      </trkpt>
      <trkpt lat="46.824895" lon="15.797358">
        <ele>287.585134</ele>
        <time>2024-05-11T10:20:26.000Z</time>
      </trkpt>
      <trkpt lat="46.825399" lon="15.796962">
        <ele>288.134896</ele>
        <time>2024-05-11T10:20:32.000Z</time>
      </trkpt>
      <trkpt lat="46.825403" lon="15.797028">
        <ele>288.186816</ele>
        <time>2024-05-11T10:20:33.000Z</time>
      </trkpt>
      <trkpt lat="46.825695" lon="15.796815">
        <ele>288.493983</ele>
        <time>2024-05-11T10:20:37.000Z</time>
      </trkpt>
      <trkpt lat="46.82573" lon="15.796789">
        <ele>288.526268</ele>
        <time>2024-05-11T10:20:37.000Z</time>
      </trkpt>
      <trkpt lat="46.825696" lon="15.796828">
        <ele>288.558562</ele>
        <time>2024-05-11T10:20:37.000Z</time>
      </trkpt>
      <trkpt lat="46.825407" lon="15.797037">
        <ele>288.896782</ele>
        <time>2024-05-11T10:20:41.000Z</time>
      </trkpt>
      <trkpt lat="46.825403" lon="15.796951">
        <ele>288.954705</ele>
        <time>2024-05-11T10:20:42.000Z</time>
      </trkpt>
      <trkpt lat="46.825426" lon="15.796925">
        <ele>288.989411</ele>
        <time>2024-05-11T10:20:42.000Z</time>
      </trkpt>
      <trkpt lat="46.825699" lon="15.796727">
        <ele>289.324855</ele>
        <time>2024-05-11T10:20:45.000Z</time>
      </trkpt>
      <trkpt lat="46.825917" lon="15.796579">
        <ele>289.577424</ele>
        <time>2024-05-11T10:20:48.000Z</time>
      </trkpt>
      <trkpt lat="46.826277" lon="15.796283">
        <ele>290.021445</ele>
        <time>2024-05-11T10:20:53.000Z</time>
      </trkpt>
      <trkpt lat="46.826617" lon="15.795984">
        <ele>290.458549</ele>
        <time>2024-05-11T10:20:57.000Z</time>
      </trkpt>
      <trkpt lat="46.826806" lon="15.795815">
        <ele>290.765505</ele>
        <time>2024-05-11T10:20:59.000Z</time>
      </trkpt>
      <trkpt lat="46.826891" lon="15.795742">
        <ele>290.917932</ele>
        <time>2024-05-11T10:21:00.000Z</time>
      </trkpt>
      <trkpt lat="46.82695" lon="15.795713">
        <ele>291.01841</ele>
        <time>2024-05-11T10:21:01.000Z</time>
      </trkpt>
      <trkpt lat="46.827186" lon="15.795466">
        <ele>291.499738</ele>
        <time>2024-05-11T10:21:04.000Z</time>
      </trkpt>
      <trkpt lat="46.827542" lon="15.794983">
        <ele>292.292836</ele>
        <time>2024-05-11T10:21:09.000Z</time>
      </trkpt>
      <trkpt lat="46.827703" lon="15.794801">
        <ele>292.609492</ele>
        <time>2024-05-11T10:21:11.000Z</time>
      </trkpt>
      <trkpt lat="46.827809" lon="15.794679">
        <ele>292.821568</ele>
        <time>2024-05-11T10:21:13.000Z</time>
      </trkpt>
      <trkpt lat="46.827881" lon="15.794607">
        <ele>292.985814</ele>
        <time>2024-05-11T10:21:14.000Z</time>
      </trkpt>
      <trkpt lat="46.828075" lon="15.794413">
        <ele>293.367391</ele>
        <time>2024-05-11T10:21:17.000Z</time>
      </trkpt>
      <trkpt lat="46.828158" lon="15.794353">
        <ele>293.467155</ele>
        <time>2024-05-11T10:21:18.000Z</time>
      </trkpt>
      <trkpt lat="46.828253" lon="15.794248">
        <ele>293.518945</ele>
        <time>2024-05-11T10:21:19.000Z</time>
      </trkpt>
      <trkpt lat="46.828448" lon="15.794051">
        <ele>293.631</ele>
        <time>2024-05-11T10:21:22.000Z</time>
      </trkpt>
      <trkpt lat="46.828795" lon="15.793709">
        <ele>293.818816</ele>
        <time>2024-05-11T10:21:27.000Z</time>
      </trkpt>
      <trkpt lat="46.828854" lon="15.793645">
        <ele>293.850292</ele>
        <time>2024-05-11T10:21:28.000Z</time>
      </trkpt>
      <trkpt lat="46.828933" lon="15.793559">
        <ele>293.895872</ele>
        <time>2024-05-11T10:21:29.000Z</time>
      </trkpt>
      <trkpt lat="46.829074" lon="15.793412">
        <ele>293.97327</ele>
        <time>2024-05-11T10:21:31.000Z</time>
      </trkpt>
      <trkpt lat="46.829114" lon="15.793347">
        <ele>294.007492</ele>
        <time>2024-05-11T10:21:32.000Z</time>
      </trkpt>
      <trkpt lat="46.829184" lon="15.793235">
        <ele>294.048037</ele>
        <time>2024-05-11T10:21:33.000Z</time>
      </trkpt>
      <trkpt lat="46.829262" lon="15.793126">
        <ele>294.098143</ele>
        <time>2024-05-11T10:21:34.000Z</time>
      </trkpt>
      <trkpt lat="46.829393" lon="15.792989">
        <ele>294.166403</ele>
        <time>2024-05-11T10:21:36.000Z</time>
      </trkpt>
      <trkpt lat="46.829407" lon="15.793001">
        <ele>294.178791</ele>
        <time>2024-05-11T10:21:36.000Z</time>
      </trkpt>
      <trkpt lat="46.829442" lon="15.792994">
        <ele>294.18959</ele>
        <time>2024-05-11T10:21:36.000Z</time>
      </trkpt>
      <trkpt lat="46.829646" lon="15.793306">
        <ele>294.135725</ele>
        <time>2024-05-11T10:21:39.000Z</time>
      </trkpt>
      <trkpt lat="46.829714" lon="15.79338">
        <ele>294.044081</ele>
        <time>2024-05-11T10:21:40.000Z</time>
      </trkpt>
      <trkpt lat="46.829748" lon="15.793457">
        <ele>293.968562</ele>
        <time>2024-05-11T10:21:41.000Z</time>
      </trkpt>
      <trkpt lat="46.829906" lon="15.793609">
        <ele>293.769456</ele>
        <time>2024-05-11T10:21:43.000Z</time>
      </trkpt>
      <trkpt lat="46.830015" lon="15.793722">
        <ele>293.61714</ele>
        <time>2024-05-11T10:21:44.000Z</time>
      </trkpt>
      <trkpt lat="46.830045" lon="15.793761">
        <ele>293.575903</ele>
        <time>2024-05-11T10:21:44.000Z</time>
      </trkpt>
      <trkpt lat="46.830235" lon="15.793945">
        <ele>293.310536</ele>
        <time>2024-05-11T10:21:47.000Z</time>
      </trkpt>
      <trkpt lat="46.830271" lon="15.793977">
        <ele>293.265405</ele>
        <time>2024-05-11T10:21:47.000Z</time>
      </trkpt>
      <trkpt lat="46.830361" lon="15.79407">
        <ele>293.147007</ele>
        <time>2024-05-11T10:21:48.000Z</time>
      </trkpt>
      <trkpt lat="46.830521" lon="15.794212">
        <ele>292.950826</ele>
        <time>2024-05-11T10:21:50.000Z</time>
      </trkpt>
      <trkpt lat="46.830669" lon="15.794357">
        <ele>292.749911</ele>
        <time>2024-05-11T10:21:52.000Z</time>
      </trkpt>
      <trkpt lat="46.830736" lon="15.794432">
        <ele>292.644389</ele>
        <time>2024-05-11T10:21:53.000Z</time>
      </trkpt>
      <trkpt lat="46.830834" lon="15.794519">
        <ele>292.52445</ele>
        <time>2024-05-11T10:21:54.000Z</time>
      </trkpt>
      <trkpt lat="46.831079" lon="15.794734">
        <ele>292.289797</ele>
        <time>2024-05-11T10:21:57.000Z</time>
      </trkpt>
      <trkpt lat="46.831218" lon="15.794876">
        <ele>292.319368</ele>
        <time>2024-05-11T10:21:59.000Z</time>
      </trkpt>
      <trkpt lat="46.831394" lon="15.795015">
        <ele>292.355797</ele>
        <time>2024-05-11T10:22:01.000Z</time>
      </trkpt>
      <trkpt lat="46.831786" lon="15.795313">
        <ele>292.433055</ele>
        <time>2024-05-11T10:22:06.000Z</time>
      </trkpt>
      <trkpt lat="46.832274" lon="15.79566">
        <ele>292.526971</ele>
        <time>2024-05-11T10:22:12.000Z</time>
      </trkpt>
      <trkpt lat="46.83236" lon="15.79572">
        <ele>292.543018</ele>
        <time>2024-05-11T10:22:13.000Z</time>
      </trkpt>
      <trkpt lat="46.832568" lon="15.795836">
        <ele>292.581551</ele>
        <time>2024-05-11T10:22:15.000Z</time>
      </trkpt>
      <trkpt lat="46.832632" lon="15.795863">
        <ele>292.592457</ele>
        <time>2024-05-11T10:22:16.000Z</time>
      </trkpt>
      <trkpt lat="46.832842" lon="15.795956">
        <ele>292.897291</ele>
        <time>2024-05-11T10:22:18.000Z</time>
      </trkpt>
      <trkpt lat="46.832881" lon="15.795979">
        <ele>292.952914</ele>
        <time>2024-05-11T10:22:18.000Z</time>
      </trkpt>
      <trkpt lat="46.833094" lon="15.796049">
        <ele>293.263846</ele>
        <time>2024-05-11T10:22:20.000Z</time>
      </trkpt>
      <trkpt lat="46.833167" lon="15.796065">
        <ele>293.367035</ele>
        <time>2024-05-11T10:22:21.000Z</time>
      </trkpt>
      <trkpt lat="46.833366" lon="15.796132">
        <ele>293.638225</ele>
        <time>2024-05-11T10:22:23.000Z</time>
      </trkpt>
      <trkpt lat="46.833477" lon="15.796169">
        <ele>293.788106</ele>
        <time>2024-05-11T10:22:24.000Z</time>
      </trkpt>
      <trkpt lat="46.833742" lon="15.796265">
        <ele>294.17606</ele>
        <time>2024-05-11T10:22:27.000Z</time>
      </trkpt>
      <trkpt lat="46.833949" lon="15.796324">
        <ele>294.474882</ele>
        <time>2024-05-11T10:22:29.000Z</time>
      </trkpt>
      <trkpt lat="46.834454" lon="15.796559">
        <ele>295.118312</ele>
        <time>2024-05-11T10:22:35.000Z</time>
      </trkpt>
      <trkpt lat="46.83484" lon="15.796974">
        <ele>295.366312</ele>
        <time>2024-05-11T10:22:40.000Z</time>
      </trkpt>
      <trkpt lat="46.834978" lon="15.797148">
        <ele>295.458145</ele>
        <time>2024-05-11T10:22:42.000Z</time>
      </trkpt>
      <trkpt lat="46.835163" lon="15.797364">
        <ele>295.581163</ele>
        <time>2024-05-11T10:22:45.000Z</time>
      </trkpt>
      <trkpt lat="46.835329" lon="15.79754">
        <ele>295.683647</ele>
        <time>2024-05-11T10:22:47.000Z</time>
      </trkpt>
      <trkpt lat="46.835602" lon="15.797844">
        <ele>295.856375</ele>
        <time>2024-05-11T10:22:51.000Z</time>
      </trkpt>
      <trkpt lat="46.83588" lon="15.798222">
        <ele>296.064666</ele>
        <time>2024-05-11T10:22:55.000Z</time>
      </trkpt>
      <trkpt lat="46.836249" lon="15.798555">
        <ele>296.319825</ele>
        <time>2024-05-11T10:23:00.000Z</time>
      </trkpt>
      <trkpt lat="46.836525" lon="15.798717">
        <ele>296.489399</ele>
        <time>2024-05-11T10:23:03.000Z</time>
      </trkpt>
      <trkpt lat="46.837052" lon="15.798923">
        <ele>296.812531</ele>
        <time>2024-05-11T10:23:09.000Z</time>
      </trkpt>
      <trkpt lat="46.837266" lon="15.799004">
        <ele>296.949508</ele>
        <time>2024-05-11T10:23:11.000Z</time>
      </trkpt>
      <trkpt lat="46.837504" lon="15.799057">
        <ele>297.074512</ele>
        <time>2024-05-11T10:23:14.000Z</time>
      </trkpt>
      <trkpt lat="46.838336" lon="15.798985">
        <ele>297.300785</ele>
        <time>2024-05-11T10:23:23.000Z</time>
      </trkpt>
      <trkpt lat="46.838767" lon="15.799069">
        <ele>297.416745</ele>
        <time>2024-05-11T10:23:28.000Z</time>
      </trkpt>
      <trkpt lat="46.83967" lon="15.799593">
        <ele>297.667749</ele>
        <time>2024-05-11T10:23:39.000Z</time>
      </trkpt>
      <trkpt lat="46.840227" lon="15.799643">
        <ele>297.79579</ele>
        <time>2024-05-11T10:23:45.000Z</time>
      </trkpt>
      <trkpt lat="46.840614" lon="15.799829">
        <ele>297.891779</ele>
        <time>2024-05-11T10:23:50.000Z</time>
      </trkpt>
      <trkpt lat="46.841108" lon="15.8002">
        <ele>298.148173</ele>
        <time>2024-05-11T10:23:56.000Z</time>
      </trkpt>
      <trkpt lat="46.841226" lon="15.800268">
        <ele>298.252396</ele>
        <time>2024-05-11T10:23:57.000Z</time>
      </trkpt>
      <trkpt lat="46.841332" lon="15.800206">
        <ele>298.335297</ele>
        <time>2024-05-11T10:23:58.000Z</time>
      </trkpt>
      <trkpt lat="46.841933" lon="15.799718">
        <ele>298.900746</ele>
        <time>2024-05-11T10:24:06.000Z</time>
      </trkpt>
      <trkpt lat="46.84201" lon="15.799615">
        <ele>298.986689</ele>
        <time>2024-05-11T10:24:07.000Z</time>
      </trkpt>
      <trkpt lat="46.842231" lon="15.799292">
        <ele>299.23535</ele>
        <time>2024-05-11T10:24:10.000Z</time>
      </trkpt>
      <trkpt lat="46.842301" lon="15.79919">
        <ele>299.318192</ele>
        <time>2024-05-11T10:24:11.000Z</time>
      </trkpt>
      <trkpt lat="46.842467" lon="15.798963">
        <ele>299.507373</ele>
        <time>2024-05-11T10:24:14.000Z</time>
      </trkpt>
      <trkpt lat="46.842487" lon="15.798917">
        <ele>299.537612</ele>
        <time>2024-05-11T10:24:14.000Z</time>
      </trkpt>
      <trkpt lat="46.842558" lon="15.798774">
        <ele>299.632963</ele>
        <time>2024-05-11T10:24:15.000Z</time>
      </trkpt>
      <trkpt lat="46.842772" lon="15.798011">
        <ele>300.099837</ele>
        <time>2024-05-11T10:24:21.000Z</time>
      </trkpt>
      <trkpt lat="46.842807" lon="15.797938">
        <ele>300.153811</ele>
        <time>2024-05-11T10:24:22.000Z</time>
      </trkpt>
      <trkpt lat="46.84284" lon="15.79786">
        <ele>300.207402</ele>
        <time>2024-05-11T10:24:23.000Z</time>
      </trkpt>
      <trkpt lat="46.842996" lon="15.797691">
        <ele>300.356405</ele>
        <time>2024-05-11T10:24:25.000Z</time>
      </trkpt>
      <trkpt lat="46.843109" lon="15.797609">
        <ele>300.462506</ele>
        <time>2024-05-11T10:24:26.000Z</time>
      </trkpt>
      <trkpt lat="46.843248" lon="15.797407">
        <ele>300.623753</ele>
        <time>2024-05-11T10:24:28.000Z</time>
      </trkpt>
      <trkpt lat="46.843981" lon="15.796065">
        <ele>301.762646</ele>
        <time>2024-05-11T10:24:41.000Z</time>
      </trkpt>
      <trkpt lat="46.844372" lon="15.795382">
        <ele>302.393488</ele>
        <time>2024-05-11T10:24:48.000Z</time>
      </trkpt>
      <trkpt lat="46.844386" lon="15.795339">
        <ele>302.436927</ele>
        <time>2024-05-11T10:24:48.000Z</time>
      </trkpt>
      <trkpt lat="46.844975" lon="15.794232">
        <ele>303.586857</ele>
        <time>2024-05-11T10:24:59.000Z</time>
      </trkpt>
      <trkpt lat="46.844994" lon="15.794138">
        <ele>303.676231</ele>
        <time>2024-05-11T10:25:00.000Z</time>
      </trkpt>
      <trkpt lat="46.845004" lon="15.794056">
        <ele>303.761381</ele>
        <time>2024-05-11T10:25:01.000Z</time>
      </trkpt>
      <trkpt lat="46.845009" lon="15.793814">
        <ele>303.980395</ele>
        <time>2024-05-11T10:25:03.000Z</time>
      </trkpt>
      <trkpt lat="46.845014" lon="15.793787">
        <ele>304.001923</ele>
        <time>2024-05-11T10:25:03.000Z</time>
      </trkpt>
      <trkpt lat="46.844978" lon="15.793387">
        <ele>304.359905</ele>
        <time>2024-05-11T10:25:06.000Z</time>
      </trkpt>
      <trkpt lat="46.845034" lon="15.792988">
        <ele>304.719557</ele>
        <time>2024-05-11T10:25:09.000Z</time>
      </trkpt>
      <trkpt lat="46.845185" lon="15.792774">
        <ele>304.988663</ele>
        <time>2024-05-11T10:25:11.000Z</time>
      </trkpt>
      <trkpt lat="46.845281" lon="15.792714">
        <ele>305.115871</ele>
        <time>2024-05-11T10:25:12.000Z</time>
      </trkpt>
      <trkpt lat="46.84542" lon="15.792721">
        <ele>305.232583</ele>
        <time>2024-05-11T10:25:14.000Z</time>
      </trkpt>
      <trkpt lat="46.846134" lon="15.792627">
        <ele>305.797353</ele>
        <time>2024-05-11T10:25:22.000Z</time>
      </trkpt>
      <trkpt lat="46.847521" lon="15.791872">
        <ele>306.829688</ele>
        <time>2024-05-11T10:25:38.000Z</time>
      </trkpt>
      <trkpt lat="46.849627" lon="15.7897">
        <ele>308.081721</ele>
        <time>2024-05-11T10:26:07.000Z</time>
      </trkpt>
      <trkpt lat="46.849754" lon="15.789565">
        <ele>308.155157</ele>
        <time>2024-05-11T10:26:09.000Z</time>
      </trkpt>
      <trkpt lat="46.85029" lon="15.789041">
        <ele>308.38716</ele>
        <time>2024-05-11T10:26:16.000Z</time>
      </trkpt>
      <trkpt lat="46.850603" lon="15.788763">
        <ele>308.489578</ele>
        <time>2024-05-11T10:26:20.000Z</time>
      </trkpt>
      <trkpt lat="46.850929" lon="15.788527">
        <ele>308.589061</ele>
        <time>2024-05-11T10:26:24.000Z</time>
      </trkpt>
      <trkpt lat="46.851049" lon="15.788463">
        <ele>308.624894</ele>
        <time>2024-05-11T10:26:25.000Z</time>
      </trkpt>
      <trkpt lat="46.851166" lon="15.788381">
        <ele>308.660591</ele>
        <time>2024-05-11T10:26:26.000Z</time>
      </trkpt>
      <trkpt lat="46.851278" lon="15.788293">
        <ele>308.698487</ele>
        <time>2024-05-11T10:26:27.000Z</time>
      </trkpt>
      <trkpt lat="46.851891" lon="15.787898">
        <ele>308.862939</ele>
        <time>2024-05-11T10:26:34.000Z</time>
      </trkpt>
      <trkpt lat="46.853952" lon="15.786567">
        <ele>309.369955</ele>
        <time>2024-05-11T10:26:59.000Z</time>
      </trkpt>
      <trkpt lat="46.85431" lon="15.786252">
        <ele>309.480349</ele>
        <time>2024-05-11T10:27:04.000Z</time>
      </trkpt>
      <trkpt lat="46.854716" lon="15.785744">
        <ele>309.625158</ele>
        <time>2024-05-11T10:27:10.000Z</time>
      </trkpt>
      <trkpt lat="46.855392" lon="15.784757">
        <ele>310.027038</ele>
        <time>2024-05-11T10:27:21.000Z</time>
      </trkpt>
      <trkpt lat="46.855639" lon="15.78451">
        <ele>310.165013</ele>
        <time>2024-05-11T10:27:24.000Z</time>
      </trkpt>
      <trkpt lat="46.855912" lon="15.784314">
        <ele>310.298906</ele>
        <time>2024-05-11T10:27:27.000Z</time>
      </trkpt>
      <trkpt lat="46.855957" lon="15.784283">
        <ele>310.317952</ele>
        <time>2024-05-11T10:27:28.000Z</time>
      </trkpt>
      <trkpt lat="46.856544" lon="15.784084">
        <ele>310.732055</ele>
        <time>2024-05-11T10:27:35.000Z</time>
      </trkpt>
      <trkpt lat="46.856927" lon="15.784023">
        <ele>311.095397</ele>
        <time>2024-05-11T10:27:39.000Z</time>
      </trkpt>
      <trkpt lat="46.857205" lon="15.783962">
        <ele>311.355693</ele>
        <time>2024-05-11T10:27:42.000Z</time>
      </trkpt>
      <trkpt lat="46.85736" lon="15.783912">
        <ele>311.500752</ele>
        <time>2024-05-11T10:27:44.000Z</time>
      </trkpt>
      <trkpt lat="46.857689" lon="15.783744">
        <ele>311.81778</ele>
        <time>2024-05-11T10:27:48.000Z</time>
      </trkpt>
      <trkpt lat="46.858068" lon="15.783424">
        <ele>312.250434</ele>
        <time>2024-05-11T10:27:53.000Z</time>
      </trkpt>
      <trkpt lat="46.860192" lon="15.78126">
        <ele>315.823775</ele>
        <time>2024-05-11T10:28:22.000Z</time>
      </trkpt>
      <trkpt lat="46.860869" lon="15.780767">
        <ele>317.270422</ele>
        <time>2024-05-11T10:28:30.000Z</time>
      </trkpt>
      <trkpt lat="46.861122" lon="15.780655">
        <ele>318.044151</ele>
        <time>2024-05-11T10:28:33.000Z</time>
      </trkpt>
      <trkpt lat="46.8612" lon="15.780618">
        <ele>318.443301</ele>
        <time>2024-05-11T10:28:34.000Z</time>
      </trkpt>
      <trkpt lat="46.861238" lon="15.780604">
        <ele>318.536283</ele>
        <time>2024-05-11T10:28:34.000Z</time>
      </trkpt>
      <trkpt lat="46.861776" lon="15.780459">
        <ele>320.794681</ele>
        <time>2024-05-11T10:28:40.000Z</time>
      </trkpt>
      <trkpt lat="46.862252" lon="15.780421">
        <ele>322.686769</ele>
        <time>2024-05-11T10:28:45.000Z</time>
      </trkpt>
      <trkpt lat="46.862794" lon="15.780396">
        <ele>324.800081</ele>
        <time>2024-05-11T10:28:51.000Z</time>
      </trkpt>
      <trkpt lat="46.862778" lon="15.780404">
        <ele>324.800089</ele>
        <time>2024-05-11T10:28:51.000Z</time>
      </trkpt>
      <trkpt lat="46.862804" lon="15.780404">
        <ele>324.838836</ele>
        <time>2024-05-11T10:28:51.000Z</time>
      </trkpt>
      <trkpt lat="46.864412" lon="15.780314">
        <ele>327.962975</ele>
        <time>2024-05-11T10:29:09.000Z</time>
      </trkpt>
      <trkpt lat="46.864806" lon="15.780231">
        <ele>327.945025</ele>
        <time>2024-05-11T10:29:13.000Z</time>
      </trkpt>
      <trkpt lat="46.865011" lon="15.780139">
        <ele>327.695134</ele>
        <time>2024-05-11T10:29:15.000Z</time>
      </trkpt>
      <trkpt lat="46.865214" lon="15.780066">
        <ele>327.479262</ele>
        <time>2024-05-11T10:29:17.000Z</time>
      </trkpt>
      <trkpt lat="46.865373" lon="15.779988">
        <ele>327.276556</ele>
        <time>2024-05-11T10:29:19.000Z</time>
      </trkpt>
      <trkpt lat="46.865491" lon="15.779972">
        <ele>327.156249</ele>
        <time>2024-05-11T10:29:20.000Z</time>
      </trkpt>
      <trkpt lat="46.865596" lon="15.779945">
        <ele>327.042598</ele>
        <time>2024-05-11T10:29:21.000Z</time>
      </trkpt>
      <trkpt lat="46.865673" lon="15.779986">
        <ele>326.952776</ele>
        <time>2024-05-11T10:29:22.000Z</time>
      </trkpt>
      <trkpt lat="46.865741" lon="15.780062">
        <ele>326.859305</ele>
        <time>2024-05-11T10:29:23.000Z</time>
      </trkpt>
      <trkpt lat="46.865823" lon="15.780283">
        <ele>326.6688</ele>
        <time>2024-05-11T10:29:25.000Z</time>
      </trkpt>
      <trkpt lat="46.86595" lon="15.780498">
        <ele>326.455237</ele>
        <time>2024-05-11T10:29:27.000Z</time>
      </trkpt>
      <trkpt lat="46.866009" lon="15.780571">
        <ele>326.371818</ele>
        <time>2024-05-11T10:29:28.000Z</time>
      </trkpt>
      <trkpt lat="46.866127" lon="15.780708">
        <ele>326.281585</ele>
        <time>2024-05-11T10:29:30.000Z</time>
      </trkpt>
      <trkpt lat="46.866295" lon="15.780875">
        <ele>326.704261</ele>
        <time>2024-05-11T10:29:32.000Z</time>
      </trkpt>
      <trkpt lat="46.866744" lon="15.781127">
        <ele>327.705766</ele>
        <time>2024-05-11T10:29:37.000Z</time>
      </trkpt>
      <trkpt lat="46.867279" lon="15.781248">
        <ele>328.811806</ele>
        <time>2024-05-11T10:29:43.000Z</time>
      </trkpt>
      <trkpt lat="46.868211" lon="15.781597">
        <ele>333.396217</ele>
        <time>2024-05-11T10:29:54.000Z</time>
      </trkpt>
      <trkpt lat="46.869498" lon="15.78192">
        <ele>344.570529</ele>
        <time>2024-05-11T10:30:09.000Z</time>
      </trkpt>
      <trkpt lat="46.869676" lon="15.781987">
        <ele>346.270237</ele>
        <time>2024-05-11T10:30:11.000Z</time>
      </trkpt>
      <trkpt lat="46.870107" lon="15.782225">
        <ele>350.555885</ele>
        <time>2024-05-11T10:30:16.000Z</time>
      </trkpt>
      <trkpt lat="46.87058" lon="15.782576">
        <ele>355.615646</ele>
        <time>2024-05-11T10:30:22.000Z</time>
      </trkpt>
      <trkpt lat="46.871207" lon="15.783215">
        <ele>362.273748</ele>
        <time>2024-05-11T10:30:31.000Z</time>
      </trkpt>
      <trkpt lat="46.871329" lon="15.783434">
        <ele>362.274749</ele>
        <time>2024-05-11T10:30:33.000Z</time>
      </trkpt>
      <trkpt lat="46.87152" lon="15.783939">
        <ele>362.276662</ele>
        <time>2024-05-11T10:30:37.000Z</time>
      </trkpt>
      <trkpt lat="46.87153" lon="15.784236">
        <ele>362.277652</ele>
        <time>2024-05-11T10:30:39.000Z</time>
      </trkpt>
      <trkpt lat="46.871479" lon="15.784561">
        <ele>362.278757</ele>
        <time>2024-05-11T10:30:42.000Z</time>
      </trkpt>
      <trkpt lat="46.871167" lon="15.785215">
        <ele>362.281403</ele>
        <time>2024-05-11T10:30:48.000Z</time>
      </trkpt>
      <trkpt lat="46.871153" lon="15.785479">
        <ele>362.247311</ele>
        <time>2024-05-11T10:30:50.000Z</time>
      </trkpt>
      <trkpt lat="46.871201" lon="15.785701">
        <ele>361.824014</ele>
        <time>2024-05-11T10:30:52.000Z</time>
      </trkpt>
      <trkpt lat="46.871264" lon="15.785945">
        <ele>361.3316</ele>
        <time>2024-05-11T10:30:54.000Z</time>
      </trkpt>
      <trkpt lat="46.87132" lon="15.786134">
        <ele>360.935259</ele>
        <time>2024-05-11T10:30:56.000Z</time>
      </trkpt>
      <trkpt lat="46.871382" lon="15.786261">
        <ele>360.652461</ele>
        <time>2024-05-11T10:30:57.000Z</time>
      </trkpt>
      <trkpt lat="46.871446" lon="15.78635">
        <ele>360.411754</ele>
        <time>2024-05-11T10:30:58.000Z</time>
      </trkpt>
      <trkpt lat="46.872309" lon="15.786961">
        <ele>357.724008</ele>
        <time>2024-05-11T10:31:09.000Z</time>
      </trkpt>
      <trkpt lat="46.872482" lon="15.787086">
        <ele>357.313154</ele>
        <time>2024-05-11T10:31:11.000Z</time>
      </trkpt>
      <trkpt lat="46.872609" lon="15.787158">
        <ele>357.440828</ele>
        <time>2024-05-11T10:31:13.000Z</time>
      </trkpt>
      <trkpt lat="46.87274" lon="15.787225">
        <ele>357.566204</ele>
        <time>2024-05-11T10:31:15.000Z</time>
      </trkpt>
      <trkpt lat="46.872901" lon="15.7873">
        <ele>357.722124</ele>
        <time>2024-05-11T10:31:17.000Z</time>
      </trkpt>
      <trkpt lat="46.872977" lon="15.78735">
        <ele>357.803984</ele>
        <time>2024-05-11T10:31:18.000Z</time>
      </trkpt>
      <trkpt lat="46.87306" lon="15.787405">
        <ele>357.888957</ele>
        <time>2024-05-11T10:31:19.000Z</time>
      </trkpt>
      <trkpt lat="46.873112" lon="15.787476">
        <ele>357.954005</ele>
        <time>2024-05-11T10:31:20.000Z</time>
      </trkpt>
      <trkpt lat="46.873299" lon="15.787725">
        <ele>358.188538</ele>
        <time>2024-05-11T10:31:23.000Z</time>
      </trkpt>
      <trkpt lat="46.873451" lon="15.787902">
        <ele>358.361358</ele>
        <time>2024-05-11T10:31:25.000Z</time>
      </trkpt>
      <trkpt lat="46.873602" lon="15.788072">
        <ele>358.532115</ele>
        <time>2024-05-11T10:31:27.000Z</time>
      </trkpt>
      <trkpt lat="46.873662" lon="15.788142">
        <ele>358.612695</ele>
        <time>2024-05-11T10:31:28.000Z</time>
      </trkpt>
      <trkpt lat="46.873693" lon="15.788173">
        <ele>358.651675</ele>
        <time>2024-05-11T10:31:28.000Z</time>
      </trkpt>
      <trkpt lat="46.873941" lon="15.788417">
        <ele>358.920434</ele>
        <time>2024-05-11T10:31:31.000Z</time>
      </trkpt>
      <trkpt lat="46.874166" lon="15.788679">
        <ele>358.679486</ele>
        <time>2024-05-11T10:31:34.000Z</time>
      </trkpt>
      <trkpt lat="46.874334" lon="15.788828">
        <ele>358.468037</ele>
        <time>2024-05-11T10:31:36.000Z</time>
      </trkpt>
      <trkpt lat="46.874508" lon="15.788969">
        <ele>358.275716</ele>
        <time>2024-05-11T10:31:38.000Z</time>
      </trkpt>
      <trkpt lat="46.875208" lon="15.789421">
        <ele>357.510538</ele>
        <time>2024-05-11T10:31:47.000Z</time>
      </trkpt>
      <trkpt lat="46.87544" lon="15.78977">
        <ele>357.16614</ele>
        <time>2024-05-11T10:31:51.000Z</time>
      </trkpt>
      <trkpt lat="46.875488" lon="15.789867">
        <ele>357.110342</ele>
        <time>2024-05-11T10:31:52.000Z</time>
      </trkpt>
      <trkpt lat="46.875642" lon="15.790162">
        <ele>356.944561</ele>
        <time>2024-05-11T10:31:55.000Z</time>
      </trkpt>
      <trkpt lat="46.875895" lon="15.790626">
        <ele>356.683016</ele>
        <time>2024-05-11T10:32:00.000Z</time>
      </trkpt>
      <trkpt lat="46.875987" lon="15.790931">
        <ele>356.53232</ele>
        <time>2024-05-11T10:32:03.000Z</time>
      </trkpt>
      <trkpt lat="46.876066" lon="15.791224">
        <ele>356.390556</ele>
        <time>2024-05-11T10:32:05.000Z</time>
      </trkpt>
      <trkpt lat="46.876077" lon="15.791302">
        <ele>356.352418</ele>
        <time>2024-05-11T10:32:06.000Z</time>
      </trkpt>
      <trkpt lat="46.876085" lon="15.791531">
        <ele>356.250231</ele>
        <time>2024-05-11T10:32:08.000Z</time>
      </trkpt>
      <trkpt lat="46.876092" lon="15.791717">
        <ele>356.16952</ele>
        <time>2024-05-11T10:32:09.000Z</time>
      </trkpt>
      <trkpt lat="46.876082" lon="15.79185">
        <ele>356.112892</ele>
        <time>2024-05-11T10:32:10.000Z</time>
      </trkpt>
      <trkpt lat="46.876108" lon="15.792211">
        <ele>355.941324</ele>
        <time>2024-05-11T10:32:13.000Z</time>
      </trkpt>
      <trkpt lat="46.876151" lon="15.792258">
        <ele>355.878519</ele>
        <time>2024-05-11T10:32:14.000Z</time>
      </trkpt>
      <trkpt lat="46.876199" lon="15.792295">
        <ele>355.829158</ele>
        <time>2024-05-11T10:32:15.000Z</time>
      </trkpt>
      <trkpt lat="46.876238" lon="15.792303">
        <ele>355.765424</ele>
        <time>2024-05-11T10:32:15.000Z</time>
      </trkpt>
      <trkpt lat="46.876577" lon="15.792164">
        <ele>355.375663</ele>
        <time>2024-05-11T10:32:19.000Z</time>
      </trkpt>
      <trkpt lat="46.876725" lon="15.792167">
        <ele>355.204023</ele>
        <time>2024-05-11T10:32:21.000Z</time>
      </trkpt>
      <trkpt lat="46.876953" lon="15.79237">
        <ele>354.896925</ele>
        <time>2024-05-11T10:32:24.000Z</time>
      </trkpt>
      <trkpt lat="46.877336" lon="15.793876">
        <ele>353.362516</ele>
        <time>2024-05-11T10:32:36.000Z</time>
      </trkpt>
      <trkpt lat="46.877497" lon="15.794267">
        <ele>352.610466</ele>
        <time>2024-05-11T10:32:39.000Z</time>
      </trkpt>
      <trkpt lat="46.877534" lon="15.794349">
        <ele>352.462912</ele>
        <time>2024-05-11T10:32:40.000Z</time>
      </trkpt>
      <trkpt lat="46.877579" lon="15.794455">
        <ele>352.240911</ele>
        <time>2024-05-11T10:32:41.000Z</time>
      </trkpt>
      <trkpt lat="46.877651" lon="15.794832">
        <ele>351.620726</ele>
        <time>2024-05-11T10:32:44.000Z</time>
      </trkpt>
      <trkpt lat="46.877654" lon="15.795228">
        <ele>350.976676</ele>
        <time>2024-05-11T10:32:47.000Z</time>
      </trkpt>
      <trkpt lat="46.87757" lon="15.795755">
        <ele>350.09919</ele>
        <time>2024-05-11T10:32:51.000Z</time>
      </trkpt>
      <trkpt lat="46.877539" lon="15.795858">
        <ele>349.906809</ele>
        <time>2024-05-11T10:32:52.000Z</time>
      </trkpt>
      <trkpt lat="46.877499" lon="15.795971">
        <ele>349.693171</ele>
        <time>2024-05-11T10:32:53.000Z</time>
      </trkpt>
      <trkpt lat="46.877489" lon="15.796095">
        <ele>349.592416</ele>
        <time>2024-05-11T10:32:54.000Z</time>
      </trkpt>
      <trkpt lat="46.87747" lon="15.796232">
        <ele>349.499242</ele>
        <time>2024-05-11T10:32:55.000Z</time>
      </trkpt>
      <trkpt lat="46.877307" lon="15.796781">
        <ele>349.138801</ele>
        <time>2024-05-11T10:33:00.000Z</time>
      </trkpt>
      <trkpt lat="46.877245" lon="15.796868">
        <ele>349.068197</ele>
        <time>2024-05-11T10:33:01.000Z</time>
      </trkpt>
      <trkpt lat="46.877216" lon="15.796956">
        <ele>349.016668</ele>
        <time>2024-05-11T10:33:02.000Z</time>
      </trkpt>
      <trkpt lat="46.87708" lon="15.797664">
        <ele>348.568688</ele>
        <time>2024-05-11T10:33:08.000Z</time>
      </trkpt>
      <trkpt lat="46.877065" lon="15.797764">
        <ele>348.509118</ele>
        <time>2024-05-11T10:33:09.000Z</time>
      </trkpt>
      <trkpt lat="46.876913" lon="15.798365">
        <ele>348.133074</ele>
        <time>2024-05-11T10:33:14.000Z</time>
      </trkpt>
      <trkpt lat="46.876757" lon="15.7989">
        <ele>348.483585</ele>
        <time>2024-05-11T10:33:18.000Z</time>
      </trkpt>
      <trkpt lat="46.876661" lon="15.799182">
        <ele>348.764231</ele>
        <time>2024-05-11T10:33:20.000Z</time>
      </trkpt>
      <trkpt lat="46.876547" lon="15.799489">
        <ele>349.076158</ele>
        <time>2024-05-11T10:33:23.000Z</time>
      </trkpt>
      <trkpt lat="46.876347" lon="15.79994">
        <ele>349.556679</ele>
        <time>2024-05-11T10:33:27.000Z</time>
      </trkpt>
      <trkpt lat="46.876132" lon="15.800534">
        <ele>350.161982</ele>
        <time>2024-05-11T10:33:32.000Z</time>
      </trkpt>
      <trkpt lat="46.876007" lon="15.800872">
        <ele>350.34621</ele>
        <time>2024-05-11T10:33:35.000Z</time>
      </trkpt>
      <trkpt lat="46.87561" lon="15.801544">
        <ele>349.874914</ele>
        <time>2024-05-11T10:33:42.000Z</time>
      </trkpt>
      <trkpt lat="46.875517" lon="15.801748">
        <ele>349.753148</ele>
        <time>2024-05-11T10:33:44.000Z</time>
      </trkpt>
      <trkpt lat="46.875508" lon="15.801752">
        <ele>349.744383</ele>
        <time>2024-05-11T10:33:44.000Z</time>
      </trkpt>
      <trkpt lat="46.87537" lon="15.803117">
        <ele>349.013194</ele>
        <time>2024-05-11T10:33:54.000Z</time>
      </trkpt>
      <trkpt lat="46.875061" lon="15.805336">
        <ele>341.099785</ele>
        <time>2024-05-11T10:34:11.000Z</time>
      </trkpt>
      <trkpt lat="46.875046" lon="15.806006">
        <ele>338.858923</ele>
        <time>2024-05-11T10:34:16.000Z</time>
      </trkpt>
      <trkpt lat="46.875072" lon="15.806143">
        <ele>338.390398</ele>
        <time>2024-05-11T10:34:17.000Z</time>
      </trkpt>
      <trkpt lat="46.875085" lon="15.806418">
        <ele>337.523239</ele>
        <time>2024-05-11T10:34:19.000Z</time>
      </trkpt>
      <trkpt lat="46.875104" lon="15.806837">
        <ele>336.240895</ele>
        <time>2024-05-11T10:34:22.000Z</time>
      </trkpt>
      <trkpt lat="46.875122" lon="15.807338">
        <ele>334.651629</ele>
        <time>2024-05-11T10:34:26.000Z</time>
      </trkpt>
      <trkpt lat="46.875162" lon="15.807833">
        <ele>333.078476</ele>
        <time>2024-05-11T10:34:30.000Z</time>
      </trkpt>
      <trkpt lat="46.875236" lon="15.808225">
        <ele>331.794705</ele>
        <time>2024-05-11T10:34:33.000Z</time>
      </trkpt>
      <trkpt lat="46.875311" lon="15.808375">
        <ele>331.556403</ele>
        <time>2024-05-11T10:34:34.000Z</time>
      </trkpt>
      <trkpt lat="46.875392" lon="15.808509">
        <ele>331.7299</ele>
        <time>2024-05-11T10:34:35.000Z</time>
      </trkpt>
      <trkpt lat="46.875533" lon="15.808937">
        <ele>332.162416</ele>
        <time>2024-05-11T10:34:39.000Z</time>
      </trkpt>
      <trkpt lat="46.875569" lon="15.80952">
        <ele>332.703761</ele>
        <time>2024-05-11T10:34:43.000Z</time>
      </trkpt>
      <trkpt lat="46.875676" lon="15.810085">
        <ele>333.245786</ele>
        <time>2024-05-11T10:34:47.000Z</time>
      </trkpt>
      <trkpt lat="46.875812" lon="15.810506">
        <ele>333.681709</ele>
        <time>2024-05-11T10:34:51.000Z</time>
      </trkpt>
      <trkpt lat="46.875713" lon="15.811614">
        <ele>334.523349</ele>
        <time>2024-05-11T10:34:59.000Z</time>
      </trkpt>
      <trkpt lat="46.875692" lon="15.81211">
        <ele>334.873106</ele>
        <time>2024-05-11T10:35:03.000Z</time>
      </trkpt>
      <trkpt lat="46.875683" lon="15.81244">
        <ele>335.096358</ele>
        <time>2024-05-11T10:35:06.000Z</time>
      </trkpt>
      <trkpt lat="46.875668" lon="15.813115">
        <ele>335.565616</ele>
        <time>2024-05-11T10:35:11.000Z</time>
      </trkpt>
      <trkpt lat="46.875664" lon="15.813336">
        <ele>335.724955</ele>
        <time>2024-05-11T10:35:13.000Z</time>
      </trkpt>
      <trkpt lat="46.875655" lon="15.813399">
        <ele>335.646129</ele>
        <time>2024-05-11T10:35:13.000Z</time>
      </trkpt>
      <trkpt lat="46.875574" lon="15.813779">
        <ele>333.711833</ele>
        <time>2024-05-11T10:35:16.000Z</time>
      </trkpt>
      <trkpt lat="46.875409" lon="15.81425">
        <ele>331.029338</ele>
        <time>2024-05-11T10:35:20.000Z</time>
      </trkpt>
      <trkpt lat="46.875372" lon="15.814615">
        <ele>329.233034</ele>
        <time>2024-05-11T10:35:23.000Z</time>
      </trkpt>
      <trkpt lat="46.875255" lon="15.816548">
        <ele>317.096647</ele>
        <time>2024-05-11T10:35:38.000Z</time>
      </trkpt>
      <trkpt lat="46.875231" lon="15.817219">
        <ele>311.131125</ele>
        <time>2024-05-11T10:35:43.000Z</time>
      </trkpt>
      <trkpt lat="46.875211" lon="15.81742">
        <ele>309.327062</ele>
        <time>2024-05-11T10:35:45.000Z</time>
      </trkpt>
      <trkpt lat="46.875176" lon="15.818153">
        <ele>302.753909</ele>
        <time>2024-05-11T10:35:51.000Z</time>
      </trkpt>
      <trkpt lat="46.875155" lon="15.818452">
        <ele>300.088127</ele>
        <time>2024-05-11T10:35:53.000Z</time>
      </trkpt>
      <trkpt lat="46.875116" lon="15.818505">
        <ele>299.39722</ele>
        <time>2024-05-11T10:35:54.000Z</time>
      </trkpt>
      <trkpt lat="46.874881" lon="15.820116">
        <ele>289.038879</ele>
        <time>2024-05-11T10:36:07.000Z</time>
      </trkpt>
      <trkpt lat="46.874784" lon="15.820543">
        <ele>286.172047</ele>
        <time>2024-05-11T10:36:10.000Z</time>
      </trkpt>
      <trkpt lat="46.87478" lon="15.820547">
        <ele>286.172051</ele>
        <time>2024-05-11T10:36:10.000Z</time>
      </trkpt>
      <trkpt lat="46.874695" lon="15.820894">
        <ele>283.832907</ele>
        <time>2024-05-11T10:36:13.000Z</time>
      </trkpt>
      <trkpt lat="46.874464" lon="15.821376">
        <ele>282.115105</ele>
        <time>2024-05-11T10:36:17.000Z</time>
      </trkpt>
      <trkpt lat="46.874351" lon="15.821474">
        <ele>281.851734</ele>
        <time>2024-05-11T10:36:18.000Z</time>
      </trkpt>
      <trkpt lat="46.874334" lon="15.821477">
        <ele>281.795165</ele>
        <time>2024-05-11T10:36:18.000Z</time>
      </trkpt>
      <trkpt lat="46.873568" lon="15.821969">
        <ele>280.122405</ele>
        <time>2024-05-11T10:36:27.000Z</time>
      </trkpt>
      <trkpt lat="46.873371" lon="15.822103">
        <ele>279.681663</ele>
        <time>2024-05-11T10:36:29.000Z</time>
      </trkpt>
      <trkpt lat="46.873361" lon="15.822103">
        <ele>279.62869</ele>
        <time>2024-05-11T10:36:29.000Z</time>
      </trkpt>
      <trkpt lat="46.873215" lon="15.82221">
        <ele>279.322754</ele>
        <time>2024-05-11T10:36:31.000Z</time>
      </trkpt>
      <trkpt lat="46.872955" lon="15.822471">
        <ele>278.920798</ele>
        <time>2024-05-11T10:36:35.000Z</time>
      </trkpt>
      <trkpt lat="46.872898" lon="15.82252">
        <ele>278.879984</ele>
        <time>2024-05-11T10:36:36.000Z</time>
      </trkpt>
      <trkpt lat="46.872534" lon="15.823022">
        <ele>278.586193</ele>
        <time>2024-05-11T10:36:42.000Z</time>
      </trkpt>
      <trkpt lat="46.87217" lon="15.823626">
        <ele>278.275294</ele>
        <time>2024-05-11T10:36:48.000Z</time>
      </trkpt>
      <trkpt lat="46.871889" lon="15.823996">
        <ele>278.052112</ele>
        <time>2024-05-11T10:36:52.000Z</time>
      </trkpt>
      <trkpt lat="46.871239" lon="15.824655">
        <ele>277.258375</ele>
        <time>2024-05-11T10:37:01.000Z</time>
      </trkpt>
      <trkpt lat="46.870579" lon="15.825172">
        <ele>276.425118</ele>
        <time>2024-05-11T10:37:09.000Z</time>
      </trkpt>
      <trkpt lat="46.870437" lon="15.825185">
        <ele>276.252741</ele>
        <time>2024-05-11T10:37:11.000Z</time>
      </trkpt>
      <trkpt lat="46.870319" lon="15.825111">
        <ele>276.119233</ele>
        <time>2024-05-11T10:37:12.000Z</time>
      </trkpt>
      <trkpt lat="46.870294" lon="15.82521">
        <ele>276.035366</ele>
        <time>2024-05-11T10:37:13.000Z</time>
      </trkpt>
      <trkpt lat="46.870171" lon="15.825099">
        <ele>275.926604</ele>
        <time>2024-05-11T10:37:15.000Z</time>
      </trkpt>
      <trkpt lat="46.870082" lon="15.825038">
        <ele>275.848424</ele>
        <time>2024-05-11T10:37:16.000Z</time>
      </trkpt>
      <trkpt lat="46.870031" lon="15.825008">
        <ele>275.817234</ele>
        <time>2024-05-11T10:37:17.000Z</time>
      </trkpt>
      <trkpt lat="46.869769" lon="15.824889">
        <ele>275.635063</ele>
        <time>2024-05-11T10:37:20.000Z</time>
      </trkpt>
      <trkpt lat="46.86973" lon="15.824869">
        <ele>275.607797</ele>
        <time>2024-05-11T10:37:20.000Z</time>
      </trkpt>
      <trkpt lat="46.869624" lon="15.824833">
        <ele>275.534489</ele>
        <time>2024-05-11T10:37:21.000Z</time>
      </trkpt>
      <trkpt lat="46.869492" lon="15.824771">
        <ele>275.442455</ele>
        <time>2024-05-11T10:37:23.000Z</time>
      </trkpt>
      <trkpt lat="46.869293" lon="15.82471">
        <ele>275.295266</ele>
        <time>2024-05-11T10:37:25.000Z</time>
      </trkpt>
      <trkpt lat="46.86927" lon="15.82469">
        <ele>275.284868</ele>
        <time>2024-05-11T10:37:25.000Z</time>
      </trkpt>
      <trkpt lat="46.869211" lon="15.824683">
        <ele>275.246568</ele>
        <time>2024-05-11T10:37:26.000Z</time>
      </trkpt>
      <trkpt lat="46.868766" lon="15.824517">
        <ele>274.937397</ele>
        <time>2024-05-11T10:37:31.000Z</time>
      </trkpt>
      <trkpt lat="46.868314" lon="15.824341">
        <ele>274.648038</ele>
        <time>2024-05-11T10:37:36.000Z</time>
      </trkpt>
      <trkpt lat="46.867646" lon="15.824199">
        <ele>274.305348</ele>
        <time>2024-05-11T10:37:44.000Z</time>
      </trkpt>
      <trkpt lat="46.867185" lon="15.824273">
        <ele>274.070452</ele>
        <time>2024-05-11T10:37:49.000Z</time>
      </trkpt>
      <trkpt lat="46.866886" lon="15.824379">
        <ele>273.905445</ele>
        <time>2024-05-11T10:37:52.000Z</time>
      </trkpt>
      <trkpt lat="46.866651" lon="15.824444">
        <ele>273.745292</ele>
        <time>2024-05-11T10:37:55.000Z</time>
      </trkpt>
      <trkpt lat="46.864957" lon="15.824465">
        <ele>272.332376</ele>
        <time>2024-05-11T10:38:14.000Z</time>
      </trkpt>
      <trkpt lat="46.864291" lon="15.824414">
        <ele>271.889623</ele>
        <time>2024-05-11T10:38:21.000Z</time>
      </trkpt>
      <trkpt lat="46.863991" lon="15.824381">
        <ele>271.690614</ele>
        <time>2024-05-11T10:38:24.000Z</time>
      </trkpt>
      <trkpt lat="46.8638" lon="15.824357">
        <ele>271.565266</ele>
        <time>2024-05-11T10:38:26.000Z</time>
      </trkpt>
      <trkpt lat="46.863604" lon="15.824315">
        <ele>271.435037</ele>
        <time>2024-05-11T10:38:28.000Z</time>
      </trkpt>
      <trkpt lat="46.863439" lon="15.824261">
        <ele>271.320581</ele>
        <time>2024-05-11T10:38:30.000Z</time>
      </trkpt>
      <trkpt lat="46.862692" lon="15.823966">
        <ele>271.09611</ele>
        <time>2024-05-11T10:38:39.000Z</time>
      </trkpt>
      <trkpt lat="46.862313" lon="15.823815">
        <ele>271.063329</ele>
        <time>2024-05-11T10:38:43.000Z</time>
      </trkpt>
      <trkpt lat="46.861498" lon="15.823662">
        <ele>270.993225</ele>
        <time>2024-05-11T10:38:52.000Z</time>
      </trkpt>
      <trkpt lat="46.861239" lon="15.823637">
        <ele>271.016152</ele>
        <time>2024-05-11T10:38:55.000Z</time>
      </trkpt>
      <trkpt lat="46.861042" lon="15.823588">
        <ele>271.04649</ele>
        <time>2024-05-11T10:38:57.000Z</time>
      </trkpt>
      <trkpt lat="46.860953" lon="15.823565">
        <ele>271.060141</ele>
        <time>2024-05-11T10:38:58.000Z</time>
      </trkpt>
      <trkpt lat="46.860849" lon="15.823505">
        <ele>271.076519</ele>
        <time>2024-05-11T10:38:59.000Z</time>
      </trkpt>
      <trkpt lat="46.860601" lon="15.823343">
        <ele>271.121629</ele>
        <time>2024-05-11T10:39:02.000Z</time>
      </trkpt>
      <trkpt lat="46.860479" lon="15.823273">
        <ele>271.141605</ele>
        <time>2024-05-11T10:39:03.000Z</time>
      </trkpt>
      <trkpt lat="46.860346" lon="15.823188">
        <ele>271.162753</ele>
        <time>2024-05-11T10:39:05.000Z</time>
      </trkpt>
      <trkpt lat="46.860111" lon="15.823063">
        <ele>271.203501</ele>
        <time>2024-05-11T10:39:08.000Z</time>
      </trkpt>
      <trkpt lat="46.859981" lon="15.823011">
        <ele>271.22419</ele>
        <time>2024-05-11T10:39:09.000Z</time>
      </trkpt>
      <trkpt lat="46.859812" lon="15.822939">
        <ele>271.249548</ele>
        <time>2024-05-11T10:39:11.000Z</time>
      </trkpt>
      <trkpt lat="46.859602" lon="15.822868">
        <ele>271.302903</ele>
        <time>2024-05-11T10:39:13.000Z</time>
      </trkpt>
      <trkpt lat="46.858971" lon="15.822751">
        <ele>271.535037</ele>
        <time>2024-05-11T10:39:20.000Z</time>
      </trkpt>
      <trkpt lat="46.85718" lon="15.822705">
        <ele>271.875917</ele>
        <time>2024-05-11T10:39:40.000Z</time>
      </trkpt>
      <trkpt lat="46.856943" lon="15.822669">
        <ele>271.866267</ele>
        <time>2024-05-11T10:39:43.000Z</time>
      </trkpt>
      <trkpt lat="46.856652" lon="15.822599">
        <ele>271.853343</ele>
        <time>2024-05-11T10:39:46.000Z</time>
      </trkpt>
      <trkpt lat="46.85581" lon="15.822448">
        <ele>271.701035</ele>
        <time>2024-05-11T10:39:55.000Z</time>
      </trkpt>
      <trkpt lat="46.855635" lon="15.82243">
        <ele>271.629343</ele>
        <time>2024-05-11T10:39:57.000Z</time>
      </trkpt>
      <trkpt lat="46.855357" lon="15.822453">
        <ele>271.514918</ele>
        <time>2024-05-11T10:40:00.000Z</time>
      </trkpt>
      <trkpt lat="46.855048" lon="15.822508">
        <ele>271.390469</ele>
        <time>2024-05-11T10:40:03.000Z</time>
      </trkpt>
      <trkpt lat="46.85458" lon="15.822577">
        <ele>271.203618</ele>
        <time>2024-05-11T10:40:08.000Z</time>
      </trkpt>
      <trkpt lat="46.854344" lon="15.822596">
        <ele>271.107097</ele>
        <time>2024-05-11T10:40:11.000Z</time>
      </trkpt>
      <trkpt lat="46.854164" lon="15.822654">
        <ele>271.062123</ele>
        <time>2024-05-11T10:40:13.000Z</time>
      </trkpt>
      <trkpt lat="46.854037" lon="15.822675">
        <ele>271.034622</ele>
        <time>2024-05-11T10:40:14.000Z</time>
      </trkpt>
      <trkpt lat="46.853557" lon="15.822964">
        <ele>270.915396</ele>
        <time>2024-05-11T10:40:20.000Z</time>
      </trkpt>
      <trkpt lat="46.852857" lon="15.823508">
        <ele>270.735926</ele>
        <time>2024-05-11T10:40:29.000Z</time>
      </trkpt>
      <trkpt lat="46.852467" lon="15.823725">
        <ele>270.539518</ele>
        <time>2024-05-11T10:40:34.000Z</time>
      </trkpt>
      <trkpt lat="46.851046" lon="15.823706">
        <ele>269.571696</ele>
        <time>2024-05-11T10:40:50.000Z</time>
      </trkpt>
      <trkpt lat="46.850616" lon="15.823567">
        <ele>269.605524</ele>
        <time>2024-05-11T10:40:55.000Z</time>
      </trkpt>
      <trkpt lat="46.850442" lon="15.823467">
        <ele>269.680379</ele>
        <time>2024-05-11T10:40:57.000Z</time>
      </trkpt>
      <trkpt lat="46.85025" lon="15.823236">
        <ele>269.782364</ele>
        <time>2024-05-11T10:41:00.000Z</time>
      </trkpt>
      <trkpt lat="46.849993" lon="15.822813">
        <ele>269.942459</ele>
        <time>2024-05-11T10:41:04.000Z</time>
      </trkpt>
      <trkpt lat="46.849663" lon="15.821852">
        <ele>270.249014</ele>
        <time>2024-05-11T10:41:12.000Z</time>
      </trkpt>
      <trkpt lat="46.849632" lon="15.821788">
        <ele>270.2833</ele>
        <time>2024-05-11T10:41:13.000Z</time>
      </trkpt>
      <trkpt lat="46.849544" lon="15.821643">
        <ele>270.353846</ele>
        <time>2024-05-11T10:41:14.000Z</time>
      </trkpt>
      <trkpt lat="46.849177" lon="15.821375">
        <ele>270.584479</ele>
        <time>2024-05-11T10:41:19.000Z</time>
      </trkpt>
      <trkpt lat="46.849055" lon="15.821329">
        <ele>270.646204</ele>
        <time>2024-05-11T10:41:20.000Z</time>
      </trkpt>
      <trkpt lat="46.848977" lon="15.821312">
        <ele>270.693154</ele>
        <time>2024-05-11T10:41:21.000Z</time>
      </trkpt>
      <trkpt lat="46.848875" lon="15.821332">
        <ele>270.755823</ele>
        <time>2024-05-11T10:41:22.000Z</time>
      </trkpt>
      <trkpt lat="46.848736" lon="15.821347">
        <ele>270.831858</ele>
        <time>2024-05-11T10:41:24.000Z</time>
      </trkpt>
      <trkpt lat="46.848596" lon="15.821407">
        <ele>270.909893</ele>
        <time>2024-05-11T10:41:26.000Z</time>
      </trkpt>
      <trkpt lat="46.848349" lon="15.821587">
        <ele>271.060253</ele>
        <time>2024-05-11T10:41:29.000Z</time>
      </trkpt>
      <trkpt lat="46.848113" lon="15.821823">
        <ele>271.209988</ele>
        <time>2024-05-11T10:41:32.000Z</time>
      </trkpt>
      <trkpt lat="46.848089" lon="15.821834">
        <ele>271.198822</ele>
        <time>2024-05-11T10:41:32.000Z</time>
      </trkpt>
      <trkpt lat="46.847946" lon="15.821976">
        <ele>271.097427</ele>
        <time>2024-05-11T10:41:34.000Z</time>
      </trkpt>
      <trkpt lat="46.847781" lon="15.822087">
        <ele>270.990776</ele>
        <time>2024-05-11T10:41:36.000Z</time>
      </trkpt>
      <trkpt lat="46.847682" lon="15.822151">
        <ele>270.924988</ele>
        <time>2024-05-11T10:41:37.000Z</time>
      </trkpt>
      <trkpt lat="46.847584" lon="15.822216">
        <ele>270.862598</ele>
        <time>2024-05-11T10:41:38.000Z</time>
      </trkpt>
      <trkpt lat="46.847462" lon="15.822272">
        <ele>270.781281</ele>
        <time>2024-05-11T10:41:39.000Z</time>
      </trkpt>
      <trkpt lat="46.847178" lon="15.822352">
        <ele>270.610538</ele>
        <time>2024-05-11T10:41:42.000Z</time>
      </trkpt>
      <trkpt lat="46.846977" lon="15.822382">
        <ele>270.481876</ele>
        <time>2024-05-11T10:41:44.000Z</time>
      </trkpt>
      <trkpt lat="46.846798" lon="15.822423">
        <ele>270.375286</ele>
        <time>2024-05-11T10:41:46.000Z</time>
      </trkpt>
      <trkpt lat="46.846611" lon="15.82246">
        <ele>270.259671</ele>
        <time>2024-05-11T10:41:48.000Z</time>
      </trkpt>
      <trkpt lat="46.846355" lon="15.822527">
        <ele>270.128014</ele>
        <time>2024-05-11T10:41:51.000Z</time>
      </trkpt>
      <trkpt lat="46.845976" lon="15.822566">
        <ele>270.025034</ele>
        <time>2024-05-11T10:41:55.000Z</time>
      </trkpt>
      <trkpt lat="46.845803" lon="15.822529">
        <ele>269.981151</ele>
        <time>2024-05-11T10:41:57.000Z</time>
      </trkpt>
      <trkpt lat="46.845649" lon="15.822484">
        <ele>269.937822</ele>
        <time>2024-05-11T10:41:59.000Z</time>
      </trkpt>
      <trkpt lat="46.845498" lon="15.82242">
        <ele>269.894223</ele>
        <time>2024-05-11T10:42:01.000Z</time>
      </trkpt>
      <trkpt lat="46.845289" lon="15.822308">
        <ele>269.837279</ele>
        <time>2024-05-11T10:42:03.000Z</time>
      </trkpt>
      <trkpt lat="46.845208" lon="15.822232">
        <ele>269.811562</ele>
        <time>2024-05-11T10:42:04.000Z</time>
      </trkpt>
      <trkpt lat="46.845047" lon="15.822103">
        <ele>269.764938</ele>
        <time>2024-05-11T10:42:06.000Z</time>
      </trkpt>
      <trkpt lat="46.844664" lon="15.821776">
        <ele>269.599746</ele>
        <time>2024-05-11T10:42:11.000Z</time>
      </trkpt>
      <trkpt lat="46.844558" lon="15.821708">
        <ele>269.505718</ele>
        <time>2024-05-11T10:42:12.000Z</time>
      </trkpt>
      <trkpt lat="46.844485" lon="15.821665">
        <ele>269.440777</ele>
        <time>2024-05-11T10:42:13.000Z</time>
      </trkpt>
      <trkpt lat="46.844376" lon="15.82167">
        <ele>269.359109</ele>
        <time>2024-05-11T10:42:14.000Z</time>
      </trkpt>
      <trkpt lat="46.844257" lon="15.821715">
        <ele>269.252898</ele>
        <time>2024-05-11T10:42:15.000Z</time>
      </trkpt>
      <trkpt lat="46.84415" lon="15.821781">
        <ele>269.155886</ele>
        <time>2024-05-11T10:42:16.000Z</time>
      </trkpt>
      <trkpt lat="46.844061" lon="15.821919">
        <ele>269.04145</ele>
        <time>2024-05-11T10:42:17.000Z</time>
      </trkpt>
      <trkpt lat="46.843974" lon="15.822099">
        <ele>268.914441</ele>
        <time>2024-05-11T10:42:19.000Z</time>
      </trkpt>
      <trkpt lat="46.843907" lon="15.822185">
        <ele>268.845437</ele>
        <time>2024-05-11T10:42:20.000Z</time>
      </trkpt>
      <trkpt lat="46.843887" lon="15.822256">
        <ele>268.796436</ele>
        <time>2024-05-11T10:42:21.000Z</time>
      </trkpt>
      <trkpt lat="46.843817" lon="15.822359">
        <ele>268.713685</ele>
        <time>2024-05-11T10:42:22.000Z</time>
      </trkpt>
      <trkpt lat="46.843664" lon="15.822591">
        <ele>268.531821</ele>
        <time>2024-05-11T10:42:24.000Z</time>
      </trkpt>
      <trkpt lat="46.843398" lon="15.822923">
        <ele>268.24627</ele>
        <time>2024-05-11T10:42:28.000Z</time>
      </trkpt>
      <trkpt lat="46.843381" lon="15.822963">
        <ele>268.214292</ele>
        <time>2024-05-11T10:42:28.000Z</time>
      </trkpt>
      <trkpt lat="46.843311" lon="15.823026">
        <ele>268.146266</ele>
        <time>2024-05-11T10:42:29.000Z</time>
      </trkpt>
      <trkpt lat="46.843257" lon="15.823116">
        <ele>268.033303</ele>
        <time>2024-05-11T10:42:30.000Z</time>
      </trkpt>
      <trkpt lat="46.843208" lon="15.823183">
        <ele>267.956351</ele>
        <time>2024-05-11T10:42:31.000Z</time>
      </trkpt>
      <trkpt lat="46.84308" lon="15.823332">
        <ele>267.740751</ele>
        <time>2024-05-11T10:42:33.000Z</time>
      </trkpt>
      <trkpt lat="46.843015" lon="15.8234">
        <ele>267.635335</ele>
        <time>2024-05-11T10:42:34.000Z</time>
      </trkpt>
      <trkpt lat="46.842923" lon="15.823465">
        <ele>267.516851</ele>
        <time>2024-05-11T10:42:35.000Z</time>
      </trkpt>
      <trkpt lat="46.842897" lon="15.823482">
        <ele>267.467938</ele>
        <time>2024-05-11T10:42:35.000Z</time>
      </trkpt>
      <trkpt lat="46.842693" lon="15.823605">
        <ele>267.173704</ele>
        <time>2024-05-11T10:42:37.000Z</time>
      </trkpt>
      <trkpt lat="46.842626" lon="15.823638">
        <ele>267.099918</ele>
        <time>2024-05-11T10:42:38.000Z</time>
      </trkpt>
      <trkpt lat="46.842306" lon="15.823825">
        <ele>266.646863</ele>
        <time>2024-05-11T10:42:42.000Z</time>
      </trkpt>
      <trkpt lat="46.842046" lon="15.824141">
        <ele>266.214115</ele>
        <time>2024-05-11T10:42:46.000Z</time>
      </trkpt>
      <trkpt lat="46.842006" lon="15.824213">
        <ele>266.133821</ele>
        <time>2024-05-11T10:42:47.000Z</time>
      </trkpt>
      <trkpt lat="46.841941" lon="15.824374">
        <ele>265.9754</ele>
        <time>2024-05-11T10:42:48.000Z</time>
      </trkpt>
      <trkpt lat="46.841888" lon="15.824483">
        <ele>265.850597</ele>
        <time>2024-05-11T10:42:49.000Z</time>
      </trkpt>
      <trkpt lat="46.841831" lon="15.824588">
        <ele>265.749252</ele>
        <time>2024-05-11T10:42:50.000Z</time>
      </trkpt>
      <trkpt lat="46.841758" lon="15.824655">
        <ele>265.674939</ele>
        <time>2024-05-11T10:42:51.000Z</time>
      </trkpt>
      <trkpt lat="46.841686" lon="15.824721">
        <ele>265.600725</ele>
        <time>2024-05-11T10:42:52.000Z</time>
      </trkpt>
      <trkpt lat="46.841364" lon="15.82476">
        <ele>265.298101</ele>
        <time>2024-05-11T10:42:56.000Z</time>
      </trkpt>
      <trkpt lat="46.841162" lon="15.824698">
        <ele>265.108942</ele>
        <time>2024-05-11T10:42:58.000Z</time>
      </trkpt>
      <trkpt lat="46.841044" lon="15.82467">
        <ele>265.002639</ele>
        <time>2024-05-11T10:42:59.000Z</time>
      </trkpt>
      <trkpt lat="46.840962" lon="15.824624">
        <ele>264.914945</ele>
        <time>2024-05-11T10:43:00.000Z</time>
      </trkpt>
      <trkpt lat="46.840666" lon="15.824492">
        <ele>264.630954</ele>
        <time>2024-05-11T10:43:03.000Z</time>
      </trkpt>
      <trkpt lat="46.839933" lon="15.824159">
        <ele>263.966032</ele>
        <time>2024-05-11T10:43:12.000Z</time>
      </trkpt>
      <trkpt lat="46.839679" lon="15.82407">
        <ele>263.777317</ele>
        <time>2024-05-11T10:43:15.000Z</time>
      </trkpt>
      <trkpt lat="46.839295" lon="15.823951">
        <ele>263.497821</ele>
        <time>2024-05-11T10:43:19.000Z</time>
      </trkpt>
      <trkpt lat="46.837765" lon="15.823397">
        <ele>262.66852</ele>
        <time>2024-05-11T10:43:37.000Z</time>
      </trkpt>
      <trkpt lat="46.837546" lon="15.823283">
        <ele>262.603077</ele>
        <time>2024-05-11T10:43:40.000Z</time>
      </trkpt>
      <trkpt lat="46.837257" lon="15.823116">
        <ele>262.512717</ele>
        <time>2024-05-11T10:43:43.000Z</time>
      </trkpt>
      <trkpt lat="46.837048" lon="15.822997">
        <ele>262.446406</ele>
        <time>2024-05-11T10:43:45.000Z</time>
      </trkpt>
      <trkpt lat="46.836917" lon="15.822943">
        <ele>262.407348</ele>
        <time>2024-05-11T10:43:47.000Z</time>
      </trkpt>
      <trkpt lat="46.836789" lon="15.822928">
        <ele>262.369183</ele>
        <time>2024-05-11T10:43:48.000Z</time>
      </trkpt>
      <trkpt lat="46.836148" lon="15.822758">
        <ele>262.771574</ele>
        <time>2024-05-11T10:43:55.000Z</time>
      </trkpt>
      <trkpt lat="46.83602" lon="15.822701">
        <ele>262.870768</ele>
        <time>2024-05-11T10:43:56.000Z</time>
      </trkpt>
      <trkpt lat="46.835961" lon="15.822666">
        <ele>262.912229</ele>
        <time>2024-05-11T10:43:57.000Z</time>
      </trkpt>
      <trkpt lat="46.835613" lon="15.822485">
        <ele>263.188814</ele>
        <time>2024-05-11T10:44:01.000Z</time>
      </trkpt>
      <trkpt lat="46.835269" lon="15.822452">
        <ele>263.45033</ele>
        <time>2024-05-11T10:44:05.000Z</time>
      </trkpt>
      <trkpt lat="46.834879" lon="15.822452">
        <ele>263.693136</ele>
        <time>2024-05-11T10:44:09.000Z</time>
      </trkpt>
      <trkpt lat="46.834544" lon="15.822445">
        <ele>263.759525</ele>
        <time>2024-05-11T10:44:13.000Z</time>
      </trkpt>
      <trkpt lat="46.834341" lon="15.822427">
        <ele>263.799645</ele>
        <time>2024-05-11T10:44:15.000Z</time>
      </trkpt>
      <trkpt lat="46.834026" lon="15.822324">
        <ele>263.864206</ele>
        <time>2024-05-11T10:44:19.000Z</time>
      </trkpt>
      <trkpt lat="46.833732" lon="15.822213">
        <ele>263.927394</ele>
        <time>2024-05-11T10:44:22.000Z</time>
      </trkpt>
      <trkpt lat="46.833679" lon="15.822188">
        <ele>263.937139</ele>
        <time>2024-05-11T10:44:23.000Z</time>
      </trkpt>
      <trkpt lat="46.833483" lon="15.822122">
        <ele>263.97723</ele>
        <time>2024-05-11T10:44:25.000Z</time>
      </trkpt>
      <trkpt lat="46.832746" lon="15.821798">
        <ele>263.899676</ele>
        <time>2024-05-11T10:44:34.000Z</time>
      </trkpt>
      <trkpt lat="46.832475" lon="15.821625">
        <ele>263.815592</ele>
        <time>2024-05-11T10:44:37.000Z</time>
      </trkpt>
      <trkpt lat="46.832307" lon="15.821543">
        <ele>263.7631</ele>
        <time>2024-05-11T10:44:39.000Z</time>
      </trkpt>
      <trkpt lat="46.831832" lon="15.821197">
        <ele>263.605282</ele>
        <time>2024-05-11T10:44:45.000Z</time>
      </trkpt>
      <trkpt lat="46.831827" lon="15.821188">
        <ele>263.605287</ele>
        <time>2024-05-11T10:44:45.000Z</time>
      </trkpt>
      <trkpt lat="46.831821" lon="15.821193">
        <ele>263.605286</ele>
        <time>2024-05-11T10:44:45.000Z</time>
      </trkpt>
      <trkpt lat="46.831673" lon="15.821086">
        <ele>263.555978</ele>
        <time>2024-05-11T10:44:47.000Z</time>
      </trkpt>
      <trkpt lat="46.831482" lon="15.820936">
        <ele>263.47333</ele>
        <time>2024-05-11T10:44:49.000Z</time>
      </trkpt>
      <trkpt lat="46.831303" lon="15.820841">
        <ele>263.379532</ele>
        <time>2024-05-11T10:44:51.000Z</time>
      </trkpt>
      <trkpt lat="46.831227" lon="15.820805">
        <ele>263.331226</ele>
        <time>2024-05-11T10:44:52.000Z</time>
      </trkpt>
      <trkpt lat="46.831201" lon="15.820787">
        <ele>263.317515</ele>
        <time>2024-05-11T10:44:52.000Z</time>
      </trkpt>
      <trkpt lat="46.831075" lon="15.82074">
        <ele>263.248755</ele>
        <time>2024-05-11T10:44:53.000Z</time>
      </trkpt>
      <trkpt lat="46.83093" lon="15.820673">
        <ele>263.173918</ele>
        <time>2024-05-11T10:44:55.000Z</time>
      </trkpt>
      <trkpt lat="46.830848" lon="15.820649">
        <ele>263.123442</ele>
        <time>2024-05-11T10:44:56.000Z</time>
      </trkpt>
      <trkpt lat="46.830378" lon="15.820495">
        <ele>262.873565</ele>
        <time>2024-05-11T10:45:01.000Z</time>
      </trkpt>
      <trkpt lat="46.829843" lon="15.820396">
        <ele>262.580333</ele>
        <time>2024-05-11T10:45:07.000Z</time>
      </trkpt>
      <trkpt lat="46.829573" lon="15.820373">
        <ele>262.56567</ele>
        <time>2024-05-11T10:45:10.000Z</time>
      </trkpt>
      <trkpt lat="46.828988" lon="15.820302">
        <ele>262.580411</ele>
        <time>2024-05-11T10:45:17.000Z</time>
      </trkpt>
      <trkpt lat="46.828725" lon="15.820242">
        <ele>262.587229</ele>
        <time>2024-05-11T10:45:20.000Z</time>
      </trkpt>
      <trkpt lat="46.828386" lon="15.820129">
        <ele>262.596167</ele>
        <time>2024-05-11T10:45:24.000Z</time>
      </trkpt>
      <trkpt lat="46.82779" lon="15.819945">
        <ele>262.747078</ele>
        <time>2024-05-11T10:45:31.000Z</time>
      </trkpt>
      <trkpt lat="46.827513" lon="15.819896">
        <ele>262.906145</ele>
        <time>2024-05-11T10:45:34.000Z</time>
      </trkpt>
      <trkpt lat="46.827354" lon="15.819886">
        <ele>262.989469</ele>
        <time>2024-05-11T10:45:36.000Z</time>
      </trkpt>
      <trkpt lat="46.827248" lon="15.819894">
        <ele>263.055922</ele>
        <time>2024-05-11T10:45:37.000Z</time>
      </trkpt>
      <trkpt lat="46.826796" lon="15.819885">
        <ele>263.321182</ele>
        <time>2024-05-11T10:45:42.000Z</time>
      </trkpt>
      <trkpt lat="46.826729" lon="15.81988">
        <ele>263.357611</ele>
        <time>2024-05-11T10:45:43.000Z</time>
      </trkpt>
      <trkpt lat="46.826485" lon="15.819859">
        <ele>263.493521</ele>
        <time>2024-05-11T10:45:46.000Z</time>
      </trkpt>
      <trkpt lat="46.826172" lon="15.819841">
        <ele>263.628697</ele>
        <time>2024-05-11T10:45:49.000Z</time>
      </trkpt>
      <trkpt lat="46.82594" lon="15.819841">
        <ele>263.568444</ele>
        <time>2024-05-11T10:45:52.000Z</time>
      </trkpt>
      <trkpt lat="46.825884" lon="15.819845">
        <ele>263.553452</ele>
        <time>2024-05-11T10:45:53.000Z</time>
      </trkpt>
      <trkpt lat="46.825576" lon="15.819868">
        <ele>263.464746</ele>
        <time>2024-05-11T10:45:56.000Z</time>
      </trkpt>
      <trkpt lat="46.825343" lon="15.81984">
        <ele>263.404052</ele>
        <time>2024-05-11T10:45:59.000Z</time>
      </trkpt>
      <trkpt lat="46.825094" lon="15.819726">
        <ele>263.331568</ele>
        <time>2024-05-11T10:46:02.000Z</time>
      </trkpt>
      <trkpt lat="46.824815" lon="15.819598">
        <ele>263.25448</ele>
        <time>2024-05-11T10:46:05.000Z</time>
      </trkpt>
      <trkpt lat="46.824524" lon="15.819482">
        <ele>263.168809</ele>
        <time>2024-05-11T10:46:08.000Z</time>
      </trkpt>
      <trkpt lat="46.824404" lon="15.819415">
        <ele>263.123685</ele>
        <time>2024-05-11T10:46:09.000Z</time>
      </trkpt>
      <trkpt lat="46.824312" lon="15.819369">
        <ele>263.086854</ele>
        <time>2024-05-11T10:46:10.000Z</time>
      </trkpt>
      <trkpt lat="46.824243" lon="15.819316">
        <ele>263.053358</ele>
        <time>2024-05-11T10:46:11.000Z</time>
      </trkpt>
      <trkpt lat="46.824152" lon="15.819266">
        <ele>263.015067</ele>
        <time>2024-05-11T10:46:12.000Z</time>
      </trkpt>
      <trkpt lat="46.823969" lon="15.81914">
        <ele>262.929696</ele>
        <time>2024-05-11T10:46:14.000Z</time>
      </trkpt>
      <trkpt lat="46.8237" lon="15.81899">
        <ele>262.815466</ele>
        <time>2024-05-11T10:46:17.000Z</time>
      </trkpt>
      <trkpt lat="46.82356" lon="15.81891">
        <ele>262.753764</ele>
        <time>2024-05-11T10:46:19.000Z</time>
      </trkpt>
      <trkpt lat="46.823384" lon="15.818878">
        <ele>262.677648</ele>
        <time>2024-05-11T10:46:21.000Z</time>
      </trkpt>
      <trkpt lat="46.823182" lon="15.818859">
        <ele>262.597753</ele>
        <time>2024-05-11T10:46:23.000Z</time>
      </trkpt>
      <trkpt lat="46.823047" lon="15.818837">
        <ele>262.539669</ele>
        <time>2024-05-11T10:46:25.000Z</time>
      </trkpt>
      <trkpt lat="46.822757" lon="15.818783">
        <ele>262.418229</ele>
        <time>2024-05-11T10:46:28.000Z</time>
      </trkpt>
      <trkpt lat="46.822364" lon="15.818723">
        <ele>262.626348</ele>
        <time>2024-05-11T10:46:32.000Z</time>
      </trkpt>
      <trkpt lat="46.822162" lon="15.818683">
        <ele>262.730697</ele>
        <time>2024-05-11T10:46:34.000Z</time>
      </trkpt>
      <trkpt lat="46.821588" lon="15.818581">
        <ele>263.041577</ele>
        <time>2024-05-11T10:46:40.000Z</time>
      </trkpt>
      <trkpt lat="46.821102" lon="15.818486">
        <ele>263.301217</ele>
        <time>2024-05-11T10:46:45.000Z</time>
      </trkpt>
      <trkpt lat="46.820919" lon="15.818455">
        <ele>263.447991</ele>
        <time>2024-05-11T10:46:47.000Z</time>
      </trkpt>
      <trkpt lat="46.820712" lon="15.818397">
        <ele>263.724456</ele>
        <time>2024-05-11T10:46:49.000Z</time>
      </trkpt>
      <trkpt lat="46.820603" lon="15.818354">
        <ele>263.877685</ele>
        <time>2024-05-11T10:46:50.000Z</time>
      </trkpt>
      <trkpt lat="46.820085" lon="15.818043">
        <ele>264.668227</ele>
        <time>2024-05-11T10:46:56.000Z</time>
      </trkpt>
      <trkpt lat="46.819639" lon="15.81771">
        <ele>265.349781</ele>
        <time>2024-05-11T10:47:02.000Z</time>
      </trkpt>
      <trkpt lat="46.818893" lon="15.817181">
        <ele>266.84073</ele>
        <time>2024-05-11T10:47:11.000Z</time>
      </trkpt>
      <trkpt lat="46.818321" lon="15.81675">
        <ele>268.229911</ele>
        <time>2024-05-11T10:47:18.000Z</time>
      </trkpt>
      <trkpt lat="46.818297" lon="15.816708">
        <ele>268.301709</ele>
        <time>2024-05-11T10:47:18.000Z</time>
      </trkpt>
      <trkpt lat="46.81811" lon="15.81657">
        <ele>268.748068</ele>
        <time>2024-05-11T10:47:20.000Z</time>
      </trkpt>
      <trkpt lat="46.818064" lon="15.816532">
        <ele>268.879844</ele>
        <time>2024-05-11T10:47:21.000Z</time>
      </trkpt>
      <trkpt lat="46.817819" lon="15.816277">
        <ele>269.526337</ele>
        <time>2024-05-11T10:47:24.000Z</time>
      </trkpt>
      <trkpt lat="46.817344" lon="15.815712">
        <ele>270.667044</ele>
        <time>2024-05-11T10:47:31.000Z</time>
      </trkpt>
      <trkpt lat="46.817326" lon="15.815693">
        <ele>270.707472</ele>
        <time>2024-05-11T10:47:31.000Z</time>
      </trkpt>
      <trkpt lat="46.816516" lon="15.814627">
        <ele>272.673725</ele>
        <time>2024-05-11T10:47:43.000Z</time>
      </trkpt>
      <trkpt lat="46.816094" lon="15.814218">
        <ele>273.213276</ele>
        <time>2024-05-11T10:47:49.000Z</time>
      </trkpt>
      <trkpt lat="46.815364" lon="15.813796">
        <ele>273.767149</ele>
        <time>2024-05-11T10:47:58.000Z</time>
      </trkpt>
      <trkpt lat="46.81454" lon="15.81371">
        <ele>274.271348</ele>
        <time>2024-05-11T10:48:07.000Z</time>
      </trkpt>
      <trkpt lat="46.813895" lon="15.81369">
        <ele>274.395864</ele>
        <time>2024-05-11T10:48:14.000Z</time>
      </trkpt>
      <trkpt lat="46.813413" lon="15.813688">
        <ele>274.487253</ele>
        <time>2024-05-11T10:48:19.000Z</time>
      </trkpt>
      <trkpt lat="46.812824" lon="15.813672">
        <ele>274.560306</ele>
        <time>2024-05-11T10:48:26.000Z</time>
      </trkpt>
      <trkpt lat="46.812663" lon="15.813657">
        <ele>274.500798</ele>
        <time>2024-05-11T10:48:28.000Z</time>
      </trkpt>
      <trkpt lat="46.812443" lon="15.813653">
        <ele>274.423141</ele>
        <time>2024-05-11T10:48:30.000Z</time>
      </trkpt>
      <trkpt lat="46.812411" lon="15.813644">
        <ele>274.415111</ele>
        <time>2024-05-11T10:48:30.000Z</time>
      </trkpt>
      <trkpt lat="46.811591" lon="15.813481">
        <ele>274.115775</ele>
        <time>2024-05-11T10:48:39.000Z</time>
      </trkpt>
      <trkpt lat="46.811281" lon="15.813419">
        <ele>273.998141</ele>
        <time>2024-05-11T10:48:42.000Z</time>
      </trkpt>
      <trkpt lat="46.81127" lon="15.813424">
        <ele>273.994826</ele>
        <time>2024-05-11T10:48:42.000Z</time>
      </trkpt>
      <trkpt lat="46.811169" lon="15.813361">
        <ele>273.955542</ele>
        <time>2024-05-11T10:48:43.000Z</time>
      </trkpt>
      <trkpt lat="46.810874" lon="15.813231">
        <ele>273.967574</ele>
        <time>2024-05-11T10:48:46.000Z</time>
      </trkpt>
      <trkpt lat="46.810342" lon="15.812858">
        <ele>274.044766</ele>
        <time>2024-05-11T10:48:53.000Z</time>
      </trkpt>
      <trkpt lat="46.810282" lon="15.812813">
        <ele>274.053859</ele>
        <time>2024-05-11T10:48:54.000Z</time>
      </trkpt>
      <trkpt lat="46.809741" lon="15.812469">
        <ele>274.13165</ele>
        <time>2024-05-11T10:49:01.000Z</time>
      </trkpt>
      <trkpt lat="46.809697" lon="15.812458">
        <ele>274.136812</ele>
        <time>2024-05-11T10:49:01.000Z</time>
      </trkpt>
      <trkpt lat="46.809535" lon="15.812334">
        <ele>274.16191</ele>
        <time>2024-05-11T10:49:03.000Z</time>
      </trkpt>
      <trkpt lat="46.809392" lon="15.812217">
        <ele>274.225848</ele>
        <time>2024-05-11T10:49:05.000Z</time>
      </trkpt>
      <trkpt lat="46.809301" lon="15.812201">
        <ele>274.281627</ele>
        <time>2024-05-11T10:49:06.000Z</time>
      </trkpt>
      <trkpt lat="46.809142" lon="15.812196">
        <ele>274.376508</ele>
        <time>2024-05-11T10:49:08.000Z</time>
      </trkpt>
      <trkpt lat="46.809052" lon="15.812246">
        <ele>274.434043</ele>
        <time>2024-05-11T10:49:09.000Z</time>
      </trkpt>
      <trkpt lat="46.808928" lon="15.8123">
        <ele>274.507598</ele>
        <time>2024-05-11T10:49:10.000Z</time>
      </trkpt>
      <trkpt lat="46.808469" lon="15.812777">
        <ele>274.846947</ele>
        <time>2024-05-11T10:49:16.000Z</time>
      </trkpt>
      <trkpt lat="46.808432" lon="15.812812">
        <ele>274.876222</ele>
        <time>2024-05-11T10:49:16.000Z</time>
      </trkpt>
      <trkpt lat="46.808093" lon="15.813172">
        <ele>275.130302</ele>
        <time>2024-05-11T10:49:21.000Z</time>
      </trkpt>
      <trkpt lat="46.80779" lon="15.813529">
        <ele>274.855296</ele>
        <time>2024-05-11T10:49:25.000Z</time>
      </trkpt>
      <trkpt lat="46.80763" lon="15.813888">
        <ele>274.191771</ele>
        <time>2024-05-11T10:49:28.000Z</time>
      </trkpt>
      <trkpt lat="46.807501" lon="15.814213">
        <ele>273.600281</ele>
        <time>2024-05-11T10:49:31.000Z</time>
      </trkpt>
      <trkpt lat="46.807294" lon="15.814616">
        <ele>272.830553</ele>
        <time>2024-05-11T10:49:35.000Z</time>
      </trkpt>
      <trkpt lat="46.807111" lon="15.814931">
        <ele>272.171624</ele>
        <time>2024-05-11T10:49:38.000Z</time>
      </trkpt>
      <trkpt lat="46.807053" lon="15.815039">
        <ele>271.980874</ele>
        <time>2024-05-11T10:49:39.000Z</time>
      </trkpt>
      <trkpt lat="46.805536" lon="15.816583">
        <ele>266.645219</ele>
        <time>2024-05-11T10:50:00.000Z</time>
      </trkpt>
      <trkpt lat="46.80412" lon="15.817735">
        <ele>262.62589</ele>
        <time>2024-05-11T10:50:18.000Z</time>
      </trkpt>
      <trkpt lat="46.803901" lon="15.817897">
        <ele>262.058434</ele>
        <time>2024-05-11T10:50:21.000Z</time>
      </trkpt>
      <trkpt lat="46.803875" lon="15.817927">
        <ele>261.982342</ele>
        <time>2024-05-11T10:50:21.000Z</time>
      </trkpt>
      <trkpt lat="46.803591" lon="15.81808">
        <ele>261.357587</ele>
        <time>2024-05-11T10:50:24.000Z</time>
      </trkpt>
      <trkpt lat="46.803481" lon="15.818146">
        <ele>261.219741</ele>
        <time>2024-05-11T10:50:25.000Z</time>
      </trkpt>
      <trkpt lat="46.803451" lon="15.818165">
        <ele>261.169262</ele>
        <time>2024-05-11T10:50:25.000Z</time>
      </trkpt>
      <trkpt lat="46.80275" lon="15.818478">
        <ele>260.189829</ele>
        <time>2024-05-11T10:50:33.000Z</time>
      </trkpt>
      <trkpt lat="46.801814" lon="15.818775">
        <ele>259.01521</ele>
        <time>2024-05-11T10:50:44.000Z</time>
      </trkpt>
      <trkpt lat="46.800139" lon="15.819078">
        <ele>257.535805</ele>
        <time>2024-05-11T10:51:03.000Z</time>
      </trkpt>
      <trkpt lat="46.800091" lon="15.819089">
        <ele>257.451815</ele>
        <time>2024-05-11T10:51:04.000Z</time>
      </trkpt>
      <trkpt lat="46.799408" lon="15.819192">
        <ele>256.348002</ele>
        <time>2024-05-11T10:51:12.000Z</time>
      </trkpt>
      <trkpt lat="46.798985" lon="15.81926">
        <ele>255.680052</ele>
        <time>2024-05-11T10:51:17.000Z</time>
      </trkpt>
      <trkpt lat="46.798414" lon="15.819326">
        <ele>254.742971</ele>
        <time>2024-05-11T10:51:23.000Z</time>
      </trkpt>
      <trkpt lat="46.798132" lon="15.819269">
        <ele>254.399533</ele>
        <time>2024-05-11T10:51:26.000Z</time>
      </trkpt>
      <trkpt lat="46.797238" lon="15.818871">
        <ele>253.244646</ele>
        <time>2024-05-11T10:51:36.000Z</time>
      </trkpt>
      <trkpt lat="46.796861" lon="15.818831">
        <ele>252.782218</ele>
        <time>2024-05-11T10:51:40.000Z</time>
      </trkpt>
      <trkpt lat="46.796752" lon="15.818854">
        <ele>252.658138</ele>
        <time>2024-05-11T10:51:41.000Z</time>
      </trkpt>
      <trkpt lat="46.796595" lon="15.818929">
        <ele>252.499928</ele>
        <time>2024-05-11T10:51:43.000Z</time>
      </trkpt>
      <trkpt lat="46.795499" lon="15.819414">
        <ele>252.484552</ele>
        <time>2024-05-11T10:51:56.000Z</time>
      </trkpt>
      <trkpt lat="46.795236" lon="15.819486">
        <ele>252.481006</ele>
        <time>2024-05-11T10:51:59.000Z</time>
      </trkpt>
      <trkpt lat="46.794838" lon="15.819574">
        <ele>252.442924</ele>
        <time>2024-05-11T10:52:03.000Z</time>
      </trkpt>
      <trkpt lat="46.794657" lon="15.819639">
        <ele>252.332123</ele>
        <time>2024-05-11T10:52:05.000Z</time>
      </trkpt>
      <trkpt lat="46.794332" lon="15.819798">
        <ele>252.123148</ele>
        <time>2024-05-11T10:52:09.000Z</time>
      </trkpt>
      <trkpt lat="46.794025" lon="15.820073">
        <ele>251.906861</ele>
        <time>2024-05-11T10:52:13.000Z</time>
      </trkpt>
      <trkpt lat="46.793886" lon="15.820259">
        <ele>251.789848</ele>
        <time>2024-05-11T10:52:15.000Z</time>
      </trkpt>
      <trkpt lat="46.793626" lon="15.820684">
        <ele>251.558937</ele>
        <time>2024-05-11T10:52:19.000Z</time>
      </trkpt>
      <trkpt lat="46.79334" lon="15.821105">
        <ele>251.200106</ele>
        <time>2024-05-11T10:52:24.000Z</time>
      </trkpt>
      <trkpt lat="46.792794" lon="15.821674">
        <ele>250.208699</ele>
        <time>2024-05-11T10:52:31.000Z</time>
      </trkpt>
      <trkpt lat="46.792088" lon="15.822276">
        <ele>248.981878</ele>
        <time>2024-05-11T10:52:40.000Z</time>
      </trkpt>
      <trkpt lat="46.790539" lon="15.823567">
        <ele>247.103492</ele>
        <time>2024-05-11T10:53:00.000Z</time>
      </trkpt>
      <trkpt lat="46.790515" lon="15.823572">
        <ele>247.074095</ele>
        <time>2024-05-11T10:53:00.000Z</time>
      </trkpt>
      <trkpt lat="46.78993" lon="15.823994">
        <ele>246.620521</ele>
        <time>2024-05-11T10:53:07.000Z</time>
      </trkpt>
      <trkpt lat="46.789451" lon="15.824263">
        <ele>246.320001</ele>
        <time>2024-05-11T10:53:13.000Z</time>
      </trkpt>
      <trkpt lat="46.788559" lon="15.824634">
        <ele>245.835209</ele>
        <time>2024-05-11T10:53:23.000Z</time>
      </trkpt>
      <trkpt lat="46.788512" lon="15.824651">
        <ele>245.830171</ele>
        <time>2024-05-11T10:53:24.000Z</time>
      </trkpt>
      <trkpt lat="46.788377" lon="15.824711">
        <ele>245.813981</ele>
        <time>2024-05-11T10:53:26.000Z</time>
      </trkpt>
      <trkpt lat="46.787317" lon="15.825001">
        <ele>245.700796</ele>
        <time>2024-05-11T10:53:38.000Z</time>
      </trkpt>
      <trkpt lat="46.786598" lon="15.825181">
        <ele>245.659049</ele>
        <time>2024-05-11T10:53:46.000Z</time>
      </trkpt>
      <trkpt lat="46.785103" lon="15.825638">
        <ele>245.65414</ele>
        <time>2024-05-11T10:54:03.000Z</time>
      </trkpt>
      <trkpt lat="46.784595" lon="15.825676">
        <ele>245.597951</ele>
        <time>2024-05-11T10:54:09.000Z</time>
      </trkpt>
      <trkpt lat="46.784106" lon="15.825545">
        <ele>245.541683</ele>
        <time>2024-05-11T10:54:15.000Z</time>
      </trkpt>
      <trkpt lat="46.782462" lon="15.824735">
        <ele>245.417226</ele>
        <time>2024-05-11T10:54:34.000Z</time>
      </trkpt>
      <trkpt lat="46.782122" lon="15.824409">
        <ele>245.400337</ele>
        <time>2024-05-11T10:54:39.000Z</time>
      </trkpt>
      <trkpt lat="46.781772" lon="15.823867">
        <ele>245.355965</ele>
        <time>2024-05-11T10:54:45.000Z</time>
      </trkpt>
      <trkpt lat="46.781578" lon="15.823653">
        <ele>245.292603</ele>
        <time>2024-05-11T10:54:48.000Z</time>
      </trkpt>
      <trkpt lat="46.781102" lon="15.823424">
        <ele>245.169228</ele>
        <time>2024-05-11T10:54:54.000Z</time>
      </trkpt>
      <trkpt lat="46.780825" lon="15.823372">
        <ele>245.103087</ele>
        <time>2024-05-11T10:54:57.000Z</time>
      </trkpt>
      <trkpt lat="46.780239" lon="15.823481">
        <ele>244.956275</ele>
        <time>2024-05-11T10:55:04.000Z</time>
      </trkpt>
      <trkpt lat="46.779063" lon="15.824048">
        <ele>244.498909</ele>
        <time>2024-05-11T10:55:18.000Z</time>
      </trkpt>
      <trkpt lat="46.778584" lon="15.824169">
        <ele>244.317301</ele>
        <time>2024-05-11T10:55:23.000Z</time>
      </trkpt>
      <trkpt lat="46.778496" lon="15.824158">
        <ele>244.284828</ele>
        <time>2024-05-11T10:55:24.000Z</time>
      </trkpt>
      <trkpt lat="46.778404" lon="15.824155">
        <ele>244.254549</ele>
        <time>2024-05-11T10:55:25.000Z</time>
      </trkpt>
      <trkpt lat="46.777516" lon="15.823927">
        <ele>244.02728</ele>
        <time>2024-05-11T10:55:35.000Z</time>
      </trkpt>
      <trkpt lat="46.777064" lon="15.823733">
        <ele>243.906328</ele>
        <time>2024-05-11T10:55:40.000Z</time>
      </trkpt>
      <trkpt lat="46.776508" lon="15.823518">
        <ele>243.717874</ele>
        <time>2024-05-11T10:55:46.000Z</time>
      </trkpt>
      <trkpt lat="46.776121" lon="15.823437">
        <ele>243.536286</ele>
        <time>2024-05-11T10:55:50.000Z</time>
      </trkpt>
      <trkpt lat="46.776016" lon="15.82341">
        <ele>243.480654</ele>
        <time>2024-05-11T10:55:51.000Z</time>
      </trkpt>
      <trkpt lat="46.77467" lon="15.823304">
        <ele>242.750978</ele>
        <time>2024-05-11T10:56:06.000Z</time>
      </trkpt>
      <trkpt lat="46.774532" lon="15.823287">
        <ele>242.648366</ele>
        <time>2024-05-11T10:56:08.000Z</time>
      </trkpt>
      <trkpt lat="46.774218" lon="15.823351">
        <ele>242.38671</ele>
        <time>2024-05-11T10:56:12.000Z</time>
      </trkpt>
      <trkpt lat="46.773956" lon="15.823477">
        <ele>242.157801</ele>
        <time>2024-05-11T10:56:15.000Z</time>
      </trkpt>
      <trkpt lat="46.773222" lon="15.823775">
        <ele>241.52926</ele>
        <time>2024-05-11T10:56:23.000Z</time>
      </trkpt>
      <trkpt lat="46.773072" lon="15.823843">
        <ele>241.389408</ele>
        <time>2024-05-11T10:56:25.000Z</time>
      </trkpt>
      <trkpt lat="46.772631" lon="15.824011">
        <ele>240.967519</ele>
        <time>2024-05-11T10:56:30.000Z</time>
      </trkpt>
      <trkpt lat="46.771576" lon="15.824577">
        <ele>239.928536</ele>
        <time>2024-05-11T10:56:42.000Z</time>
      </trkpt>
      <trkpt lat="46.770856" lon="15.824858">
        <ele>240.029598</ele>
        <time>2024-05-11T10:56:50.000Z</time>
      </trkpt>
      <trkpt lat="46.770458" lon="15.824932">
        <ele>240.184997</ele>
        <time>2024-05-11T10:56:54.000Z</time>
      </trkpt>
      <trkpt lat="46.769781" lon="15.824834">
        <ele>240.441039</ele>
        <time>2024-05-11T10:57:02.000Z</time>
      </trkpt>
      <trkpt lat="46.76971" lon="15.824831">
        <ele>240.464485</ele>
        <time>2024-05-11T10:57:03.000Z</time>
      </trkpt>
      <trkpt lat="46.769532" lon="15.824816">
        <ele>240.517469</ele>
        <time>2024-05-11T10:57:05.000Z</time>
      </trkpt>
      <trkpt lat="46.768976" lon="15.824951">
        <ele>240.676441</ele>
        <time>2024-05-11T10:57:11.000Z</time>
      </trkpt>
      <trkpt lat="46.768676" lon="15.825034">
        <ele>240.759571</ele>
        <time>2024-05-11T10:57:14.000Z</time>
      </trkpt>
      <trkpt lat="46.768397" lon="15.825115">
        <ele>240.837117</ele>
        <time>2024-05-11T10:57:17.000Z</time>
      </trkpt>
      <trkpt lat="46.766672" lon="15.825359">
        <ele>240.476084</ele>
        <time>2024-05-11T10:57:36.000Z</time>
      </trkpt>
      <trkpt lat="46.766656" lon="15.825374">
        <ele>240.468822</ele>
        <time>2024-05-11T10:57:36.000Z</time>
      </trkpt>
      <trkpt lat="46.766242" lon="15.825586">
        <ele>240.28933</ele>
        <time>2024-05-11T10:57:41.000Z</time>
      </trkpt>
      <trkpt lat="46.765669" lon="15.825948">
        <ele>240.0907</ele>
        <time>2024-05-11T10:57:48.000Z</time>
      </trkpt>
      <trkpt lat="46.765466" lon="15.826069">
        <ele>240.026029</ele>
        <time>2024-05-11T10:57:50.000Z</time>
      </trkpt>
      <trkpt lat="46.764777" lon="15.826525">
        <ele>239.797319</ele>
        <time>2024-05-11T10:57:58.000Z</time>
      </trkpt>
      <trkpt lat="46.764541" lon="15.826711">
        <ele>239.717208</ele>
        <time>2024-05-11T10:58:01.000Z</time>
      </trkpt>
      <trkpt lat="46.764155" lon="15.827069">
        <ele>239.495761</ele>
        <time>2024-05-11T10:58:06.000Z</time>
      </trkpt>
      <trkpt lat="46.763256" lon="15.827999">
        <ele>238.940844</ele>
        <time>2024-05-11T10:58:18.000Z</time>
      </trkpt>
      <trkpt lat="46.76322" lon="15.82803">
        <ele>238.925134</ele>
        <time>2024-05-11T10:58:18.000Z</time>
      </trkpt>
      <trkpt lat="46.763036" lon="15.828185">
        <ele>238.812252</ele>
        <time>2024-05-11T10:58:20.000Z</time>
      </trkpt>
      <trkpt lat="46.762365" lon="15.82852">
        <ele>238.585277</ele>
        <time>2024-05-11T10:58:28.000Z</time>
      </trkpt>
      <trkpt lat="46.761933" lon="15.828581">
        <ele>238.445538</ele>
        <time>2024-05-11T10:58:33.000Z</time>
      </trkpt>
      <trkpt lat="46.761686" lon="15.828609">
        <ele>238.361506</ele>
        <time>2024-05-11T10:58:36.000Z</time>
      </trkpt>
      <trkpt lat="46.761236" lon="15.828645">
        <ele>238.23464</ele>
        <time>2024-05-11T10:58:41.000Z</time>
      </trkpt>
      <trkpt lat="46.760493" lon="15.828678">
        <ele>238.912919</ele>
        <time>2024-05-11T10:58:49.000Z</time>
      </trkpt>
      <trkpt lat="46.759954" lon="15.828758">
        <ele>239.387428</ele>
        <time>2024-05-11T10:58:55.000Z</time>
      </trkpt>
      <trkpt lat="46.759339" lon="15.828938">
        <ele>240.077042</ele>
        <time>2024-05-11T10:59:02.000Z</time>
      </trkpt>
      <trkpt lat="46.759015" lon="15.829033">
        <ele>240.706039</ele>
        <time>2024-05-11T10:59:06.000Z</time>
      </trkpt>
      <trkpt lat="46.758823" lon="15.82909">
        <ele>241.089649</ele>
        <time>2024-05-11T10:59:08.000Z</time>
      </trkpt>
      <trkpt lat="46.758672" lon="15.829123">
        <ele>241.35073</ele>
        <time>2024-05-11T10:59:10.000Z</time>
      </trkpt>
      <trkpt lat="46.758273" lon="15.829171">
        <ele>242.124163</ele>
        <time>2024-05-11T10:59:14.000Z</time>
      </trkpt>
      <trkpt lat="46.757957" lon="15.829182">
        <ele>242.723553</ele>
        <time>2024-05-11T10:59:18.000Z</time>
      </trkpt>
      <trkpt lat="46.757664" lon="15.829151">
        <ele>243.245655</ele>
        <time>2024-05-11T10:59:21.000Z</time>
      </trkpt>
      <trkpt lat="46.757523" lon="15.829134">
        <ele>243.309637</ele>
        <time>2024-05-11T10:59:23.000Z</time>
      </trkpt>
      <trkpt lat="46.757249" lon="15.829087">
        <ele>243.423667</ele>
        <time>2024-05-11T10:59:26.000Z</time>
      </trkpt>
      <trkpt lat="46.756786" lon="15.82895">
        <ele>243.62406</ele>
        <time>2024-05-11T10:59:31.000Z</time>
      </trkpt>
      <trkpt lat="46.756542" lon="15.828855">
        <ele>243.731809</ele>
        <time>2024-05-11T10:59:34.000Z</time>
      </trkpt>
      <trkpt lat="46.756391" lon="15.828813">
        <ele>243.798381</ele>
        <time>2024-05-11T10:59:36.000Z</time>
      </trkpt>
      <trkpt lat="46.756247" lon="15.82878">
        <ele>243.864308</ele>
        <time>2024-05-11T10:59:38.000Z</time>
      </trkpt>
      <trkpt lat="46.756104" lon="15.828757">
        <ele>243.920704</ele>
        <time>2024-05-11T10:59:40.000Z</time>
      </trkpt>
      <trkpt lat="46.756013" lon="15.828772">
        <ele>243.963475</ele>
        <time>2024-05-11T10:59:41.000Z</time>
      </trkpt>
      <trkpt lat="46.75587" lon="15.828772">
        <ele>243.990192</ele>
        <time>2024-05-11T10:59:43.000Z</time>
      </trkpt>
      <trkpt lat="46.755761" lon="15.828788">
        <ele>243.949922</ele>
        <time>2024-05-11T10:59:44.000Z</time>
      </trkpt>
      <trkpt lat="46.755656" lon="15.82879">
        <ele>243.913966</ele>
        <time>2024-05-11T10:59:45.000Z</time>
      </trkpt>
      <trkpt lat="46.755483" lon="15.828797">
        <ele>243.855221</ele>
        <time>2024-05-11T10:59:47.000Z</time>
      </trkpt>
      <trkpt lat="46.755408" lon="15.82881">
        <ele>243.821722</ele>
        <time>2024-05-11T10:59:48.000Z</time>
      </trkpt>
      <trkpt lat="46.755394" lon="15.828815">
        <ele>243.821727</ele>
        <time>2024-05-11T10:59:48.000Z</time>
      </trkpt>
      <trkpt lat="46.755065" lon="15.828859">
        <ele>243.70064</ele>
        <time>2024-05-11T10:59:52.000Z</time>
      </trkpt>
      <trkpt lat="46.754725" lon="15.828882">
        <ele>243.582277</ele>
        <time>2024-05-11T10:59:56.000Z</time>
      </trkpt>
      <trkpt lat="46.754407" lon="15.828921">
        <ele>243.46232</ele>
        <time>2024-05-11T11:00:00.000Z</time>
      </trkpt>
      <trkpt lat="46.754029" lon="15.828957">
        <ele>243.39709</ele>
        <time>2024-05-11T11:00:04.000Z</time>
      </trkpt>
      <trkpt lat="46.753866" lon="15.828992">
        <ele>243.457289</ele>
        <time>2024-05-11T11:00:06.000Z</time>
      </trkpt>
      <trkpt lat="46.753709" lon="15.829038">
        <ele>243.520881</ele>
        <time>2024-05-11T11:00:08.000Z</time>
      </trkpt>
      <trkpt lat="46.753631" lon="15.829055">
        <ele>243.550104</ele>
        <time>2024-05-11T11:00:09.000Z</time>
      </trkpt>
      <trkpt lat="46.752866" lon="15.829458">
        <ele>243.87013</ele>
        <time>2024-05-11T11:00:18.000Z</time>
      </trkpt>
      <trkpt lat="46.75254" lon="15.829647">
        <ele>244.001896</ele>
        <time>2024-05-11T11:00:22.000Z</time>
      </trkpt>
      <trkpt lat="46.75249" lon="15.829684">
        <ele>244.025037</ele>
        <time>2024-05-11T11:00:23.000Z</time>
      </trkpt>
      <trkpt lat="46.752451" lon="15.829706">
        <ele>244.045601</ele>
        <time>2024-05-11T11:00:23.000Z</time>
      </trkpt>
      <trkpt lat="46.75228" lon="15.829734">
        <ele>244.150191</ele>
        <time>2024-05-11T11:00:25.000Z</time>
      </trkpt>
      <trkpt lat="46.752179" lon="15.829747">
        <ele>244.236641</ele>
        <time>2024-05-11T11:00:26.000Z</time>
      </trkpt>
      <trkpt lat="46.752176" lon="15.829718">
        <ele>244.260418</ele>
        <time>2024-05-11T11:00:26.000Z</time>
      </trkpt>
      <trkpt lat="46.752147" lon="15.829657">
        <ele>244.294683</ele>
        <time>2024-05-11T11:00:27.000Z</time>
      </trkpt>
      <trkpt lat="46.752093" lon="15.829592">
        <ele>244.347558</ele>
        <time>2024-05-11T11:00:28.000Z</time>
      </trkpt>
      <trkpt lat="46.752004" lon="15.82958">
        <ele>244.422156</ele>
        <time>2024-05-11T11:00:29.000Z</time>
      </trkpt>
      <trkpt lat="46.751955" lon="15.829634">
        <ele>244.454754</ele>
        <time>2024-05-11T11:00:30.000Z</time>
      </trkpt>
      <trkpt lat="46.751947" lon="15.829632">
        <ele>244.467036</ele>
        <time>2024-05-11T11:00:30.000Z</time>
      </trkpt>
      <trkpt lat="46.751885" lon="15.829533">
        <ele>244.544345</ele>
        <time>2024-05-11T11:00:31.000Z</time>
      </trkpt>
      <trkpt lat="46.751827" lon="15.829428">
        <ele>244.613389</ele>
        <time>2024-05-11T11:00:32.000Z</time>
      </trkpt>
      <trkpt lat="46.751636" lon="15.829043">
        <ele>244.859884</ele>
        <time>2024-05-11T11:00:36.000Z</time>
      </trkpt>
      <trkpt lat="46.751618" lon="15.828987">
        <ele>244.891718</ele>
        <time>2024-05-11T11:00:36.000Z</time>
      </trkpt>
      <trkpt lat="46.751568" lon="15.828898">
        <ele>244.957539</ele>
        <time>2024-05-11T11:00:37.000Z</time>
      </trkpt>
      <trkpt lat="46.751478" lon="15.828737">
        <ele>245.058648</ele>
        <time>2024-05-11T11:00:39.000Z</time>
      </trkpt>
      <trkpt lat="46.751321" lon="15.828411">
        <ele>245.264024</ele>
        <time>2024-05-11T11:00:42.000Z</time>
      </trkpt>
      <trkpt lat="46.751313" lon="15.828415">
        <ele>245.274218</ele>
        <time>2024-05-11T11:00:42.000Z</time>
      </trkpt>
      <trkpt lat="46.751283" lon="15.82832">
        <ele>245.324124</ele>
        <time>2024-05-11T11:00:43.000Z</time>
      </trkpt>
      <trkpt lat="46.751196" lon="15.828157">
        <ele>245.434048</ele>
        <time>2024-05-11T11:00:45.000Z</time>
      </trkpt>
      <trkpt lat="46.75118" lon="15.828121">
        <ele>245.464876</ele>
        <time>2024-05-11T11:00:45.000Z</time>
      </trkpt>
      <trkpt lat="46.750988" lon="15.827784">
        <ele>245.772728</ele>
        <time>2024-05-11T11:00:48.000Z</time>
      </trkpt>
      <trkpt lat="46.750928" lon="15.827691">
        <ele>245.868041</ele>
        <time>2024-05-11T11:00:49.000Z</time>
      </trkpt>
      <trkpt lat="46.750853" lon="15.827552">
        <ele>245.994186</ele>
        <time>2024-05-11T11:00:50.000Z</time>
      </trkpt>
      <trkpt lat="46.750741" lon="15.827354">
        <ele>246.178142</ele>
        <time>2024-05-11T11:00:52.000Z</time>
      </trkpt>
      <trkpt lat="46.750535" lon="15.827015">
        <ele>246.504431</ele>
        <time>2024-05-11T11:00:55.000Z</time>
      </trkpt>
      <trkpt lat="46.750475" lon="15.826949">
        <ele>246.576405</ele>
        <time>2024-05-11T11:00:56.000Z</time>
      </trkpt>
      <trkpt lat="46.750387" lon="15.826791">
        <ele>246.718427</ele>
        <time>2024-05-11T11:00:58.000Z</time>
      </trkpt>
      <trkpt lat="46.750226" lon="15.826517">
        <ele>246.979251</ele>
        <time>2024-05-11T11:01:01.000Z</time>
      </trkpt>
      <trkpt lat="46.750203" lon="15.826471">
        <ele>247.019019</ele>
        <time>2024-05-11T11:01:01.000Z</time>
      </trkpt>
      <trkpt lat="46.750049" lon="15.826221">
        <ele>247.260972</ele>
        <time>2024-05-11T11:01:04.000Z</time>
      </trkpt>
      <trkpt lat="46.74963" lon="15.825638">
        <ele>246.89176</ele>
        <time>2024-05-11T11:01:10.000Z</time>
      </trkpt>
      <trkpt lat="46.749399" lon="15.825302">
        <ele>246.644363</ele>
        <time>2024-05-11T11:01:14.000Z</time>
      </trkpt>
      <trkpt lat="46.749001" lon="15.824701">
        <ele>246.19498</ele>
        <time>2024-05-11T11:01:20.000Z</time>
      </trkpt>
      <trkpt lat="46.748851" lon="15.824444">
        <ele>246.023377</ele>
        <time>2024-05-11T11:01:23.000Z</time>
      </trkpt>
      <trkpt lat="46.74866" lon="15.824088">
        <ele>245.600717</ele>
        <time>2024-05-11T11:01:26.000Z</time>
      </trkpt>
      <trkpt lat="46.748534" lon="15.823836">
        <ele>245.214865</ele>
        <time>2024-05-11T11:01:28.000Z</time>
      </trkpt>
      <trkpt lat="46.748087" lon="15.82291">
        <ele>243.828648</ele>
        <time>2024-05-11T11:01:37.000Z</time>
      </trkpt>
      <trkpt lat="46.748049" lon="15.822806">
        <ele>243.658177</ele>
        <time>2024-05-11T11:01:38.000Z</time>
      </trkpt>
      <trkpt lat="46.748033" lon="15.822768">
        <ele>243.612098</ele>
        <time>2024-05-11T11:01:38.000Z</time>
      </trkpt>
      <trkpt lat="46.747889" lon="15.822548">
        <ele>243.237108</ele>
        <time>2024-05-11T11:01:40.000Z</time>
      </trkpt>
      <trkpt lat="46.747838" lon="15.822427">
        <ele>243.062806</ele>
        <time>2024-05-11T11:01:41.000Z</time>
      </trkpt>
      <trkpt lat="46.747742" lon="15.822275">
        <ele>242.810694</ele>
        <time>2024-05-11T11:01:43.000Z</time>
      </trkpt>
      <trkpt lat="46.746954" lon="15.821176">
        <ele>241.815656</ele>
        <time>2024-05-11T11:01:55.000Z</time>
      </trkpt>
      <trkpt lat="46.746737" lon="15.820969">
        <ele>241.603794</ele>
        <time>2024-05-11T11:01:58.000Z</time>
      </trkpt>
      <trkpt lat="46.746422" lon="15.820739">
        <ele>241.315166</ele>
        <time>2024-05-11T11:02:02.000Z</time>
      </trkpt>
      <trkpt lat="46.746243" lon="15.82065">
        <ele>241.162304</ele>
        <time>2024-05-11T11:02:04.000Z</time>
      </trkpt>
      <trkpt lat="46.746053" lon="15.820573">
        <ele>241.142524</ele>
        <time>2024-05-11T11:02:06.000Z</time>
      </trkpt>
      <trkpt lat="46.745776" lon="15.820457">
        <ele>241.112909</ele>
        <time>2024-05-11T11:02:09.000Z</time>
      </trkpt>
      <trkpt lat="46.745526" lon="15.820302">
        <ele>241.086121</ele>
        <time>2024-05-11T11:02:12.000Z</time>
      </trkpt>
      <trkpt lat="46.745472" lon="15.820281">
        <ele>241.080325</ele>
        <time>2024-05-11T11:02:13.000Z</time>
      </trkpt>
      <trkpt lat="46.745371" lon="15.820208">
        <ele>241.068737</ele>
        <time>2024-05-11T11:02:14.000Z</time>
      </trkpt>
      <trkpt lat="46.745295" lon="15.820139">
        <ele>241.060213</ele>
        <time>2024-05-11T11:02:15.000Z</time>
      </trkpt>
      <trkpt lat="46.745139" lon="15.81997">
        <ele>241.041392</ele>
        <time>2024-05-11T11:02:17.000Z</time>
      </trkpt>
      <trkpt lat="46.744974" lon="15.819679">
        <ele>241.015926</ele>
        <time>2024-05-11T11:02:20.000Z</time>
      </trkpt>
      <trkpt lat="46.744814" lon="15.819397">
        <ele>240.990792</ele>
        <time>2024-05-11T11:02:23.000Z</time>
      </trkpt>
      <trkpt lat="46.744618" lon="15.819065">
        <ele>240.940967</ele>
        <time>2024-05-11T11:02:26.000Z</time>
      </trkpt>
      <trkpt lat="46.744543" lon="15.818919">
        <ele>240.915981</ele>
        <time>2024-05-11T11:02:27.000Z</time>
      </trkpt>
      <trkpt lat="46.744352" lon="15.818595">
        <ele>240.86283</ele>
        <time>2024-05-11T11:02:30.000Z</time>
      </trkpt>
      <trkpt lat="46.74432" lon="15.818532">
        <ele>240.853195</ele>
        <time>2024-05-11T11:02:31.000Z</time>
      </trkpt>
      <trkpt lat="46.744284" lon="15.818481">
        <ele>240.842264</ele>
        <time>2024-05-11T11:02:32.000Z</time>
      </trkpt>
      <trkpt lat="46.74425" lon="15.818428">
        <ele>240.833353</ele>
        <time>2024-05-11T11:02:33.000Z</time>
      </trkpt>
      <trkpt lat="46.744203" lon="15.818347">
        <ele>240.820096</ele>
        <time>2024-05-11T11:02:34.000Z</time>
      </trkpt>
      <trkpt lat="46.744018" lon="15.818133">
        <ele>240.777874</ele>
        <time>2024-05-11T11:02:37.000Z</time>
      </trkpt>
      <trkpt lat="46.74396" lon="15.818071">
        <ele>240.763238</ele>
        <time>2024-05-11T11:02:38.000Z</time>
      </trkpt>
      <trkpt lat="46.743897" lon="15.817983">
        <ele>240.747196</ele>
        <time>2024-05-11T11:02:39.000Z</time>
      </trkpt>
      <trkpt lat="46.743464" lon="15.817587">
        <ele>240.653852</ele>
        <time>2024-05-11T11:02:45.000Z</time>
      </trkpt>
      <trkpt lat="46.743345" lon="15.81746">
        <ele>240.384791</ele>
        <time>2024-05-11T11:02:47.000Z</time>
      </trkpt>
      <trkpt lat="46.743078" lon="15.817118">
        <ele>239.762677</ele>
        <time>2024-05-11T11:02:51.000Z</time>
      </trkpt>
      <trkpt lat="46.742819" lon="15.816761">
        <ele>239.08635</ele>
        <time>2024-05-11T11:02:55.000Z</time>
      </trkpt>
      <trkpt lat="46.74249" lon="15.81631">
        <ele>238.264588</ele>
        <time>2024-05-11T11:03:00.000Z</time>
      </trkpt>
      <trkpt lat="46.742483" lon="15.816303">
        <ele>238.228475</ele>
        <time>2024-05-11T11:03:00.000Z</time>
      </trkpt>
      <trkpt lat="46.742237" lon="15.816019">
        <ele>237.655435</ele>
        <time>2024-05-11T11:03:03.000Z</time>
      </trkpt>
      <trkpt lat="46.742052" lon="15.815825">
        <ele>237.21503</ele>
        <time>2024-05-11T11:03:06.000Z</time>
      </trkpt>
      <trkpt lat="46.741991" lon="15.815761">
        <ele>237.063146</ele>
        <time>2024-05-11T11:03:07.000Z</time>
      </trkpt>
      <trkpt lat="46.741669" lon="15.815495">
        <ele>236.271596</ele>
        <time>2024-05-11T11:03:11.000Z</time>
      </trkpt>
      <trkpt lat="46.741389" lon="15.815301">
        <ele>235.632146</ele>
        <time>2024-05-11T11:03:14.000Z</time>
      </trkpt>
      <trkpt lat="46.741118" lon="15.815097">
        <ele>234.986799</ele>
        <time>2024-05-11T11:03:17.000Z</time>
      </trkpt>
      <trkpt lat="46.740804" lon="15.814805">
        <ele>234.168419</ele>
        <time>2024-05-11T11:03:21.000Z</time>
      </trkpt>
      <trkpt lat="46.740597" lon="15.814587">
        <ele>233.640538</ele>
        <time>2024-05-11T11:03:24.000Z</time>
      </trkpt>
      <trkpt lat="46.740404" lon="15.814333">
        <ele>233.29583</ele>
        <time>2024-05-11T11:03:27.000Z</time>
      </trkpt>
      <trkpt lat="46.740276" lon="15.814161">
        <ele>233.101043</ele>
        <time>2024-05-11T11:03:29.000Z</time>
      </trkpt>
      <trkpt lat="46.739978" lon="15.813672">
        <ele>232.626845</ele>
        <time>2024-05-11T11:03:34.000Z</time>
      </trkpt>
      <trkpt lat="46.739477" lon="15.812806">
        <ele>231.793883</ele>
        <time>2024-05-11T11:03:43.000Z</time>
      </trkpt>
      <trkpt lat="46.739128" lon="15.8124">
        <ele>231.537221</ele>
        <time>2024-05-11T11:03:48.000Z</time>
      </trkpt>
      <trkpt lat="46.738856" lon="15.812123">
        <ele>231.482312</ele>
        <time>2024-05-11T11:03:52.000Z</time>
      </trkpt>
      <trkpt lat="46.738846" lon="15.812097">
        <ele>231.477608</ele>
        <time>2024-05-11T11:03:52.000Z</time>
      </trkpt>
      <trkpt lat="46.738747" lon="15.811987">
        <ele>231.458125</ele>
        <time>2024-05-11T11:03:53.000Z</time>
      </trkpt>
      <trkpt lat="46.738484" lon="15.811669">
        <ele>231.401788</ele>
        <time>2024-05-11T11:03:57.000Z</time>
      </trkpt>
      <trkpt lat="46.738491" lon="15.811599">
        <ele>231.393249</ele>
        <time>2024-05-11T11:03:58.000Z</time>
      </trkpt>
      <trkpt lat="46.738441" lon="15.811519">
        <ele>231.382025</ele>
        <time>2024-05-11T11:03:59.000Z</time>
      </trkpt>
      <trkpt lat="46.738129" lon="15.811061">
        <ele>231.30845</ele>
        <time>2024-05-11T11:04:04.000Z</time>
      </trkpt>
      <trkpt lat="46.737442" lon="15.809716">
        <ele>231.688417</ele>
        <time>2024-05-11T11:04:17.000Z</time>
      </trkpt>
      <trkpt lat="46.736726" lon="15.808614">
        <ele>232.05668</ele>
        <time>2024-05-11T11:04:29.000Z</time>
      </trkpt>
      <trkpt lat="46.736402" lon="15.808008">
        <ele>232.132981</ele>
        <time>2024-05-11T11:04:35.000Z</time>
      </trkpt>
      <trkpt lat="46.736354" lon="15.807852">
        <ele>232.150756</ele>
        <time>2024-05-11T11:04:36.000Z</time>
      </trkpt>
      <trkpt lat="46.736309" lon="15.807709">
        <ele>232.166325</ele>
        <time>2024-05-11T11:04:37.000Z</time>
      </trkpt>
      <trkpt lat="46.736213" lon="15.807448">
        <ele>232.193915</ele>
        <time>2024-05-11T11:04:39.000Z</time>
      </trkpt>
      <trkpt lat="46.73587" lon="15.805801">
        <ele>232.080677</ele>
        <time>2024-05-11T11:04:52.000Z</time>
      </trkpt>
      <trkpt lat="46.735769" lon="15.805504">
        <ele>231.999349</ele>
        <time>2024-05-11T11:04:55.000Z</time>
      </trkpt>
      <trkpt lat="46.735487" lon="15.805">
        <ele>231.840537</ele>
        <time>2024-05-11T11:05:00.000Z</time>
      </trkpt>
      <trkpt lat="46.735382" lon="15.804863">
        <ele>231.795843</ele>
        <time>2024-05-11T11:05:02.000Z</time>
      </trkpt>
      <trkpt lat="46.735358" lon="15.804914">
        <ele>231.778513</ele>
        <time>2024-05-11T11:05:02.000Z</time>
      </trkpt>
      <trkpt lat="46.73505" lon="15.804622">
        <ele>231.64635</ele>
        <time>2024-05-11T11:05:06.000Z</time>
      </trkpt>
      <trkpt lat="46.734719" lon="15.804316">
        <ele>231.549322</ele>
        <time>2024-05-11T11:05:10.000Z</time>
      </trkpt>
      <trkpt lat="46.734303" lon="15.804112">
        <ele>231.443359</ele>
        <time>2024-05-11T11:05:15.000Z</time>
      </trkpt>
      <trkpt lat="46.732312" lon="15.803489">
        <ele>231.415796</ele>
        <time>2024-05-11T11:05:38.000Z</time>
      </trkpt>
      <trkpt lat="46.730985" lon="15.802648">
        <ele>231.639549</ele>
        <time>2024-05-11T11:05:54.000Z</time>
      </trkpt>
      <trkpt lat="46.730566" lon="15.802435">
        <ele>231.690641</ele>
        <time>2024-05-11T11:05:59.000Z</time>
      </trkpt>
      <trkpt lat="46.730132" lon="15.802306">
        <ele>231.740657</ele>
        <time>2024-05-11T11:06:04.000Z</time>
      </trkpt>
      <trkpt lat="46.729849" lon="15.80216">
        <ele>231.728479</ele>
        <time>2024-05-11T11:06:07.000Z</time>
      </trkpt>
      <trkpt lat="46.729393" lon="15.801943">
        <ele>231.565096</ele>
        <time>2024-05-11T11:06:12.000Z</time>
      </trkpt>
      <trkpt lat="46.729102" lon="15.801698">
        <ele>231.453066</ele>
        <time>2024-05-11T11:06:16.000Z</time>
      </trkpt>
      <trkpt lat="46.728942" lon="15.801537">
        <ele>231.386547</ele>
        <time>2024-05-11T11:06:18.000Z</time>
      </trkpt>
      <trkpt lat="46.728669" lon="15.801202">
        <ele>231.269105</ele>
        <time>2024-05-11T11:06:22.000Z</time>
      </trkpt>
      <trkpt lat="46.728479" lon="15.800937">
        <ele>231.178952</ele>
        <time>2024-05-11T11:06:25.000Z</time>
      </trkpt>
      <trkpt lat="46.728126" lon="15.800401">
        <ele>231.418363</ele>
        <time>2024-05-11T11:06:31.000Z</time>
      </trkpt>
      <trkpt lat="46.728007" lon="15.800236">
        <ele>231.519475</ele>
        <time>2024-05-11T11:06:33.000Z</time>
      </trkpt>
      <trkpt lat="46.727849" lon="15.800024">
        <ele>231.662147</ele>
        <time>2024-05-11T11:06:35.000Z</time>
      </trkpt>
      <trkpt lat="46.727682" lon="15.799852">
        <ele>231.78647</ele>
        <time>2024-05-11T11:06:37.000Z</time>
      </trkpt>
      <trkpt lat="46.727629" lon="15.799813">
        <ele>231.81866</ele>
        <time>2024-05-11T11:06:38.000Z</time>
      </trkpt>
      <trkpt lat="46.727526" lon="15.799723">
        <ele>231.898223</ele>
        <time>2024-05-11T11:06:39.000Z</time>
      </trkpt>
      <trkpt lat="46.727168" lon="15.799509">
        <ele>232.134733</ele>
        <time>2024-05-11T11:06:43.000Z</time>
      </trkpt>
      <trkpt lat="46.727007" lon="15.799453">
        <ele>232.236935</ele>
        <time>2024-05-11T11:06:45.000Z</time>
      </trkpt>
      <trkpt lat="46.726916" lon="15.79941">
        <ele>232.278951</ele>
        <time>2024-05-11T11:06:46.000Z</time>
      </trkpt>
      <trkpt lat="46.726837" lon="15.799392">
        <ele>232.308292</ele>
        <time>2024-05-11T11:06:47.000Z</time>
      </trkpt>
      <trkpt lat="46.727028" lon="15.798802">
        <ele>232.474774</ele>
        <time>2024-05-11T11:06:52.000Z</time>
      </trkpt>
      <trkpt lat="46.727084" lon="15.798465">
        <ele>232.561688</ele>
        <time>2024-05-11T11:06:55.000Z</time>
      </trkpt>
      <trkpt lat="46.727065" lon="15.798005">
        <ele>232.678151</ele>
        <time>2024-05-11T11:06:59.000Z</time>
      </trkpt>
      <trkpt lat="46.727057" lon="15.798">
        <ele>232.678149</ele>
        <time>2024-05-11T11:06:59.000Z</time>
      </trkpt>
      <trkpt lat="46.727054" lon="15.797631">
        <ele>232.773577</ele>
        <time>2024-05-11T11:07:02.000Z</time>
      </trkpt>
      <trkpt lat="46.727044" lon="15.797217">
        <ele>232.878102</ele>
        <time>2024-05-11T11:07:05.000Z</time>
      </trkpt>
      <trkpt lat="46.72703" lon="15.796741">
        <ele>232.964007</ele>
        <time>2024-05-11T11:07:09.000Z</time>
      </trkpt>
      <trkpt lat="46.727047" lon="15.79644">
        <ele>233.005885</ele>
        <time>2024-05-11T11:07:11.000Z</time>
      </trkpt>
      <trkpt lat="46.727113" lon="15.796092">
        <ele>233.052878</ele>
        <time>2024-05-11T11:07:14.000Z</time>
      </trkpt>
      <trkpt lat="46.727232" lon="15.795789">
        <ele>233.098863</ele>
        <time>2024-05-11T11:07:17.000Z</time>
      </trkpt>
      <trkpt lat="46.727272" lon="15.795672">
        <ele>233.117065</ele>
        <time>2024-05-11T11:07:18.000Z</time>
      </trkpt>
      <trkpt lat="46.727372" lon="15.795389">
        <ele>233.159281</ele>
        <time>2024-05-11T11:07:20.000Z</time>
      </trkpt>
      <trkpt lat="46.727464" lon="15.795092">
        <ele>233.202517</ele>
        <time>2024-05-11T11:07:22.000Z</time>
      </trkpt>
      <trkpt lat="46.727684" lon="15.794481">
        <ele>233.308125</ele>
        <time>2024-05-11T11:07:27.000Z</time>
      </trkpt>
      <trkpt lat="46.727732" lon="15.794305">
        <ele>233.349461</ele>
        <time>2024-05-11T11:07:28.000Z</time>
      </trkpt>
      <trkpt lat="46.727811" lon="15.794004">
        <ele>233.421481</ele>
        <time>2024-05-11T11:07:30.000Z</time>
      </trkpt>
      <trkpt lat="46.727855" lon="15.79389">
        <ele>233.451908</ele>
        <time>2024-05-11T11:07:31.000Z</time>
      </trkpt>
      <trkpt lat="46.72788" lon="15.793797">
        <ele>233.473305</ele>
        <time>2024-05-11T11:07:32.000Z</time>
      </trkpt>
      <trkpt lat="46.72792" lon="15.793661">
        <ele>233.50781</ele>
        <time>2024-05-11T11:07:33.000Z</time>
      </trkpt>
      <trkpt lat="46.727966" lon="15.793512">
        <ele>233.543884</ele>
        <time>2024-05-11T11:07:34.000Z</time>
      </trkpt>
      <trkpt lat="46.728001" lon="15.793426">
        <ele>233.568298</ele>
        <time>2024-05-11T11:07:35.000Z</time>
      </trkpt>
      <trkpt lat="46.728078" lon="15.793183">
        <ele>233.628453</ele>
        <time>2024-05-11T11:07:37.000Z</time>
      </trkpt>
      <trkpt lat="46.728193" lon="15.792929">
        <ele>233.697315</ele>
        <time>2024-05-11T11:07:39.000Z</time>
      </trkpt>
      <trkpt lat="46.728345" lon="15.792583">
        <ele>233.789506</ele>
        <time>2024-05-11T11:07:42.000Z</time>
      </trkpt>
      <trkpt lat="46.728446" lon="15.792289">
        <ele>233.862373</ele>
        <time>2024-05-11T11:07:45.000Z</time>
      </trkpt>
      <trkpt lat="46.72858" lon="15.791843">
        <ele>233.935929</ele>
        <time>2024-05-11T11:07:49.000Z</time>
      </trkpt>
      <trkpt lat="46.728603" lon="15.791729">
        <ele>233.953084</ele>
        <time>2024-05-11T11:07:50.000Z</time>
      </trkpt>
      <trkpt lat="46.728688" lon="15.791499">
        <ele>233.991348</ele>
        <time>2024-05-11T11:07:52.000Z</time>
      </trkpt>
      <trkpt lat="46.728776" lon="15.791163">
        <ele>234.043</ele>
        <time>2024-05-11T11:07:55.000Z</time>
      </trkpt>
      <trkpt lat="46.728867" lon="15.790911">
        <ele>234.085679</ele>
        <time>2024-05-11T11:07:57.000Z</time>
      </trkpt>
      <trkpt lat="46.729074" lon="15.790366">
        <ele>234.17616</ele>
        <time>2024-05-11T11:08:02.000Z</time>
      </trkpt>
      <trkpt lat="46.729101" lon="15.790333">
        <ele>234.182655</ele>
        <time>2024-05-11T11:08:02.000Z</time>
      </trkpt>
      <trkpt lat="46.729124" lon="15.790259">
        <ele>234.196283</ele>
        <time>2024-05-11T11:08:03.000Z</time>
      </trkpt>
      <trkpt lat="46.72919" lon="15.790176">
        <ele>234.21428</ele>
        <time>2024-05-11T11:08:04.000Z</time>
      </trkpt>
      <trkpt lat="46.729254" lon="15.790158">
        <ele>234.228828</ele>
        <time>2024-05-11T11:08:05.000Z</time>
      </trkpt>
      <trkpt lat="46.729351" lon="15.79019">
        <ele>234.24894</ele>
        <time>2024-05-11T11:08:06.000Z</time>
      </trkpt>
      <trkpt lat="46.729767" lon="15.79047">
        <ele>234.210532</ele>
        <time>2024-05-11T11:08:11.000Z</time>
      </trkpt>
      <trkpt lat="46.730253" lon="15.790809">
        <ele>234.159271</ele>
        <time>2024-05-11T11:08:17.000Z</time>
      </trkpt>
      <trkpt lat="46.730408" lon="15.790854">
        <ele>234.145859</ele>
        <time>2024-05-11T11:08:19.000Z</time>
      </trkpt>
      <trkpt lat="46.730499" lon="15.790877">
        <ele>234.13604</ele>
        <time>2024-05-11T11:08:20.000Z</time>
      </trkpt>
      <trkpt lat="46.73065" lon="15.790847">
        <ele>234.122894</ele>
        <time>2024-05-11T11:08:22.000Z</time>
      </trkpt>
      <trkpt lat="46.730773" lon="15.790768">
        <ele>234.109741</ele>
        <time>2024-05-11T11:08:23.000Z</time>
      </trkpt>
      <trkpt lat="46.731179" lon="15.79055">
        <ele>234.075254</ele>
        <time>2024-05-11T11:08:28.000Z</time>
      </trkpt>
      <trkpt lat="46.73168" lon="15.790101">
        <ele>234.042731</ele>
        <time>2024-05-11T11:08:35.000Z</time>
      </trkpt>
      <trkpt lat="46.732347" lon="15.789327">
        <ele>233.994394</ele>
        <time>2024-05-11T11:08:44.000Z</time>
      </trkpt>
      <trkpt lat="46.733004" lon="15.788517">
        <ele>234.193737</ele>
        <time>2024-05-11T11:08:54.000Z</time>
      </trkpt>
      <trkpt lat="46.73527" lon="15.785793">
        <ele>235.460599</ele>
        <time>2024-05-11T11:09:27.000Z</time>
      </trkpt>
      <trkpt lat="46.73605" lon="15.784892">
        <ele>236.43167</ele>
        <time>2024-05-11T11:09:38.000Z</time>
      </trkpt>
      <trkpt lat="46.736067" lon="15.784863">
        <ele>236.461837</ele>
        <time>2024-05-11T11:09:38.000Z</time>
      </trkpt>
      <trkpt lat="46.737934" lon="15.782813">
        <ele>238.368081</ele>
        <time>2024-05-11T11:10:04.000Z</time>
      </trkpt>
      <trkpt lat="46.738261" lon="15.782455">
        <ele>238.634743</ele>
        <time>2024-05-11T11:10:09.000Z</time>
      </trkpt>
      <trkpt lat="46.738565" lon="15.782125">
        <ele>238.843405</ele>
        <time>2024-05-11T11:10:13.000Z</time>
      </trkpt>
      <trkpt lat="46.738777" lon="15.781891">
        <ele>238.995787</ele>
        <time>2024-05-11T11:10:16.000Z</time>
      </trkpt>
      <trkpt lat="46.739149" lon="15.78149">
        <ele>239.249653</ele>
        <time>2024-05-11T11:10:21.000Z</time>
      </trkpt>
      <trkpt lat="46.739541" lon="15.781045">
        <ele>239.524586</ele>
        <time>2024-05-11T11:10:27.000Z</time>
      </trkpt>
      <trkpt lat="46.739738" lon="15.780826">
        <ele>240.018724</ele>
        <time>2024-05-11T11:10:30.000Z</time>
      </trkpt>
      <trkpt lat="46.739858" lon="15.78066">
        <ele>240.400152</ele>
        <time>2024-05-11T11:10:32.000Z</time>
      </trkpt>
      <trkpt lat="46.739951" lon="15.780464">
        <ele>240.792356</ele>
        <time>2024-05-11T11:10:34.000Z</time>
      </trkpt>
      <trkpt lat="46.739971" lon="15.780373">
        <ele>240.953519</ele>
        <time>2024-05-11T11:10:35.000Z</time>
      </trkpt>
      <trkpt lat="46.740194" lon="15.780258">
        <ele>241.497902</ele>
        <time>2024-05-11T11:10:38.000Z</time>
      </trkpt>
      <trkpt lat="46.740238" lon="15.780215">
        <ele>241.612316</ele>
        <time>2024-05-11T11:10:39.000Z</time>
      </trkpt>
      <trkpt lat="46.740408" lon="15.780107">
        <ele>242.051392</ele>
        <time>2024-05-11T11:10:41.000Z</time>
      </trkpt>
      <trkpt lat="46.741103" lon="15.779602">
        <ele>243.721013</ele>
        <time>2024-05-11T11:10:50.000Z</time>
      </trkpt>
      <trkpt lat="46.741906" lon="15.779191">
        <ele>244.349534</ele>
        <time>2024-05-11T11:10:59.000Z</time>
      </trkpt>
      <trkpt lat="46.74446" lon="15.77806">
        <ele>244.28074</ele>
        <time>2024-05-11T11:11:29.000Z</time>
      </trkpt>
      <trkpt lat="46.744965" lon="15.777861">
        <ele>244.326732</ele>
        <time>2024-05-11T11:11:35.000Z</time>
      </trkpt>
      <trkpt lat="46.745249" lon="15.77773">
        <ele>244.357785</ele>
        <time>2024-05-11T11:11:38.000Z</time>
      </trkpt>
      <trkpt lat="46.745999" lon="15.777403">
        <ele>244.438039</ele>
        <time>2024-05-11T11:11:47.000Z</time>
      </trkpt>
      <trkpt lat="46.746739" lon="15.777093">
        <ele>244.897733</ele>
        <time>2024-05-11T11:11:56.000Z</time>
      </trkpt>
      <trkpt lat="46.747274" lon="15.776934">
        <ele>245.314964</ele>
        <time>2024-05-11T11:12:02.000Z</time>
      </trkpt>
      <trkpt lat="46.747685" lon="15.776835">
        <ele>245.6364</ele>
        <time>2024-05-11T11:12:07.000Z</time>
      </trkpt>
      <trkpt lat="46.747983" lon="15.776816">
        <ele>245.878081</ele>
        <time>2024-05-11T11:12:10.000Z</time>
      </trkpt>
      <trkpt lat="46.748531" lon="15.776804">
        <ele>246.762211</ele>
        <time>2024-05-11T11:12:16.000Z</time>
      </trkpt>
      <trkpt lat="46.749051" lon="15.776872">
        <ele>247.608094</ele>
        <time>2024-05-11T11:12:22.000Z</time>
      </trkpt>
      <trkpt lat="46.749233" lon="15.776926">
        <ele>247.910855</ele>
        <time>2024-05-11T11:12:24.000Z</time>
      </trkpt>
      <trkpt lat="46.749511" lon="15.777019">
        <ele>248.37173</ele>
        <time>2024-05-11T11:12:27.000Z</time>
      </trkpt>
      <trkpt lat="46.749657" lon="15.777059">
        <ele>248.601949</ele>
        <time>2024-05-11T11:12:29.000Z</time>
      </trkpt>
      <trkpt lat="46.749703" lon="15.777073">
        <ele>248.695193</ele>
        <time>2024-05-11T11:12:30.000Z</time>
      </trkpt>
      <trkpt lat="46.749778" lon="15.777068">
        <ele>248.770513</ele>
        <time>2024-05-11T11:12:31.000Z</time>
      </trkpt>
      <trkpt lat="46.750113" lon="15.777143">
        <ele>248.994927</ele>
        <time>2024-05-11T11:12:35.000Z</time>
      </trkpt>
      <trkpt lat="46.750475" lon="15.777162">
        <ele>249.237349</ele>
        <time>2024-05-11T11:12:39.000Z</time>
      </trkpt>
      <trkpt lat="46.750506" lon="15.777155">
        <ele>249.255391</ele>
        <time>2024-05-11T11:12:39.000Z</time>
      </trkpt>
      <trkpt lat="46.750714" lon="15.777128">
        <ele>249.405255</ele>
        <time>2024-05-11T11:12:41.000Z</time>
      </trkpt>
      <trkpt lat="46.751049" lon="15.777042">
        <ele>249.628014</ele>
        <time>2024-05-11T11:12:45.000Z</time>
      </trkpt>
      <trkpt lat="46.75143" lon="15.776862">
        <ele>249.891323</ele>
        <time>2024-05-11T11:12:49.000Z</time>
      </trkpt>
      <trkpt lat="46.752096" lon="15.776573">
        <ele>249.987414</ele>
        <time>2024-05-11T11:12:57.000Z</time>
      </trkpt>
      <trkpt lat="46.752341" lon="15.776451">
        <ele>250.004827</ele>
        <time>2024-05-11T11:13:00.000Z</time>
      </trkpt>
      <trkpt lat="46.752551" lon="15.776396">
        <ele>250.017502</ele>
        <time>2024-05-11T11:13:02.000Z</time>
      </trkpt>
      <trkpt lat="46.752871" lon="15.77629">
        <ele>250.039057</ele>
        <time>2024-05-11T11:13:06.000Z</time>
      </trkpt>
      <trkpt lat="46.753099" lon="15.776231">
        <ele>250.054319</ele>
        <time>2024-05-11T11:13:09.000Z</time>
      </trkpt>
      <trkpt lat="46.753134" lon="15.776217">
        <ele>250.056015</ele>
        <time>2024-05-11T11:13:09.000Z</time>
      </trkpt>
      <trkpt lat="46.75349" lon="15.776097">
        <ele>250.115502</ele>
        <time>2024-05-11T11:13:13.000Z</time>
      </trkpt>
      <trkpt lat="46.753575" lon="15.776055">
        <ele>250.132709</ele>
        <time>2024-05-11T11:13:14.000Z</time>
      </trkpt>
      <trkpt lat="46.753595" lon="15.776052">
        <ele>250.137411</ele>
        <time>2024-05-11T11:13:14.000Z</time>
      </trkpt>
      <trkpt lat="46.75399" lon="15.775821">
        <ele>250.228568</ele>
        <time>2024-05-11T11:13:19.000Z</time>
      </trkpt>
      <trkpt lat="46.754072" lon="15.775759">
        <ele>250.247971</ele>
        <time>2024-05-11T11:13:20.000Z</time>
      </trkpt>
      <trkpt lat="46.754464" lon="15.775484">
        <ele>250.337027</ele>
        <time>2024-05-11T11:13:25.000Z</time>
      </trkpt>
      <trkpt lat="46.756201" lon="15.773674">
        <ele>250.383244</ele>
        <time>2024-05-11T11:13:49.000Z</time>
      </trkpt>
      <trkpt lat="46.756408" lon="15.773468">
        <ele>250.283004</ele>
        <time>2024-05-11T11:13:52.000Z</time>
      </trkpt>
      <trkpt lat="46.757088" lon="15.772807">
        <ele>249.464707</ele>
        <time>2024-05-11T11:14:01.000Z</time>
      </trkpt>
      <trkpt lat="46.757218" lon="15.772687">
        <ele>249.303183</ele>
        <time>2024-05-11T11:14:03.000Z</time>
      </trkpt>
      <trkpt lat="46.757276" lon="15.772602">
        <ele>249.220774</ele>
        <time>2024-05-11T11:14:04.000Z</time>
      </trkpt>
      <trkpt lat="46.757596" lon="15.772237">
        <ele>248.814056</ele>
        <time>2024-05-11T11:14:09.000Z</time>
      </trkpt>
      <trkpt lat="46.757666" lon="15.772157">
        <ele>248.730334</ele>
        <time>2024-05-11T11:14:10.000Z</time>
      </trkpt>
      <trkpt lat="46.757821" lon="15.771979">
        <ele>248.514704</ele>
        <time>2024-05-11T11:14:12.000Z</time>
      </trkpt>
      <trkpt lat="46.757912" lon="15.771889">
        <ele>248.404134</ele>
        <time>2024-05-11T11:14:13.000Z</time>
      </trkpt>
      <trkpt lat="46.75836" lon="15.771436">
        <ele>247.826078</ele>
        <time>2024-05-11T11:14:19.000Z</time>
      </trkpt>
      <trkpt lat="46.758731" lon="15.771092">
        <ele>247.369452</ele>
        <time>2024-05-11T11:14:24.000Z</time>
      </trkpt>
      <trkpt lat="46.758779" lon="15.771035">
        <ele>247.307692</ele>
        <time>2024-05-11T11:14:25.000Z</time>
      </trkpt>
      <trkpt lat="46.759612" lon="15.770341">
        <ele>246.595845</ele>
        <time>2024-05-11T11:14:36.000Z</time>
      </trkpt>
      <trkpt lat="46.760357" lon="15.76993">
        <ele>246.429795</ele>
        <time>2024-05-11T11:14:45.000Z</time>
      </trkpt>
      <trkpt lat="46.760913" lon="15.769695">
        <ele>246.308404</ele>
        <time>2024-05-11T11:14:51.000Z</time>
      </trkpt>
      <trkpt lat="46.762091" lon="15.769537">
        <ele>246.475214</ele>
        <time>2024-05-11T11:15:04.000Z</time>
      </trkpt>
      <trkpt lat="46.763155" lon="15.769578">
        <ele>246.710583</ele>
        <time>2024-05-11T11:15:16.000Z</time>
      </trkpt>
      <trkpt lat="46.763351" lon="15.769597">
        <ele>246.780421</ele>
        <time>2024-05-11T11:15:18.000Z</time>
      </trkpt>
      <trkpt lat="46.763446" lon="15.769614">
        <ele>246.811812</ele>
        <time>2024-05-11T11:15:19.000Z</time>
      </trkpt>
      <trkpt lat="46.763586" lon="15.769636">
        <ele>246.855052</ele>
        <time>2024-05-11T11:15:21.000Z</time>
      </trkpt>
      <trkpt lat="46.767132" lon="15.770024">
        <ele>248.267502</ele>
        <time>2024-05-11T11:16:01.000Z</time>
      </trkpt>
      <trkpt lat="46.768073" lon="15.770042">
        <ele>248.718099</ele>
        <time>2024-05-11T11:16:11.000Z</time>
      </trkpt>
      <trkpt lat="46.768933" lon="15.769961">
        <ele>249.242079</ele>
        <time>2024-05-11T11:16:21.000Z</time>
      </trkpt>
      <trkpt lat="46.769472" lon="15.769855">
        <ele>249.576892</ele>
        <time>2024-05-11T11:16:27.000Z</time>
      </trkpt>
      <trkpt lat="46.771321" lon="15.769424">
        <ele>250.632325</ele>
        <time>2024-05-11T11:16:48.000Z</time>
      </trkpt>
      <trkpt lat="46.772013" lon="15.769272">
        <ele>250.981648</ele>
        <time>2024-05-11T11:16:56.000Z</time>
      </trkpt>
      <trkpt lat="46.772561" lon="15.769093">
        <ele>251.219663</ele>
        <time>2024-05-11T11:17:02.000Z</time>
      </trkpt>
      <trkpt lat="46.772844" lon="15.769008">
        <ele>251.341688</ele>
        <time>2024-05-11T11:17:05.000Z</time>
      </trkpt>
      <trkpt lat="46.773682" lon="15.768728">
        <ele>251.668738</ele>
        <time>2024-05-11T11:17:15.000Z</time>
      </trkpt>
      <trkpt lat="46.77457" lon="15.768255">
        <ele>251.907527</ele>
        <time>2024-05-11T11:17:26.000Z</time>
      </trkpt>
      <trkpt lat="46.774983" lon="15.767957">
        <ele>252.022654</ele>
        <time>2024-05-11T11:17:31.000Z</time>
      </trkpt>
      <trkpt lat="46.775324" lon="15.767826">
        <ele>252.071107</ele>
        <time>2024-05-11T11:17:35.000Z</time>
      </trkpt>
      <trkpt lat="46.775648" lon="15.767784">
        <ele>252.080069</ele>
        <time>2024-05-11T11:17:39.000Z</time>
      </trkpt>
      <trkpt lat="46.77582" lon="15.767785">
        <ele>252.084793</ele>
        <time>2024-05-11T11:17:41.000Z</time>
      </trkpt>
      <trkpt lat="46.775921" lon="15.767813">
        <ele>252.087646</ele>
        <time>2024-05-11T11:17:42.000Z</time>
      </trkpt>
      <trkpt lat="46.776171" lon="15.767879">
        <ele>252.094992</ele>
        <time>2024-05-11T11:17:45.000Z</time>
      </trkpt>
      <trkpt lat="46.776839" lon="15.768078">
        <ele>252.113552</ele>
        <time>2024-05-11T11:17:53.000Z</time>
      </trkpt>
      <trkpt lat="46.777072" lon="15.768065">
        <ele>252.177886</ele>
        <time>2024-05-11T11:17:56.000Z</time>
      </trkpt>
      <trkpt lat="46.777326" lon="15.767985">
        <ele>252.286886</ele>
        <time>2024-05-11T11:17:59.000Z</time>
      </trkpt>
      <trkpt lat="46.777741" lon="15.767818">
        <ele>252.481234</ele>
        <time>2024-05-11T11:18:04.000Z</time>
      </trkpt>
      <trkpt lat="46.778182" lon="15.767667">
        <ele>252.67026</ele>
        <time>2024-05-11T11:18:09.000Z</time>
      </trkpt>
      <trkpt lat="46.778258" lon="15.767635">
        <ele>252.707782</ele>
        <time>2024-05-11T11:18:10.000Z</time>
      </trkpt>
      <trkpt lat="46.778399" lon="15.767582">
        <ele>252.77124</ele>
        <time>2024-05-11T11:18:12.000Z</time>
      </trkpt>
      <trkpt lat="46.778606" lon="15.767454">
        <ele>252.868684</ele>
        <time>2024-05-11T11:18:14.000Z</time>
      </trkpt>
      <trkpt lat="46.778654" lon="15.767399">
        <ele>252.895842</ele>
        <time>2024-05-11T11:18:15.000Z</time>
      </trkpt>
      <trkpt lat="46.778692" lon="15.767363">
        <ele>252.928914</ele>
        <time>2024-05-11T11:18:16.000Z</time>
      </trkpt>
      <trkpt lat="46.778922" lon="15.767111">
        <ele>253.118745</ele>
        <time>2024-05-11T11:18:19.000Z</time>
      </trkpt>
      <trkpt lat="46.778956" lon="15.767069">
        <ele>253.142066</ele>
        <time>2024-05-11T11:18:19.000Z</time>
      </trkpt>
      <trkpt lat="46.779152" lon="15.766758">
        <ele>253.340083</ele>
        <time>2024-05-11T11:18:22.000Z</time>
      </trkpt>
      <trkpt lat="46.779325" lon="15.766499">
        <ele>253.505059</ele>
        <time>2024-05-11T11:18:25.000Z</time>
      </trkpt>
      <trkpt lat="46.779472" lon="15.766265">
        <ele>253.654284</ele>
        <time>2024-05-11T11:18:27.000Z</time>
      </trkpt>
      <trkpt lat="46.779777" lon="15.766481">
        <ele>253.876678</ele>
        <time>2024-05-11T11:18:31.000Z</time>
      </trkpt>
      <trkpt lat="46.779986" lon="15.766612">
        <ele>254.029429</ele>
        <time>2024-05-11T11:18:34.000Z</time>
      </trkpt>
      <trkpt lat="46.780001" lon="15.766629">
        <ele>254.037496</ele>
        <time>2024-05-11T11:18:34.000Z</time>
      </trkpt>
      <trkpt lat="46.78018" lon="15.766795">
        <ele>254.185141</ele>
        <time>2024-05-11T11:18:36.000Z</time>
      </trkpt>
      <trkpt lat="46.780294" lon="15.767006">
        <ele>254.313142</ele>
        <time>2024-05-11T11:18:38.000Z</time>
      </trkpt>
      <trkpt lat="46.780347" lon="15.767149">
        <ele>254.394806</ele>
        <time>2024-05-11T11:18:39.000Z</time>
      </trkpt>
      <trkpt lat="46.780511" lon="15.767569">
        <ele>254.613287</ele>
        <time>2024-05-11T11:18:43.000Z</time>
      </trkpt>
      <trkpt lat="46.780599" lon="15.767642">
        <ele>254.681154</ele>
        <time>2024-05-11T11:18:44.000Z</time>
      </trkpt>
      <trkpt lat="46.780736" lon="15.767694">
        <ele>254.776487</ele>
        <time>2024-05-11T11:18:46.000Z</time>
      </trkpt>
      <trkpt lat="46.781108" lon="15.767604">
        <ele>255.036754</ele>
        <time>2024-05-11T11:18:50.000Z</time>
      </trkpt>
      <trkpt lat="46.781156" lon="15.767628">
        <ele>255.073014</ele>
        <time>2024-05-11T11:18:51.000Z</time>
      </trkpt>
      <trkpt lat="46.781334" lon="15.767674">
        <ele>255.204312</ele>
        <time>2024-05-11T11:18:53.000Z</time>
      </trkpt>
      <trkpt lat="46.781492" lon="15.76772">
        <ele>255.314432</ele>
        <time>2024-05-11T11:18:55.000Z</time>
      </trkpt>
      <trkpt lat="46.781547" lon="15.767731">
        <ele>255.37404</ele>
        <time>2024-05-11T11:18:56.000Z</time>
      </trkpt>
      <trkpt lat="46.781728" lon="15.767795">
        <ele>256.062675</ele>
        <time>2024-05-11T11:18:58.000Z</time>
      </trkpt>
      <trkpt lat="46.78178" lon="15.767827">
        <ele>256.267869</ele>
        <time>2024-05-11T11:18:59.000Z</time>
      </trkpt>
      <trkpt lat="46.781924" lon="15.767926">
        <ele>256.85866</ele>
        <time>2024-05-11T11:19:01.000Z</time>
      </trkpt>
      <trkpt lat="46.782024" lon="15.768023">
        <ele>257.364405</ele>
        <time>2024-05-11T11:19:02.000Z</time>
      </trkpt>
      <trkpt lat="46.782118" lon="15.768231">
        <ele>257.994208</ele>
        <time>2024-05-11T11:19:04.000Z</time>
      </trkpt>
      <trkpt lat="46.782299" lon="15.768816">
        <ele>259.665229</ele>
        <time>2024-05-11T11:19:09.000Z</time>
      </trkpt>
      <trkpt lat="46.782503" lon="15.76906">
        <ele>260.64166</ele>
        <time>2024-05-11T11:19:12.000Z</time>
      </trkpt>
      <trkpt lat="46.783355" lon="15.769599">
        <ele>265.72825</ele>
        <time>2024-05-11T11:19:22.000Z</time>
      </trkpt>
      <trkpt lat="46.783906" lon="15.770053">
        <ele>270.116683</ele>
        <time>2024-05-11T11:19:29.000Z</time>
      </trkpt>
      <trkpt lat="46.785079" lon="15.770701">
        <ele>275.717085</ele>
        <time>2024-05-11T11:19:43.000Z</time>
      </trkpt>
      <trkpt lat="46.785237" lon="15.770784">
        <ele>276.05436</ele>
        <time>2024-05-11T11:19:45.000Z</time>
      </trkpt>
      <trkpt lat="46.785423" lon="15.770886">
        <ele>276.471604</ele>
        <time>2024-05-11T11:19:47.000Z</time>
      </trkpt>
      <trkpt lat="46.785691" lon="15.77103">
        <ele>277.062441</ele>
        <time>2024-05-11T11:19:50.000Z</time>
      </trkpt>
      <trkpt lat="46.785756" lon="15.771061">
        <ele>277.177878</ele>
        <time>2024-05-11T11:19:51.000Z</time>
      </trkpt>
      <trkpt lat="46.785862" lon="15.77108">
        <ele>277.398354</ele>
        <time>2024-05-11T11:19:52.000Z</time>
      </trkpt>
      <trkpt lat="46.786286" lon="15.771187">
        <ele>277.903583</ele>
        <time>2024-05-11T11:19:57.000Z</time>
      </trkpt>
      <trkpt lat="46.78632" lon="15.771199">
        <ele>277.837597</ele>
        <time>2024-05-11T11:19:57.000Z</time>
      </trkpt>
      <trkpt lat="46.78662" lon="15.771312">
        <ele>277.160133</ele>
        <time>2024-05-11T11:20:00.000Z</time>
      </trkpt>
      <trkpt lat="46.786886" lon="15.771478">
        <ele>276.543843</ele>
        <time>2024-05-11T11:20:03.000Z</time>
      </trkpt>
      <trkpt lat="46.786955" lon="15.771524">
        <ele>276.361419</ele>
        <time>2024-05-11T11:20:04.000Z</time>
      </trkpt>
      <trkpt lat="46.787191" lon="15.771607">
        <ele>275.818738</ele>
        <time>2024-05-11T11:20:07.000Z</time>
      </trkpt>
      <trkpt lat="46.787254" lon="15.771606">
        <ele>275.685416</ele>
        <time>2024-05-11T11:20:08.000Z</time>
      </trkpt>
      <trkpt lat="46.787581" lon="15.771662">
        <ele>274.9921</ele>
        <time>2024-05-11T11:20:12.000Z</time>
      </trkpt>
      <trkpt lat="46.787585" lon="15.771675">
        <ele>274.955055</ele>
        <time>2024-05-11T11:20:12.000Z</time>
      </trkpt>
      <trkpt lat="46.787756" lon="15.771688">
        <ele>274.616816</ele>
        <time>2024-05-11T11:20:14.000Z</time>
      </trkpt>
      <trkpt lat="46.787843" lon="15.771711">
        <ele>274.396484</ele>
        <time>2024-05-11T11:20:15.000Z</time>
      </trkpt>
      <trkpt lat="46.78798" lon="15.771722">
        <ele>274.265975</ele>
        <time>2024-05-11T11:20:17.000Z</time>
      </trkpt>
      <trkpt lat="46.788145" lon="15.771753">
        <ele>274.739633</ele>
        <time>2024-05-11T11:20:19.000Z</time>
      </trkpt>
      <trkpt lat="46.788166" lon="15.771753">
        <ele>274.785134</ele>
        <time>2024-05-11T11:20:19.000Z</time>
      </trkpt>
      <trkpt lat="46.788345" lon="15.771804">
        <ele>275.262989</ele>
        <time>2024-05-11T11:20:21.000Z</time>
      </trkpt>
      <trkpt lat="46.7887" lon="15.771931">
        <ele>276.234711</ele>
        <time>2024-05-11T11:20:25.000Z</time>
      </trkpt>
      <trkpt lat="46.789018" lon="15.772049">
        <ele>277.124328</ele>
        <time>2024-05-11T11:20:29.000Z</time>
      </trkpt>
      <trkpt lat="46.789783" lon="15.772204">
        <ele>279.381162</ele>
        <time>2024-05-11T11:20:38.000Z</time>
      </trkpt>
      <trkpt lat="46.789909" lon="15.772311">
        <ele>280.213709</ele>
        <time>2024-05-11T11:20:40.000Z</time>
      </trkpt>
      <trkpt lat="46.790281" lon="15.772625">
        <ele>282.681986</ele>
        <time>2024-05-11T11:20:45.000Z</time>
      </trkpt>
      <trkpt lat="46.79038" lon="15.77271">
        <ele>283.318401</ele>
        <time>2024-05-11T11:20:46.000Z</time>
      </trkpt>
      <trkpt lat="46.790389" lon="15.772739">
        <ele>283.421792</ele>
        <time>2024-05-11T11:20:46.000Z</time>
      </trkpt>
      <trkpt lat="46.790649" lon="15.773033">
        <ele>285.231147</ele>
        <time>2024-05-11T11:20:50.000Z</time>
      </trkpt>
      <trkpt lat="46.790828" lon="15.77343">
        <ele>287.152857</ele>
        <time>2024-05-11T11:20:54.000Z</time>
      </trkpt>
      <trkpt lat="46.790992" lon="15.773916">
        <ele>289.202295</ele>
        <time>2024-05-11T11:20:58.000Z</time>
      </trkpt>
      <trkpt lat="46.791083" lon="15.774286">
        <ele>290.250732</ele>
        <time>2024-05-11T11:21:01.000Z</time>
      </trkpt>
      <trkpt lat="46.791233" lon="15.774657">
        <ele>291.381065</ele>
        <time>2024-05-11T11:21:04.000Z</time>
      </trkpt>
      <trkpt lat="46.791983" lon="15.775837">
        <ele>295.588059</ele>
        <time>2024-05-11T11:21:16.000Z</time>
      </trkpt>
      <trkpt lat="46.792451" lon="15.776411">
        <ele>295.639576</ele>
        <time>2024-05-11T11:21:23.000Z</time>
      </trkpt>
      <trkpt lat="46.792612" lon="15.776868">
        <ele>295.334961</ele>
        <time>2024-05-11T11:21:27.000Z</time>
      </trkpt>
      <trkpt lat="46.792777" lon="15.778239">
        <ele>294.497228</ele>
        <time>2024-05-11T11:21:38.000Z</time>
      </trkpt>
      <trkpt lat="46.792987" lon="15.778781">
        <ele>290.919537</ele>
        <time>2024-05-11T11:21:43.000Z</time>
      </trkpt>
      <trkpt lat="46.79323" lon="15.77918">
        <ele>287.847785</ele>
        <time>2024-05-11T11:21:47.000Z</time>
      </trkpt>
      <trkpt lat="46.793328" lon="15.779271">
        <ele>286.887518</ele>
        <time>2024-05-11T11:21:48.000Z</time>
      </trkpt>
      <trkpt lat="46.793416" lon="15.779372">
        <ele>285.882583</ele>
        <time>2024-05-11T11:21:49.000Z</time>
      </trkpt>
      <trkpt lat="46.793552" lon="15.779434">
        <ele>284.739051</ele>
        <time>2024-05-11T11:21:51.000Z</time>
      </trkpt>
      <trkpt lat="46.7938" lon="15.779436">
        <ele>282.600357</ele>
        <time>2024-05-11T11:21:54.000Z</time>
      </trkpt>
      <trkpt lat="46.794128" lon="15.779282">
        <ele>279.700845</ele>
        <time>2024-05-11T11:21:58.000Z</time>
      </trkpt>
      <trkpt lat="46.794185" lon="15.779264">
        <ele>279.252892</ele>
        <time>2024-05-11T11:21:59.000Z</time>
      </trkpt>
      <trkpt lat="46.794328" lon="15.779212">
        <ele>278.123076</ele>
        <time>2024-05-11T11:22:01.000Z</time>
      </trkpt>
      <trkpt lat="46.794706" lon="15.779177">
        <ele>275.435983</ele>
        <time>2024-05-11T11:22:05.000Z</time>
      </trkpt>
      <trkpt lat="46.794855" lon="15.779059">
        <ele>274.18033</ele>
        <time>2024-05-11T11:22:07.000Z</time>
      </trkpt>
      <trkpt lat="46.795009" lon="15.778875">
        <ele>272.660413</ele>
        <time>2024-05-11T11:22:09.000Z</time>
      </trkpt>
      <trkpt lat="46.795263" lon="15.778584">
        <ele>270.359904</ele>
        <time>2024-05-11T11:22:13.000Z</time>
      </trkpt>
      <trkpt lat="46.795403" lon="15.778481">
        <ele>269.262145</ele>
        <time>2024-05-11T11:22:15.000Z</time>
      </trkpt>
      <trkpt lat="46.795486" lon="15.77845">
        <ele>268.647789</ele>
        <time>2024-05-11T11:22:16.000Z</time>
      </trkpt>
      <trkpt lat="46.795537" lon="15.778442">
        <ele>268.284267</ele>
        <time>2024-05-11T11:22:17.000Z</time>
      </trkpt>
      <trkpt lat="46.795713" lon="15.778583">
        <ele>266.739925</ele>
        <time>2024-05-11T11:22:19.000Z</time>
      </trkpt>
      <trkpt lat="46.795896" lon="15.778892">
        <ele>266.181149</ele>
        <time>2024-05-11T11:22:22.000Z</time>
      </trkpt>
      <trkpt lat="46.795945" lon="15.778969">
        <ele>266.187124</ele>
        <time>2024-05-11T11:22:23.000Z</time>
      </trkpt>
      <trkpt lat="46.796057" lon="15.779144">
        <ele>266.19901</ele>
        <time>2024-05-11T11:22:25.000Z</time>
      </trkpt>
      <trkpt lat="46.79618" lon="15.779334">
        <ele>266.211572</ele>
        <time>2024-05-11T11:22:27.000Z</time>
      </trkpt>
      <trkpt lat="46.796277" lon="15.779508">
        <ele>266.223526</ele>
        <time>2024-05-11T11:22:29.000Z</time>
      </trkpt>
      <trkpt lat="46.796394" lon="15.779634">
        <ele>266.2345</ele>
        <time>2024-05-11T11:22:31.000Z</time>
      </trkpt>
      <trkpt lat="46.796618" lon="15.779709">
        <ele>266.251234</ele>
        <time>2024-05-11T11:22:34.000Z</time>
      </trkpt>
      <trkpt lat="46.796754" lon="15.779672">
        <ele>266.261471</ele>
        <time>2024-05-11T11:22:36.000Z</time>
      </trkpt>
      <trkpt lat="46.796989" lon="15.779473">
        <ele>266.281843</ele>
        <time>2024-05-11T11:22:39.000Z</time>
      </trkpt>
      <trkpt lat="46.797304" lon="15.779214">
        <ele>266.380993</ele>
        <time>2024-05-11T11:22:43.000Z</time>
      </trkpt>
      <trkpt lat="46.797384" lon="15.779585">
        <ele>266.599939</ele>
        <time>2024-05-11T11:22:46.000Z</time>
      </trkpt>
      <trkpt lat="46.79762" lon="15.780713">
        <ele>267.263248</ele>
        <time>2024-05-11T11:22:55.000Z</time>
      </trkpt>
      <trkpt lat="46.797697" lon="15.782155">
        <ele>268.036763</ele>
        <time>2024-05-11T11:23:06.000Z</time>
      </trkpt>
      <trkpt lat="46.797698" lon="15.782246">
        <ele>268.081882</ele>
        <time>2024-05-11T11:23:07.000Z</time>
      </trkpt>
      <trkpt lat="46.797828" lon="15.782987">
        <ele>268.437708</ele>
        <time>2024-05-11T11:23:13.000Z</time>
      </trkpt>
      <trkpt lat="46.798007" lon="15.783703">
        <ele>268.793248</ele>
        <time>2024-05-11T11:23:19.000Z</time>
      </trkpt>
      <trkpt lat="46.79807" lon="15.783905">
        <ele>268.89305</ele>
        <time>2024-05-11T11:23:21.000Z</time>
      </trkpt>
      <trkpt lat="46.798138" lon="15.784068">
        <ele>268.9831</ele>
        <time>2024-05-11T11:23:22.000Z</time>
      </trkpt>
      <trkpt lat="46.79863" lon="15.785172">
        <ele>269.633948</ele>
        <time>2024-05-11T11:23:32.000Z</time>
      </trkpt>
      <trkpt lat="46.799375" lon="15.786559">
        <ele>270.50321</ele>
        <time>2024-05-11T11:23:45.000Z</time>
      </trkpt>
      <trkpt lat="46.799441" lon="15.786797">
        <ele>270.627991</ele>
        <time>2024-05-11T11:23:47.000Z</time>
      </trkpt>
      <trkpt lat="46.799617" lon="15.787253">
        <ele>270.885751</ele>
        <time>2024-05-11T11:23:51.000Z</time>
      </trkpt>
      <trkpt lat="46.799931" lon="15.788199">
        <ele>271.401765</ele>
        <time>2024-05-11T11:23:59.000Z</time>
      </trkpt>
      <trkpt lat="46.800614" lon="15.789268">
        <ele>271.866649</ele>
        <time>2024-05-11T11:24:10.000Z</time>
      </trkpt>
      <trkpt lat="46.800872" lon="15.789859">
        <ele>272.037185</ele>
        <time>2024-05-11T11:24:15.000Z</time>
      </trkpt>
      <trkpt lat="46.800947" lon="15.790093">
        <ele>272.103266</ele>
        <time>2024-05-11T11:24:17.000Z</time>
      </trkpt>
      <trkpt lat="46.801017" lon="15.790457">
        <ele>272.195833</ele>
        <time>2024-05-11T11:24:20.000Z</time>
      </trkpt>
      <trkpt lat="46.80114" lon="15.790881">
        <ele>272.250419</ele>
        <time>2024-05-11T11:24:24.000Z</time>
      </trkpt>
      <trkpt lat="46.801334" lon="15.791311">
        <ele>272.237245</ele>
        <time>2024-05-11T11:24:28.000Z</time>
      </trkpt>
      <trkpt lat="46.801544" lon="15.791602">
        <ele>272.226441</ele>
        <time>2024-05-11T11:24:31.000Z</time>
      </trkpt>
      <trkpt lat="46.801796" lon="15.791868">
        <ele>272.214595</ele>
        <time>2024-05-11T11:24:34.000Z</time>
      </trkpt>
      <trkpt lat="46.80358" lon="15.792828">
        <ele>272.115721</ele>
        <time>2024-05-11T11:24:55.000Z</time>
      </trkpt>
      <trkpt lat="46.805745" lon="15.794512">
        <ele>272.440518</ele>
        <time>2024-05-11T11:25:22.000Z</time>
      </trkpt>
      <trkpt lat="46.80618" lon="15.794742">
        <ele>272.746354</ele>
        <time>2024-05-11T11:25:27.000Z</time>
      </trkpt>
      <trkpt lat="46.806251" lon="15.79481">
        <ele>272.805499</ele>
        <time>2024-05-11T11:25:28.000Z</time>
      </trkpt>
      <trkpt lat="46.806343" lon="15.794882">
        <ele>272.877719</ele>
        <time>2024-05-11T11:25:29.000Z</time>
      </trkpt>
      <trkpt lat="46.806389" lon="15.794903">
        <ele>272.906493</ele>
        <time>2024-05-11T11:25:30.000Z</time>
      </trkpt>
      <trkpt lat="46.806462" lon="15.795054">
        <ele>272.986091</ele>
        <time>2024-05-11T11:25:31.000Z</time>
      </trkpt>
      <trkpt lat="46.806555" lon="15.79536">
        <ele>273.139745</ele>
        <time>2024-05-11T11:25:34.000Z</time>
      </trkpt>
      <trkpt lat="46.806605" lon="15.795493">
        <ele>273.210127</ele>
        <time>2024-05-11T11:25:35.000Z</time>
      </trkpt>
      <trkpt lat="46.806642" lon="15.795612">
        <ele>273.269574</ele>
        <time>2024-05-11T11:25:36.000Z</time>
      </trkpt>
      <trkpt lat="46.806749" lon="15.795863">
        <ele>273.406304</ele>
        <time>2024-05-11T11:25:38.000Z</time>
      </trkpt>
      <trkpt lat="46.806841" lon="15.796156">
        <ele>273.556625</ele>
        <time>2024-05-11T11:25:40.000Z</time>
      </trkpt>
      <trkpt lat="46.806979" lon="15.796441">
        <ele>273.734488</ele>
        <time>2024-05-11T11:25:43.000Z</time>
      </trkpt>
      <trkpt lat="46.807187" lon="15.796809">
        <ele>273.990565</ele>
        <time>2024-05-11T11:25:47.000Z</time>
      </trkpt>
      <trkpt lat="46.807271" lon="15.79694">
        <ele>274.094491</ele>
        <time>2024-05-11T11:25:48.000Z</time>
      </trkpt>
      <trkpt lat="46.807354" lon="15.797119">
        <ele>274.206271</ele>
        <time>2024-05-11T11:25:50.000Z</time>
      </trkpt>
      <trkpt lat="46.807394" lon="15.797178">
        <ele>274.246947</ele>
        <time>2024-05-11T11:25:51.000Z</time>
      </trkpt>
      <trkpt lat="46.807552" lon="15.797569">
        <ele>274.497801</ele>
        <time>2024-05-11T11:25:54.000Z</time>
      </trkpt>
      <trkpt lat="46.807593" lon="15.797674">
        <ele>274.568448</ele>
        <time>2024-05-11T11:25:55.000Z</time>
      </trkpt>
      <trkpt lat="46.807664" lon="15.797854">
        <ele>274.679328</ele>
        <time>2024-05-11T11:25:57.000Z</time>
      </trkpt>
      <trkpt lat="46.807777" lon="15.798111">
        <ele>274.844005</ele>
        <time>2024-05-11T11:25:59.000Z</time>
      </trkpt>
      <trkpt lat="46.807779" lon="15.798123">
        <ele>274.850921</ele>
        <time>2024-05-11T11:25:59.000Z</time>
      </trkpt>
      <trkpt lat="46.807857" lon="15.798436">
        <ele>275.025418</ele>
        <time>2024-05-11T11:26:02.000Z</time>
      </trkpt>
      <trkpt lat="46.808052" lon="15.79841">
        <ele>275.205895</ele>
        <time>2024-05-11T11:26:04.000Z</time>
      </trkpt>
      <trkpt lat="46.808088" lon="15.798393">
        <ele>275.258778</ele>
        <time>2024-05-11T11:26:04.000Z</time>
      </trkpt>
      <trkpt lat="46.80819" lon="15.798341">
        <ele>275.347076</ele>
        <time>2024-05-11T11:26:05.000Z</time>
      </trkpt>
      <trkpt lat="46.808298" lon="15.798074">
        <ele>275.551993</ele>
        <time>2024-05-11T11:26:07.000Z</time>
      </trkpt>
      <trkpt lat="46.808342" lon="15.797848">
        <ele>275.718755</ele>
        <time>2024-05-11T11:26:09.000Z</time>
      </trkpt>
      <trkpt lat="46.808571" lon="15.79721">
        <ele>276.183994</ele>
        <time>2024-05-11T11:26:14.000Z</time>
      </trkpt>
      <trkpt lat="46.80886" lon="15.796526">
        <ele>276.724857</ele>
        <time>2024-05-11T11:26:20.000Z</time>
      </trkpt>
      <trkpt lat="46.809123" lon="15.796183">
        <ele>277.036812</ele>
        <time>2024-05-11T11:26:24.000Z</time>
      </trkpt>
      <trkpt lat="46.809311" lon="15.796008">
        <ele>277.219496</ele>
        <time>2024-05-11T11:26:26.000Z</time>
      </trkpt>
      <trkpt lat="46.809528" lon="15.796159">
        <ele>277.435704</ele>
        <time>2024-05-11T11:26:29.000Z</time>
      </trkpt>
      <trkpt lat="46.811316" lon="15.797746">
        <ele>279.167917</ele>
        <time>2024-05-11T11:26:52.000Z</time>
      </trkpt>
      <trkpt lat="46.811976" lon="15.798206">
        <ele>279.738892</ele>
        <time>2024-05-11T11:27:00.000Z</time>
      </trkpt>
      <trkpt lat="46.81247" lon="15.798455">
        <ele>280.221123</ele>
        <time>2024-05-11T11:27:06.000Z</time>
      </trkpt>
      <trkpt lat="46.81302" lon="15.798434">
        <ele>280.730951</ele>
        <time>2024-05-11T11:27:12.000Z</time>
      </trkpt>
      <trkpt lat="46.813796" lon="15.798344">
        <ele>281.424984</ele>
        <time>2024-05-11T11:27:21.000Z</time>
      </trkpt>
      <trkpt lat="46.814039" lon="15.798311">
        <ele>281.464982</ele>
        <time>2024-05-11T11:27:24.000Z</time>
      </trkpt>
      <trkpt lat="46.814368" lon="15.798282">
        <ele>281.52225</ele>
        <time>2024-05-11T11:27:28.000Z</time>
      </trkpt>
      <trkpt lat="46.814423" lon="15.798295">
        <ele>281.529014</ele>
        <time>2024-05-11T11:27:29.000Z</time>
      </trkpt>
      <trkpt lat="46.814528" lon="15.798313">
        <ele>281.546169</ele>
        <time>2024-05-11T11:27:30.000Z</time>
      </trkpt>
      <trkpt lat="46.815018" lon="15.798527">
        <ele>281.632561</ele>
        <time>2024-05-11T11:27:36.000Z</time>
      </trkpt>
      <trkpt lat="46.816044" lon="15.798982">
        <ele>281.417884</ele>
        <time>2024-05-11T11:27:48.000Z</time>
      </trkpt>
      <trkpt lat="46.816343" lon="15.799061">
        <ele>281.256346</ele>
        <time>2024-05-11T11:27:51.000Z</time>
      </trkpt>
      <trkpt lat="46.816574" lon="15.799139">
        <ele>281.140126</ele>
        <time>2024-05-11T11:27:54.000Z</time>
      </trkpt>
      <trkpt lat="46.816669" lon="15.799173">
        <ele>281.079683</ele>
        <time>2024-05-11T11:27:55.000Z</time>
      </trkpt>
      <trkpt lat="46.81686" lon="15.799238">
        <ele>280.980447</ele>
        <time>2024-05-11T11:27:57.000Z</time>
      </trkpt>
      <trkpt lat="46.817583" lon="15.799544">
        <ele>280.907421</ele>
        <time>2024-05-11T11:28:05.000Z</time>
      </trkpt>
      <trkpt lat="46.817794" lon="15.799582">
        <ele>280.996779</ele>
        <time>2024-05-11T11:28:07.000Z</time>
      </trkpt>
      <trkpt lat="46.817853" lon="15.799593">
        <ele>281.020044</ele>
        <time>2024-05-11T11:28:08.000Z</time>
      </trkpt>
      <trkpt lat="46.818737" lon="15.799846">
        <ele>281.388733</ele>
        <time>2024-05-11T11:28:18.000Z</time>
      </trkpt>
      <trkpt lat="46.819159" lon="15.800091">
        <ele>281.648683</ele>
        <time>2024-05-11T11:28:23.000Z</time>
      </trkpt>
      <trkpt lat="46.81927" lon="15.800165">
        <ele>281.754674</ele>
        <time>2024-05-11T11:28:24.000Z</time>
      </trkpt>
      <trkpt lat="46.819524" lon="15.800292">
        <ele>281.974298</ele>
        <time>2024-05-11T11:28:27.000Z</time>
      </trkpt>
      <trkpt lat="46.8201" lon="15.800293">
        <ele>282.457545</ele>
        <time>2024-05-11T11:28:33.000Z</time>
      </trkpt>
      <trkpt lat="46.82062" lon="15.800143">
        <ele>282.898856</ele>
        <time>2024-05-11T11:28:39.000Z</time>
      </trkpt>
      <trkpt lat="46.820866" lon="15.800014">
        <ele>283.100437</ele>
        <time>2024-05-11T11:28:42.000Z</time>
      </trkpt>
      <trkpt lat="46.821008" lon="15.79987">
        <ele>283.247683</ele>
        <time>2024-05-11T11:28:44.000Z</time>
      </trkpt>
      <trkpt lat="46.821568" lon="15.799616">
        <ele>283.712025</ele>
        <time>2024-05-11T11:28:51.000Z</time>
      </trkpt>
      <trkpt lat="46.822074" lon="15.799481">
        <ele>284.133659</ele>
        <time>2024-05-11T11:28:57.000Z</time>
      </trkpt>
      <trkpt lat="46.822521" lon="15.799201">
        <ele>284.557818</ele>
        <time>2024-05-11T11:29:02.000Z</time>
      </trkpt>
      <trkpt lat="46.823415" lon="15.798476">
        <ele>285.727048</ele>
        <time>2024-05-11T11:29:13.000Z</time>
      </trkpt>
      <trkpt lat="46.824904" lon="15.79736">
        <ele>287.743662</ele>
        <time>2024-05-11T11:29:32.000Z</time>
      </trkpt>
      <trkpt lat="46.825393" lon="15.796947">
        <ele>288.444427</ele>
        <time>2024-05-11T11:29:38.000Z</time>
      </trkpt>
      <trkpt lat="46.825435" lon="15.796926">
        <ele>288.484096</ele>
        <time>2024-05-11T11:29:38.000Z</time>
      </trkpt>
      <trkpt lat="46.825705" lon="15.796728">
        <ele>288.891449</ele>
        <time>2024-05-11T11:29:41.000Z</time>
      </trkpt>
      <trkpt lat="46.825913" lon="15.796577">
        <ele>289.232947</ele>
        <time>2024-05-11T11:29:44.000Z</time>
      </trkpt>
      <trkpt lat="46.826264" lon="15.796278">
        <ele>289.833345</ele>
        <time>2024-05-11T11:29:49.000Z</time>
      </trkpt>
      <trkpt lat="46.826624" lon="15.795974">
        <ele>290.424377</ele>
        <time>2024-05-11T11:29:54.000Z</time>
      </trkpt>
      <trkpt lat="46.826797" lon="15.795823">
        <ele>290.737935</ele>
        <time>2024-05-11T11:29:56.000Z</time>
      </trkpt>
      <trkpt lat="46.826877" lon="15.795743">
        <ele>290.875428</ele>
        <time>2024-05-11T11:29:57.000Z</time>
      </trkpt>
      <trkpt lat="46.826943" lon="15.795718">
        <ele>290.966064</ele>
        <time>2024-05-11T11:29:58.000Z</time>
      </trkpt>
      <trkpt lat="46.827178" lon="15.795458">
        <ele>291.402049</ele>
        <time>2024-05-11T11:30:01.000Z</time>
      </trkpt>
      <trkpt lat="46.827541" lon="15.794984">
        <ele>292.154557</ele>
        <time>2024-05-11T11:30:06.000Z</time>
      </trkpt>
      <trkpt lat="46.827692" lon="15.794793">
        <ele>292.455003</ele>
        <time>2024-05-11T11:30:08.000Z</time>
      </trkpt>
      <trkpt lat="46.827794" lon="15.794695">
        <ele>292.656221</ele>
        <time>2024-05-11T11:30:09.000Z</time>
      </trkpt>
      <trkpt lat="46.82788" lon="15.794599">
        <ele>292.812037</ele>
        <time>2024-05-11T11:30:10.000Z</time>
      </trkpt>
      <trkpt lat="46.828079" lon="15.794412">
        <ele>293.174092</ele>
        <time>2024-05-11T11:30:13.000Z</time>
      </trkpt>
      <trkpt lat="46.828147" lon="15.794339">
        <ele>293.301996</ele>
        <time>2024-05-11T11:30:14.000Z</time>
      </trkpt>
      <trkpt lat="46.828244" lon="15.794245">
        <ele>293.477581</ele>
        <time>2024-05-11T11:30:15.000Z</time>
      </trkpt>
      <trkpt lat="46.828456" lon="15.794053">
        <ele>293.857533</ele>
        <time>2024-05-11T11:30:18.000Z</time>
      </trkpt>
      <trkpt lat="46.828792" lon="15.793703">
        <ele>294.089481</ele>
        <time>2024-05-11T11:30:23.000Z</time>
      </trkpt>
      <trkpt lat="46.828847" lon="15.79365">
        <ele>294.07807</ele>
        <time>2024-05-11T11:30:24.000Z</time>
      </trkpt>
      <trkpt lat="46.828936" lon="15.793563">
        <ele>294.061532</ele>
        <time>2024-05-11T11:30:25.000Z</time>
      </trkpt>
      <trkpt lat="46.829066" lon="15.793424">
        <ele>294.033447</ele>
        <time>2024-05-11T11:30:27.000Z</time>
      </trkpt>
      <trkpt lat="46.829132" lon="15.793344">
        <ele>294.021033</ele>
        <time>2024-05-11T11:30:28.000Z</time>
      </trkpt>
      <trkpt lat="46.829191" lon="15.79325">
        <ele>294.006329</ele>
        <time>2024-05-11T11:30:29.000Z</time>
      </trkpt>
      <trkpt lat="46.829256" lon="15.793126">
        <ele>293.988159</ele>
        <time>2024-05-11T11:30:30.000Z</time>
      </trkpt>
      <trkpt lat="46.829388" lon="15.792997">
        <ele>293.963383</ele>
        <time>2024-05-11T11:30:32.000Z</time>
      </trkpt>
      <trkpt lat="46.829413" lon="15.793">
        <ele>293.9589</ele>
        <time>2024-05-11T11:30:32.000Z</time>
      </trkpt>
      <trkpt lat="46.829427" lon="15.793001">
        <ele>293.954993</ele>
        <time>2024-05-11T11:30:32.000Z</time>
      </trkpt>
      <trkpt lat="46.829648" lon="15.793309">
        <ele>293.906477</ele>
        <time>2024-05-11T11:30:35.000Z</time>
      </trkpt>
      <trkpt lat="46.8297" lon="15.793395">
        <ele>293.892836</ele>
        <time>2024-05-11T11:30:36.000Z</time>
      </trkpt>
      <trkpt lat="46.829748" lon="15.793456">
        <ele>293.881615</ele>
        <time>2024-05-11T11:30:37.000Z</time>
      </trkpt>
      <trkpt lat="46.829902" lon="15.793619">
        <ele>293.852006</ele>
        <time>2024-05-11T11:30:39.000Z</time>
      </trkpt>
      <trkpt lat="46.830017" lon="15.793731">
        <ele>293.809212</ele>
        <time>2024-05-11T11:30:41.000Z</time>
      </trkpt>
      <trkpt lat="46.83005" lon="15.793758">
        <ele>293.768005</ele>
        <time>2024-05-11T11:30:41.000Z</time>
      </trkpt>
      <trkpt lat="46.830237" lon="15.793956">
        <ele>293.502882</ele>
        <time>2024-05-11T11:30:44.000Z</time>
      </trkpt>
      <trkpt lat="46.830286" lon="15.793983">
        <ele>293.457797</ele>
        <time>2024-05-11T11:30:45.000Z</time>
      </trkpt>
      <trkpt lat="46.830376" lon="15.794063">
        <ele>293.339498</ele>
        <time>2024-05-11T11:30:46.000Z</time>
      </trkpt>
      <trkpt lat="46.830514" lon="15.794208">
        <ele>293.14347</ele>
        <time>2024-05-11T11:30:48.000Z</time>
      </trkpt>
      <trkpt lat="46.830661" lon="15.794355">
        <ele>292.94271</ele>
        <time>2024-05-11T11:30:50.000Z</time>
      </trkpt>
      <trkpt lat="46.830739" lon="15.794435">
        <ele>292.837291</ele>
        <time>2024-05-11T11:30:51.000Z</time>
      </trkpt>
      <trkpt lat="46.830835" lon="15.794522">
        <ele>292.717453</ele>
        <time>2024-05-11T11:30:52.000Z</time>
      </trkpt>
      <trkpt lat="46.831062" lon="15.794733">
        <ele>292.409929</ele>
        <time>2024-05-11T11:30:55.000Z</time>
      </trkpt>
      <trkpt lat="46.831215" lon="15.794877">
        <ele>292.221985</ele>
        <time>2024-05-11T11:30:57.000Z</time>
      </trkpt>
      <trkpt lat="46.831402" lon="15.795022">
        <ele>291.990537</ele>
        <time>2024-05-11T11:30:59.000Z</time>
      </trkpt>
      <trkpt lat="46.831801" lon="15.795321">
        <ele>292.116644</ele>
        <time>2024-05-11T11:31:04.000Z</time>
      </trkpt>
      <trkpt lat="46.832276" lon="15.795663">
        <ele>292.584138</ele>
        <time>2024-05-11T11:31:10.000Z</time>
      </trkpt>
      <trkpt lat="46.832359" lon="15.795719">
        <ele>292.664072</ele>
        <time>2024-05-11T11:31:11.000Z</time>
      </trkpt>
      <trkpt lat="46.832561" lon="15.795846">
        <ele>292.855849</ele>
        <time>2024-05-11T11:31:13.000Z</time>
      </trkpt>
      <trkpt lat="46.832627" lon="15.795864">
        <ele>292.910129</ele>
        <time>2024-05-11T11:31:14.000Z</time>
      </trkpt>
      <trkpt lat="46.832841" lon="15.795961">
        <ele>293.102406</ele>
        <time>2024-05-11T11:31:16.000Z</time>
      </trkpt>
      <trkpt lat="46.832881" lon="15.795966">
        <ele>293.137328</ele>
        <time>2024-05-11T11:31:16.000Z</time>
      </trkpt>
      <trkpt lat="46.833095" lon="15.796039">
        <ele>293.332514</ele>
        <time>2024-05-11T11:31:18.000Z</time>
      </trkpt>
      <trkpt lat="46.833178" lon="15.796071">
        <ele>293.397289</ele>
        <time>2024-05-11T11:31:19.000Z</time>
      </trkpt>
      <trkpt lat="46.833357" lon="15.796127">
        <ele>293.628055</ele>
        <time>2024-05-11T11:31:21.000Z</time>
      </trkpt>
      <trkpt lat="46.833466" lon="15.796159">
        <ele>293.756707</ele>
        <time>2024-05-11T11:31:22.000Z</time>
      </trkpt>
      <trkpt lat="46.833739" lon="15.796257">
        <ele>294.089722</ele>
        <time>2024-05-11T11:31:25.000Z</time>
      </trkpt>
      <trkpt lat="46.83396" lon="15.796333">
        <ele>294.346256</ele>
        <time>2024-05-11T11:31:28.000Z</time>
      </trkpt>
      <trkpt lat="46.834453" lon="15.796561">
        <ele>294.963848</ele>
        <time>2024-05-11T11:31:34.000Z</time>
      </trkpt>
      <trkpt lat="46.83484" lon="15.79699">
        <ele>295.533694</ele>
        <time>2024-05-11T11:31:39.000Z</time>
      </trkpt>
      <trkpt lat="46.834979" lon="15.797145">
        <ele>295.606756</ele>
        <time>2024-05-11T11:31:41.000Z</time>
      </trkpt>
      <trkpt lat="46.835167" lon="15.79738">
        <ele>295.704626</ele>
        <time>2024-05-11T11:31:44.000Z</time>
      </trkpt>
      <trkpt lat="46.83532" lon="15.797537">
        <ele>295.78615</ele>
        <time>2024-05-11T11:31:46.000Z</time>
      </trkpt>
      <trkpt lat="46.835599" lon="15.797852">
        <ele>295.923549</ele>
        <time>2024-05-11T11:31:50.000Z</time>
      </trkpt>
      <trkpt lat="46.835882" lon="15.798222">
        <ele>296.081953</ele>
        <time>2024-05-11T11:31:54.000Z</time>
      </trkpt>
      <trkpt lat="46.836245" lon="15.798563">
        <ele>296.257885</ele>
        <time>2024-05-11T11:31:59.000Z</time>
      </trkpt>
      <trkpt lat="46.836522" lon="15.798703">
        <ele>296.427756</ele>
        <time>2024-05-11T11:32:02.000Z</time>
      </trkpt>
      <trkpt lat="46.837054" lon="15.79892">
        <ele>296.759028</ele>
        <time>2024-05-11T11:32:08.000Z</time>
      </trkpt>
      <trkpt lat="46.837271" lon="15.798999">
        <ele>296.899481</ele>
        <time>2024-05-11T11:32:10.000Z</time>
      </trkpt>
      <trkpt lat="46.837504" lon="15.799052">
        <ele>297.045161</ele>
        <time>2024-05-11T11:32:13.000Z</time>
      </trkpt>
      <trkpt lat="46.838333" lon="15.799">
        <ele>297.389964</ele>
        <time>2024-05-11T11:32:22.000Z</time>
      </trkpt>
      <trkpt lat="46.838766" lon="15.799069">
        <ele>297.434186</ele>
        <time>2024-05-11T11:32:27.000Z</time>
      </trkpt>
      <trkpt lat="46.839677" lon="15.799603">
        <ele>297.536928</ele>
        <time>2024-05-11T11:32:38.000Z</time>
      </trkpt>
      <trkpt lat="46.840212" lon="15.799649">
        <ele>297.766298</ele>
        <time>2024-05-11T11:32:44.000Z</time>
      </trkpt>
      <trkpt lat="46.840602" lon="15.799838">
        <ele>297.957267</ele>
        <time>2024-05-11T11:32:49.000Z</time>
      </trkpt>
      <trkpt lat="46.841113" lon="15.800204">
        <ele>298.221772</ele>
        <time>2024-05-11T11:32:55.000Z</time>
      </trkpt>
      <trkpt lat="46.841238" lon="15.800269">
        <ele>298.281938</ele>
        <time>2024-05-11T11:32:56.000Z</time>
      </trkpt>
      <trkpt lat="46.841324" lon="15.800209">
        <ele>298.329788</ele>
        <time>2024-05-11T11:32:57.000Z</time>
      </trkpt>
      <trkpt lat="46.841934" lon="15.799726">
        <ele>298.875082</ele>
        <time>2024-05-11T11:33:05.000Z</time>
      </trkpt>
      <trkpt lat="46.842003" lon="15.799605">
        <ele>298.965119</ele>
        <time>2024-05-11T11:33:06.000Z</time>
      </trkpt>
      <trkpt lat="46.842233" lon="15.799298">
        <ele>299.225691</ele>
        <time>2024-05-11T11:33:09.000Z</time>
      </trkpt>
      <trkpt lat="46.842307" lon="15.799195">
        <ele>299.312521</ele>
        <time>2024-05-11T11:33:10.000Z</time>
      </trkpt>
      <trkpt lat="46.842475" lon="15.798956">
        <ele>299.509754</ele>
        <time>2024-05-11T11:33:13.000Z</time>
      </trkpt>
      <trkpt lat="46.842495" lon="15.798914">
        <ele>299.540996</ele>
        <time>2024-05-11T11:33:13.000Z</time>
      </trkpt>
      <trkpt lat="46.842554" lon="15.798778">
        <ele>299.639561</ele>
        <time>2024-05-11T11:33:14.000Z</time>
      </trkpt>
      <trkpt lat="46.842757" lon="15.798001">
        <ele>300.116167</ele>
        <time>2024-05-11T11:33:20.000Z</time>
      </trkpt>
      <trkpt lat="46.842807" lon="15.79794">
        <ele>300.170339</ele>
        <time>2024-05-11T11:33:21.000Z</time>
      </trkpt>
      <trkpt lat="46.842842" lon="15.797855">
        <ele>300.224091</ele>
        <time>2024-05-11T11:33:22.000Z</time>
      </trkpt>
      <trkpt lat="46.842995" lon="15.797706">
        <ele>300.373574</ele>
        <time>2024-05-11T11:33:24.000Z</time>
      </trkpt>
      <trkpt lat="46.843101" lon="15.797598">
        <ele>300.480035</ele>
        <time>2024-05-11T11:33:25.000Z</time>
      </trkpt>
      <trkpt lat="46.843246" lon="15.797398">
        <ele>300.64182</ele>
        <time>2024-05-11T11:33:27.000Z</time>
      </trkpt>
      <trkpt lat="46.843982" lon="15.796081">
        <ele>301.700652</ele>
        <time>2024-05-11T11:33:40.000Z</time>
      </trkpt>
      <trkpt lat="46.844356" lon="15.795388">
        <ele>302.427133</ele>
        <time>2024-05-11T11:33:47.000Z</time>
      </trkpt>
      <trkpt lat="46.844381" lon="15.795334">
        <ele>302.477177</ele>
        <time>2024-05-11T11:33:47.000Z</time>
      </trkpt>
      <trkpt lat="46.844968" lon="15.794243">
        <ele>303.613833</ele>
        <time>2024-05-11T11:33:58.000Z</time>
      </trkpt>
      <trkpt lat="46.844994" lon="15.794153">
        <ele>303.696038</ele>
        <time>2024-05-11T11:33:59.000Z</time>
      </trkpt>
      <trkpt lat="46.845015" lon="15.794052">
        <ele>303.774335</ele>
        <time>2024-05-11T11:34:00.000Z</time>
      </trkpt>
      <trkpt lat="46.845013" lon="15.793812">
        <ele>303.975772</ele>
        <time>2024-05-11T11:34:02.000Z</time>
      </trkpt>
      <trkpt lat="46.845015" lon="15.793785">
        <ele>303.995568</ele>
        <time>2024-05-11T11:34:02.000Z</time>
      </trkpt>
      <trkpt lat="46.844984" lon="15.793377">
        <ele>304.324807</ele>
        <time>2024-05-11T11:34:05.000Z</time>
      </trkpt>
      <trkpt lat="46.845034" lon="15.792996">
        <ele>304.655566</ele>
        <time>2024-05-11T11:34:08.000Z</time>
      </trkpt>
      <trkpt lat="46.845186" lon="15.792782">
        <ele>304.903078</ele>
        <time>2024-05-11T11:34:10.000Z</time>
      </trkpt>
      <trkpt lat="46.845268" lon="15.792725">
        <ele>305.020058</ele>
        <time>2024-05-11T11:34:11.000Z</time>
      </trkpt>
      <trkpt lat="46.845426" lon="15.792726">
        <ele>305.191257</ele>
        <time>2024-05-11T11:34:13.000Z</time>
      </trkpt>
      <trkpt lat="46.846136" lon="15.792625">
        <ele>305.883956</ele>
        <time>2024-05-11T11:34:21.000Z</time>
      </trkpt>
      <trkpt lat="46.847523" lon="15.79187">
        <ele>306.813436</ele>
        <time>2024-05-11T11:34:37.000Z</time>
      </trkpt>
      <trkpt lat="46.849637" lon="15.789709">
        <ele>308.070503</ele>
        <time>2024-05-11T11:35:06.000Z</time>
      </trkpt>
      <trkpt lat="46.849756" lon="15.789559">
        <ele>308.131259</ele>
        <time>2024-05-11T11:35:08.000Z</time>
      </trkpt>
      <trkpt lat="46.850278" lon="15.789037">
        <ele>308.369</ele>
        <time>2024-05-11T11:35:15.000Z</time>
      </trkpt>
      <trkpt lat="46.850611" lon="15.788765">
        <ele>308.493862</ele>
        <time>2024-05-11T11:35:19.000Z</time>
      </trkpt>
      <trkpt lat="46.850928" lon="15.788529">
        <ele>308.586937</ele>
        <time>2024-05-11T11:35:23.000Z</time>
      </trkpt>
      <trkpt lat="46.851048" lon="15.788466">
        <ele>308.620467</ele>
        <time>2024-05-11T11:35:24.000Z</time>
      </trkpt>
      <trkpt lat="46.851163" lon="15.788372">
        <ele>308.653855</ele>
        <time>2024-05-11T11:35:25.000Z</time>
      </trkpt>
      <trkpt lat="46.85128" lon="15.788309">
        <ele>308.689312</ele>
        <time>2024-05-11T11:35:26.000Z</time>
      </trkpt>
      <trkpt lat="46.851892" lon="15.787896">
        <ele>308.865166</ele>
        <time>2024-05-11T11:35:33.000Z</time>
      </trkpt>
      <trkpt lat="46.853963" lon="15.786567">
        <ele>309.339776</ele>
        <time>2024-05-11T11:35:58.000Z</time>
      </trkpt>
      <trkpt lat="46.854309" lon="15.786262">
        <ele>309.470566</ele>
        <time>2024-05-11T11:36:02.000Z</time>
      </trkpt>
      <trkpt lat="46.854717" lon="15.785755">
        <ele>309.642115</ele>
        <time>2024-05-11T11:36:08.000Z</time>
      </trkpt>
      <trkpt lat="46.855394" lon="15.784757">
        <ele>310.018996</ele>
        <time>2024-05-11T11:36:19.000Z</time>
      </trkpt>
      <trkpt lat="46.85564" lon="15.784518">
        <ele>310.200234</ele>
        <time>2024-05-11T11:36:22.000Z</time>
      </trkpt>
      <trkpt lat="46.85592" lon="15.78432">
        <ele>310.376113</ele>
        <time>2024-05-11T11:36:25.000Z</time>
      </trkpt>
      <trkpt lat="46.855962" lon="15.784288">
        <ele>310.40111</ele>
        <time>2024-05-11T11:36:26.000Z</time>
      </trkpt>
      <trkpt lat="46.856534" lon="15.784086">
        <ele>310.745435</ele>
        <time>2024-05-11T11:36:33.000Z</time>
      </trkpt>
      <trkpt lat="46.856932" lon="15.784027">
        <ele>311.035874</ele>
        <time>2024-05-11T11:36:37.000Z</time>
      </trkpt>
      <trkpt lat="46.857211" lon="15.783948">
        <ele>311.319308</ele>
        <time>2024-05-11T11:36:40.000Z</time>
      </trkpt>
      <trkpt lat="46.857366" lon="15.783928">
        <ele>311.47726</ele>
        <time>2024-05-11T11:36:42.000Z</time>
      </trkpt>
      <trkpt lat="46.857693" lon="15.78374">
        <ele>311.822461</ele>
        <time>2024-05-11T11:36:46.000Z</time>
      </trkpt>
      <trkpt lat="46.858077" lon="15.783421">
        <ele>312.266041</ele>
        <time>2024-05-11T11:36:51.000Z</time>
      </trkpt>
      <trkpt lat="46.860203" lon="15.781259">
        <ele>315.731466</ele>
        <time>2024-05-11T11:37:20.000Z</time>
      </trkpt>
      <trkpt lat="46.860875" lon="15.780766">
        <ele>317.750468</ele>
        <time>2024-05-11T11:37:28.000Z</time>
      </trkpt>
      <trkpt lat="46.861107" lon="15.780663">
        <ele>318.414507</ele>
        <time>2024-05-11T11:37:31.000Z</time>
      </trkpt>
      <trkpt lat="46.861204" lon="15.780611">
        <ele>318.677217</ele>
        <time>2024-05-11T11:37:32.000Z</time>
      </trkpt>
      <trkpt lat="46.861227" lon="15.780607">
        <ele>318.738397</ele>
        <time>2024-05-11T11:37:32.000Z</time>
      </trkpt>
      <trkpt lat="46.861778" lon="15.780448">
        <ele>320.537946</ele>
        <time>2024-05-11T11:37:38.000Z</time>
      </trkpt>
      <trkpt lat="46.862244" lon="15.780416">
        <ele>322.36282</ele>
        <time>2024-05-11T11:37:43.000Z</time>
      </trkpt>
      <trkpt lat="46.862796" lon="15.780397">
        <ele>324.464809</ele>
        <time>2024-05-11T11:37:49.000Z</time>
      </trkpt>
      <trkpt lat="46.862807" lon="15.780407">
        <ele>324.542705</ele>
        <time>2024-05-11T11:37:49.000Z</time>
      </trkpt>
      <trkpt lat="46.864426" lon="15.780319">
        <ele>327.378572</ele>
        <time>2024-05-11T11:38:07.000Z</time>
      </trkpt>
      <trkpt lat="46.864791" lon="15.780232">
        <ele>327.667189</ele>
        <time>2024-05-11T11:38:11.000Z</time>
      </trkpt>
      <trkpt lat="46.865016" lon="15.780151">
        <ele>327.837772</ele>
        <time>2024-05-11T11:38:14.000Z</time>
      </trkpt>
      <trkpt lat="46.86521" lon="15.78008">
        <ele>327.82488</ele>
        <time>2024-05-11T11:38:16.000Z</time>
      </trkpt>
      <trkpt lat="46.865387" lon="15.779989">
        <ele>327.682383</ele>
        <time>2024-05-11T11:38:18.000Z</time>
      </trkpt>
      <trkpt lat="46.86549" lon="15.779973">
        <ele>327.597837</ele>
        <time>2024-05-11T11:38:19.000Z</time>
      </trkpt>
      <trkpt lat="46.865597" lon="15.77994">
        <ele>327.51794</ele>
        <time>2024-05-11T11:38:20.000Z</time>
      </trkpt>
      <trkpt lat="46.865675" lon="15.77999">
        <ele>327.454817</ele>
        <time>2024-05-11T11:38:21.000Z</time>
      </trkpt>
      <trkpt lat="46.865728" lon="15.780065">
        <ele>327.389128</ele>
        <time>2024-05-11T11:38:22.000Z</time>
      </trkpt>
      <trkpt lat="46.865823" lon="15.780289">
        <ele>327.255214</ele>
        <time>2024-05-11T11:38:24.000Z</time>
      </trkpt>
      <trkpt lat="46.865957" lon="15.780499">
        <ele>327.105111</ele>
        <time>2024-05-11T11:38:26.000Z</time>
      </trkpt>
      <trkpt lat="46.866008" lon="15.780577">
        <ele>327.046474</ele>
        <time>2024-05-11T11:38:27.000Z</time>
      </trkpt>
      <trkpt lat="46.866115" lon="15.7807">
        <ele>326.936167</ele>
        <time>2024-05-11T11:38:29.000Z</time>
      </trkpt>
      <trkpt lat="46.86629" lon="15.780883">
        <ele>326.775626</ele>
        <time>2024-05-11T11:38:31.000Z</time>
      </trkpt>
      <trkpt lat="46.866747" lon="15.781129">
        <ele>327.124408</ele>
        <time>2024-05-11T11:38:36.000Z</time>
      </trkpt>
      <trkpt lat="46.867286" lon="15.781249">
        <ele>329.313693</ele>
        <time>2024-05-11T11:38:42.000Z</time>
      </trkpt>
      <trkpt lat="46.867363" lon="15.781292">
        <ele>329.646475</ele>
        <time>2024-05-11T11:38:43.000Z</time>
      </trkpt>
      <trkpt lat="46.868202" lon="15.781596">
        <ele>333.133822</ele>
        <time>2024-05-11T11:38:53.000Z</time>
      </trkpt>
      <trkpt lat="46.869489" lon="15.781926">
        <ele>344.977953</ele>
        <time>2024-05-11T11:39:08.000Z</time>
      </trkpt>
      <trkpt lat="46.869668" lon="15.781984">
        <ele>346.801039</ele>
        <time>2024-05-11T11:39:10.000Z</time>
      </trkpt>
      <trkpt lat="46.870105" lon="15.782229">
        <ele>351.205096</ele>
        <time>2024-05-11T11:39:15.000Z</time>
      </trkpt>
      <trkpt lat="46.870577" lon="15.782582">
        <ele>355.131001</ele>
        <time>2024-05-11T11:39:21.000Z</time>
      </trkpt>
      <trkpt lat="46.87119" lon="15.783218">
        <ele>360.694535</ele>
        <time>2024-05-11T11:39:29.000Z</time>
      </trkpt>
      <trkpt lat="46.871327" lon="15.783427">
        <ele>362.178814</ele>
        <time>2024-05-11T11:39:31.000Z</time>
      </trkpt>
      <trkpt lat="46.87153" lon="15.783944">
        <ele>364.220271</ele>
        <time>2024-05-11T11:39:36.000Z</time>
      </trkpt>
      <trkpt lat="46.871533" lon="15.784229">
        <ele>363.740588</ele>
        <time>2024-05-11T11:39:38.000Z</time>
      </trkpt>
      <trkpt lat="46.871463" lon="15.784558">
        <ele>363.191759</ele>
        <time>2024-05-11T11:39:41.000Z</time>
      </trkpt>
      <trkpt lat="46.871179" lon="15.785222">
        <ele>361.903514</ele>
        <time>2024-05-11T11:39:47.000Z</time>
      </trkpt>
      <trkpt lat="46.871157" lon="15.785477">
        <ele>361.462607</ele>
        <time>2024-05-11T11:39:49.000Z</time>
      </trkpt>
      <trkpt lat="46.8712" lon="15.785691">
        <ele>361.099204</ele>
        <time>2024-05-11T11:39:51.000Z</time>
      </trkpt>
      <trkpt lat="46.871271" lon="15.785933">
        <ele>360.676433</ele>
        <time>2024-05-11T11:39:53.000Z</time>
      </trkpt>
      <trkpt lat="46.871319" lon="15.786137">
        <ele>360.336165</ele>
        <time>2024-05-11T11:39:55.000Z</time>
      </trkpt>
      <trkpt lat="46.871375" lon="15.786266">
        <ele>360.110212</ele>
        <time>2024-05-11T11:39:56.000Z</time>
      </trkpt>
      <trkpt lat="46.871447" lon="15.786353">
        <ele>359.981371</ele>
        <time>2024-05-11T11:39:57.000Z</time>
      </trkpt>
      <trkpt lat="46.872304" lon="15.786974">
        <ele>358.542626</ele>
        <time>2024-05-11T11:40:08.000Z</time>
      </trkpt>
      <trkpt lat="46.872475" lon="15.787082">
        <ele>358.262786</ele>
        <time>2024-05-11T11:40:10.000Z</time>
      </trkpt>
      <trkpt lat="46.872611" lon="15.787157">
        <ele>358.056358</ele>
        <time>2024-05-11T11:40:12.000Z</time>
      </trkpt>
      <trkpt lat="46.872728" lon="15.787217">
        <ele>357.853635</ele>
        <time>2024-05-11T11:40:13.000Z</time>
      </trkpt>
      <trkpt lat="46.872894" lon="15.787297">
        <ele>357.601532</ele>
        <time>2024-05-11T11:40:15.000Z</time>
      </trkpt>
      <trkpt lat="46.872981" lon="15.787347">
        <ele>357.46918</ele>
        <time>2024-05-11T11:40:16.000Z</time>
      </trkpt>
      <trkpt lat="46.873052" lon="15.787409">
        <ele>357.532302</ele>
        <time>2024-05-11T11:40:17.000Z</time>
      </trkpt>
      <trkpt lat="46.873115" lon="15.787478">
        <ele>357.587504</ele>
        <time>2024-05-11T11:40:18.000Z</time>
      </trkpt>
      <trkpt lat="46.8733" lon="15.78772">
        <ele>357.786588</ele>
        <time>2024-05-11T11:40:21.000Z</time>
      </trkpt>
      <trkpt lat="46.873453" lon="15.787917">
        <ele>357.933287</ele>
        <time>2024-05-11T11:40:23.000Z</time>
      </trkpt>
      <trkpt lat="46.873598" lon="15.788064">
        <ele>358.078227</ele>
        <time>2024-05-11T11:40:25.000Z</time>
      </trkpt>
      <trkpt lat="46.873676" lon="15.788145">
        <ele>358.146623</ele>
        <time>2024-05-11T11:40:26.000Z</time>
      </trkpt>
      <trkpt lat="46.873699" lon="15.788178">
        <ele>358.17971</ele>
        <time>2024-05-11T11:40:26.000Z</time>
      </trkpt>
      <trkpt lat="46.873936" lon="15.788429">
        <ele>358.407852</ele>
        <time>2024-05-11T11:40:29.000Z</time>
      </trkpt>
      <trkpt lat="46.874157" lon="15.788666">
        <ele>358.626893</ele>
        <time>2024-05-11T11:40:32.000Z</time>
      </trkpt>
      <trkpt lat="46.874338" lon="15.788837">
        <ele>358.791608</ele>
        <time>2024-05-11T11:40:34.000Z</time>
      </trkpt>
      <trkpt lat="46.874514" lon="15.78897">
        <ele>358.7426</ele>
        <time>2024-05-11T11:40:36.000Z</time>
      </trkpt>
      <trkpt lat="46.875203" lon="15.789406">
        <ele>357.734282</ele>
        <time>2024-05-11T11:40:44.000Z</time>
      </trkpt>
      <trkpt lat="46.875447" lon="15.789775">
        <ele>357.280476</ele>
        <time>2024-05-11T11:40:48.000Z</time>
      </trkpt>
      <trkpt lat="46.875493" lon="15.789855">
        <ele>357.18803</ele>
        <time>2024-05-11T11:40:49.000Z</time>
      </trkpt>
      <trkpt lat="46.875648" lon="15.790165">
        <ele>356.852377</ele>
        <time>2024-05-11T11:40:52.000Z</time>
      </trkpt>
      <trkpt lat="46.875896" lon="15.790624">
        <ele>356.430169</ele>
        <time>2024-05-11T11:40:56.000Z</time>
      </trkpt>
      <trkpt lat="46.875997" lon="15.790916">
        <ele>356.318413</ele>
        <time>2024-05-11T11:40:58.000Z</time>
      </trkpt>
      <trkpt lat="46.876067" lon="15.791224">
        <ele>356.213268</ele>
        <time>2024-05-11T11:41:00.000Z</time>
      </trkpt>
      <trkpt lat="46.876061" lon="15.791311">
        <ele>356.184988</ele>
        <time>2024-05-11T11:41:01.000Z</time>
      </trkpt>
      <trkpt lat="46.876086" lon="15.791544">
        <ele>356.10921</ele>
        <time>2024-05-11T11:41:03.000Z</time>
      </trkpt>
      <trkpt lat="46.876088" lon="15.791717">
        <ele>356.049349</ele>
        <time>2024-05-11T11:41:04.000Z</time>
      </trkpt>
      <trkpt lat="46.876096" lon="15.791845">
        <ele>356.007355</ele>
        <time>2024-05-11T11:41:05.000Z</time>
      </trkpt>
      <trkpt lat="46.876122" lon="15.792214">
        <ele>355.887331</ele>
        <time>2024-05-11T11:41:08.000Z</time>
      </trkpt>
      <trkpt lat="46.876143" lon="15.792265">
        <ele>355.860769</ele>
        <time>2024-05-11T11:41:08.000Z</time>
      </trkpt>
      <trkpt lat="46.876184" lon="15.792288">
        <ele>355.839893</ele>
        <time>2024-05-11T11:41:08.000Z</time>
      </trkpt>
      <trkpt lat="46.876246" lon="15.792298">
        <ele>355.812937</ele>
        <time>2024-05-11T11:41:09.000Z</time>
      </trkpt>
      <trkpt lat="46.876573" lon="15.792169">
        <ele>355.648115</ele>
        <time>2024-05-11T11:41:13.000Z</time>
      </trkpt>
      <trkpt lat="46.876716" lon="15.792173">
        <ele>355.459962</ele>
        <time>2024-05-11T11:41:15.000Z</time>
      </trkpt>
      <trkpt lat="46.87695" lon="15.792379">
        <ele>355.008432</ele>
        <time>2024-05-11T11:41:18.000Z</time>
      </trkpt>
      <trkpt lat="46.877345" lon="15.793866">
        <ele>353.166704</ele>
        <time>2024-05-11T11:41:30.000Z</time>
      </trkpt>
      <trkpt lat="46.877507" lon="15.794272">
        <ele>352.633635</ele>
        <time>2024-05-11T11:41:34.000Z</time>
      </trkpt>
      <trkpt lat="46.877546" lon="15.794349">
        <ele>352.508551</ele>
        <time>2024-05-11T11:41:35.000Z</time>
      </trkpt>
      <trkpt lat="46.87758" lon="15.794468">
        <ele>352.303848</ele>
        <time>2024-05-11T11:41:36.000Z</time>
      </trkpt>
      <trkpt lat="46.877645" lon="15.794838">
        <ele>351.731991</ele>
        <time>2024-05-11T11:41:39.000Z</time>
      </trkpt>
      <trkpt lat="46.877667" lon="15.795219">
        <ele>351.138098</ele>
        <time>2024-05-11T11:41:42.000Z</time>
      </trkpt>
      <trkpt lat="46.877568" lon="15.795753">
        <ele>350.328993</ele>
        <time>2024-05-11T11:41:46.000Z</time>
      </trkpt>
      <trkpt lat="46.877539" lon="15.795853">
        <ele>350.151589</ele>
        <time>2024-05-11T11:41:47.000Z</time>
      </trkpt>
      <trkpt lat="46.877487" lon="15.795976">
        <ele>349.954603</ele>
        <time>2024-05-11T11:41:48.000Z</time>
      </trkpt>
      <trkpt lat="46.877501" lon="15.796096">
        <ele>349.788554</ele>
        <time>2024-05-11T11:41:49.000Z</time>
      </trkpt>
      <trkpt lat="46.87746" lon="15.796242">
        <ele>349.555659</ele>
        <time>2024-05-11T11:41:50.000Z</time>
      </trkpt>
      <trkpt lat="46.877307" lon="15.796782">
        <ele>348.661931</ele>
        <time>2024-05-11T11:41:54.000Z</time>
      </trkpt>
      <trkpt lat="46.877236" lon="15.796863">
        <ele>348.660763</ele>
        <time>2024-05-11T11:41:55.000Z</time>
      </trkpt>
      <trkpt lat="46.877231" lon="15.796951">
        <ele>348.659896</ele>
        <time>2024-05-11T11:41:56.000Z</time>
      </trkpt>
      <trkpt lat="46.877083" lon="15.797673">
        <ele>348.652379</ele>
        <time>2024-05-11T11:42:02.000Z</time>
      </trkpt>
      <trkpt lat="46.877064" lon="15.797767">
        <ele>348.651381</ele>
        <time>2024-05-11T11:42:03.000Z</time>
      </trkpt>
      <trkpt lat="46.876919" lon="15.798366">
        <ele>348.645066</ele>
        <time>2024-05-11T11:42:08.000Z</time>
      </trkpt>
      <trkpt lat="46.876766" lon="15.798901">
        <ele>348.639193</ele>
        <time>2024-05-11T11:42:12.000Z</time>
      </trkpt>
      <trkpt lat="46.876677" lon="15.799189">
        <ele>348.636019</ele>
        <time>2024-05-11T11:42:14.000Z</time>
      </trkpt>
      <trkpt lat="46.876558" lon="15.79949">
        <ele>348.878836</ele>
        <time>2024-05-11T11:42:17.000Z</time>
      </trkpt>
      <trkpt lat="46.876362" lon="15.799949">
        <ele>349.308568</ele>
        <time>2024-05-11T11:42:21.000Z</time>
      </trkpt>
      <trkpt lat="46.876121" lon="15.800543">
        <ele>349.84988</ele>
        <time>2024-05-11T11:42:26.000Z</time>
      </trkpt>
      <trkpt lat="46.875994" lon="15.800871">
        <ele>350.160925</ele>
        <time>2024-05-11T11:42:29.000Z</time>
      </trkpt>
      <trkpt lat="46.875595" lon="15.801539">
        <ele>350.475056</ele>
        <time>2024-05-11T11:42:36.000Z</time>
      </trkpt>
      <trkpt lat="46.875514" lon="15.801747">
        <ele>350.134343</ele>
        <time>2024-05-11T11:42:38.000Z</time>
      </trkpt>
      <trkpt lat="46.875522" lon="15.801768">
        <ele>350.109791</ele>
        <time>2024-05-11T11:42:38.000Z</time>
      </trkpt>
      <trkpt lat="46.875374" lon="15.80312">
        <ele>348.063954</ele>
        <time>2024-05-11T11:42:48.000Z</time>
      </trkpt>
      <trkpt lat="46.875052" lon="15.805329">
        <ele>341.135005</ele>
        <time>2024-05-11T11:43:05.000Z</time>
      </trkpt>
      <trkpt lat="46.875058" lon="15.805997">
        <ele>338.463908</ele>
        <time>2024-05-11T11:43:10.000Z</time>
      </trkpt>
      <trkpt lat="46.875072" lon="15.806144">
        <ele>337.869311</ele>
        <time>2024-05-11T11:43:11.000Z</time>
      </trkpt>
      <trkpt lat="46.875074" lon="15.806416">
        <ele>336.768799</ele>
        <time>2024-05-11T11:43:13.000Z</time>
      </trkpt>
      <trkpt lat="46.875092" lon="15.806823">
        <ele>335.74795</ele>
        <time>2024-05-11T11:43:16.000Z</time>
      </trkpt>
      <trkpt lat="46.875111" lon="15.807331">
        <ele>334.78394</ele>
        <time>2024-05-11T11:43:20.000Z</time>
      </trkpt>
      <trkpt lat="46.875164" lon="15.807829">
        <ele>333.829712</ele>
        <time>2024-05-11T11:43:24.000Z</time>
      </trkpt>
      <trkpt lat="46.875247" lon="15.808219">
        <ele>333.051009</ele>
        <time>2024-05-11T11:43:27.000Z</time>
      </trkpt>
      <trkpt lat="46.875302" lon="15.808364">
        <ele>332.714591</ele>
        <time>2024-05-11T11:43:28.000Z</time>
      </trkpt>
      <trkpt lat="46.875384" lon="15.80852">
        <ele>332.356747</ele>
        <time>2024-05-11T11:43:29.000Z</time>
      </trkpt>
      <trkpt lat="46.875528" lon="15.808939">
        <ele>331.4648</ele>
        <time>2024-05-11T11:43:33.000Z</time>
      </trkpt>
      <trkpt lat="46.875567" lon="15.809515">
        <ele>332.034019</ele>
        <time>2024-05-11T11:43:37.000Z</time>
      </trkpt>
      <trkpt lat="46.875665" lon="15.81008">
        <ele>332.948825</ele>
        <time>2024-05-11T11:43:41.000Z</time>
      </trkpt>
      <trkpt lat="46.875813" lon="15.81051">
        <ele>333.684551</ele>
        <time>2024-05-11T11:43:45.000Z</time>
      </trkpt>
      <trkpt lat="46.875714" lon="15.811624">
        <ele>335.367913</ele>
        <time>2024-05-11T11:43:54.000Z</time>
      </trkpt>
      <trkpt lat="46.875685" lon="15.812127">
        <ele>335.006622</ele>
        <time>2024-05-11T11:43:58.000Z</time>
      </trkpt>
      <trkpt lat="46.875686" lon="15.81244">
        <ele>334.776042</ele>
        <time>2024-05-11T11:44:00.000Z</time>
      </trkpt>
      <trkpt lat="46.875675" lon="15.813107">
        <ele>334.291322</ele>
        <time>2024-05-11T11:44:05.000Z</time>
      </trkpt>
      <trkpt lat="46.875655" lon="15.813338">
        <ele>334.126739</ele>
        <time>2024-05-11T11:44:07.000Z</time>
      </trkpt>
      <trkpt lat="46.875646" lon="15.813412">
        <ele>334.077479</ele>
        <time>2024-05-11T11:44:08.000Z</time>
      </trkpt>
      <trkpt lat="46.875566" lon="15.813767">
        <ele>333.799394</ele>
        <time>2024-05-11T11:44:11.000Z</time>
      </trkpt>
      <trkpt lat="46.875416" lon="15.814255">
        <ele>332.723968</ele>
        <time>2024-05-11T11:44:15.000Z</time>
      </trkpt>
      <trkpt lat="46.875365" lon="15.81461">
        <ele>330.276722</ele>
        <time>2024-05-11T11:44:18.000Z</time>
      </trkpt>
      <trkpt lat="46.875273" lon="15.816544">
        <ele>317.006342</ele>
        <time>2024-05-11T11:44:33.000Z</time>
      </trkpt>
      <trkpt lat="46.875234" lon="15.817216">
        <ele>311.524078</ele>
        <time>2024-05-11T11:44:38.000Z</time>
      </trkpt>
      <trkpt lat="46.875223" lon="15.81741">
        <ele>309.736017</ele>
        <time>2024-05-11T11:44:39.000Z</time>
      </trkpt>
      <trkpt lat="46.87517" lon="15.818146">
        <ele>303.221199</ele>
        <time>2024-05-11T11:44:45.000Z</time>
      </trkpt>
      <trkpt lat="46.875148" lon="15.818451">
        <ele>300.57904</ele>
        <time>2024-05-11T11:44:47.000Z</time>
      </trkpt>
      <trkpt lat="46.875119" lon="15.818514">
        <ele>299.894283</ele>
        <time>2024-05-11T11:44:48.000Z</time>
      </trkpt>
      <trkpt lat="46.874864" lon="15.820116">
        <ele>288.862165</ele>
        <time>2024-05-11T11:45:01.000Z</time>
      </trkpt>
      <trkpt lat="46.874777" lon="15.820536">
        <ele>286.842139</ele>
        <time>2024-05-11T11:45:04.000Z</time>
      </trkpt>
      <trkpt lat="46.874706" lon="15.820902">
        <ele>285.193919</ele>
        <time>2024-05-11T11:45:07.000Z</time>
      </trkpt>
      <trkpt lat="46.874465" lon="15.821387">
        <ele>282.620817</ele>
        <time>2024-05-11T11:45:12.000Z</time>
      </trkpt>
      <trkpt lat="46.874363" lon="15.821471">
        <ele>281.782938</ele>
        <time>2024-05-11T11:45:13.000Z</time>
      </trkpt>
      <trkpt lat="46.874328" lon="15.821486">
        <ele>281.602977</ele>
        <time>2024-05-11T11:45:13.000Z</time>
      </trkpt>
      <trkpt lat="46.873577" lon="15.821965">
        <ele>279.971317</ele>
        <time>2024-05-11T11:45:22.000Z</time>
      </trkpt>
      <trkpt lat="46.873382" lon="15.822095">
        <ele>279.739127</ele>
        <time>2024-05-11T11:45:24.000Z</time>
      </trkpt>
      <trkpt lat="46.873355" lon="15.82211">
        <ele>279.711206</ele>
        <time>2024-05-11T11:45:24.000Z</time>
      </trkpt>
      <trkpt lat="46.873225" lon="15.822227">
        <ele>279.550026</ele>
        <time>2024-05-11T11:45:26.000Z</time>
      </trkpt>
      <trkpt lat="46.872952" lon="15.822453">
        <ele>279.214265</ele>
        <time>2024-05-11T11:45:29.000Z</time>
      </trkpt>
      <trkpt lat="46.8729" lon="15.822518">
        <ele>279.138522</ele>
        <time>2024-05-11T11:45:30.000Z</time>
      </trkpt>
      <trkpt lat="46.872523" lon="15.823031">
        <ele>278.644243</ele>
        <time>2024-05-11T11:45:36.000Z</time>
      </trkpt>
      <trkpt lat="46.872177" lon="15.823636">
        <ele>278.224549</ele>
        <time>2024-05-11T11:45:42.000Z</time>
      </trkpt>
      <trkpt lat="46.871875" lon="15.823999">
        <ele>277.923271</ele>
        <time>2024-05-11T11:45:46.000Z</time>
      </trkpt>
      <trkpt lat="46.871254" lon="15.824653">
        <ele>277.295428</ele>
        <time>2024-05-11T11:45:55.000Z</time>
      </trkpt>
      <trkpt lat="46.870582" lon="15.825159">
        <ele>276.496371</ele>
        <time>2024-05-11T11:46:03.000Z</time>
      </trkpt>
      <trkpt lat="46.870422" lon="15.825203">
        <ele>276.331084</ele>
        <time>2024-05-11T11:46:05.000Z</time>
      </trkpt>
      <trkpt lat="46.870334" lon="15.825103">
        <ele>276.203048</ele>
        <time>2024-05-11T11:46:06.000Z</time>
      </trkpt>
      <trkpt lat="46.870286" lon="15.825193">
        <ele>276.122623</ele>
        <time>2024-05-11T11:46:07.000Z</time>
      </trkpt>
      <trkpt lat="46.870177" lon="15.825099">
        <ele>275.984299</ele>
        <time>2024-05-11T11:46:08.000Z</time>
      </trkpt>
      <trkpt lat="46.870071" lon="15.82504">
        <ele>275.861234</ele>
        <time>2024-05-11T11:46:09.000Z</time>
      </trkpt>
      <trkpt lat="46.870029" lon="15.824999">
        <ele>275.812117</ele>
        <time>2024-05-11T11:46:10.000Z</time>
      </trkpt>
      <trkpt lat="46.869766" lon="15.824887">
        <ele>275.525296</ele>
        <time>2024-05-11T11:46:13.000Z</time>
      </trkpt>
      <trkpt lat="46.869735" lon="15.824872">
        <ele>275.4824</ele>
        <time>2024-05-11T11:46:13.000Z</time>
      </trkpt>
      <trkpt lat="46.869635" lon="15.824832">
        <ele>275.417951</ele>
        <time>2024-05-11T11:46:14.000Z</time>
      </trkpt>
      <trkpt lat="46.8695" lon="15.824773">
        <ele>275.346825</ele>
        <time>2024-05-11T11:46:16.000Z</time>
      </trkpt>
      <trkpt lat="46.869294" lon="15.824698">
        <ele>275.233063</ele>
        <time>2024-05-11T11:46:18.000Z</time>
      </trkpt>
      <trkpt lat="46.869275" lon="15.824693">
        <ele>275.225017</ele>
        <time>2024-05-11T11:46:18.000Z</time>
      </trkpt>
      <trkpt lat="46.869209" lon="15.824678">
        <ele>275.195418</ele>
        <time>2024-05-11T11:46:19.000Z</time>
      </trkpt>
      <trkpt lat="46.868772" lon="15.824518">
        <ele>274.956477</ele>
        <time>2024-05-11T11:46:24.000Z</time>
      </trkpt>
      <trkpt lat="46.868311" lon="15.824331">
        <ele>274.704173</ele>
        <time>2024-05-11T11:46:29.000Z</time>
      </trkpt>
      <trkpt lat="46.86765" lon="15.824206">
        <ele>274.320661</ele>
        <time>2024-05-11T11:46:36.000Z</time>
      </trkpt>
      <trkpt lat="46.867187" lon="15.824276">
        <ele>274.032639</ele>
        <time>2024-05-11T11:46:41.000Z</time>
      </trkpt>
      <trkpt lat="46.866877" lon="15.824368">
        <ele>273.830319</ele>
        <time>2024-05-11T11:46:45.000Z</time>
      </trkpt>
      <trkpt lat="46.866652" lon="15.824445">
        <ele>273.678979</ele>
        <time>2024-05-11T11:46:48.000Z</time>
      </trkpt>
      <trkpt lat="46.864947" lon="15.824454">
        <ele>272.353728</ele>
        <time>2024-05-11T11:47:07.000Z</time>
      </trkpt>
      <trkpt lat="46.864295" lon="15.824404">
        <ele>271.832738</ele>
        <time>2024-05-11T11:47:14.000Z</time>
      </trkpt>
      <trkpt lat="46.863989" lon="15.824395">
        <ele>271.683623</ele>
        <time>2024-05-11T11:47:17.000Z</time>
      </trkpt>
      <trkpt lat="46.863802" lon="15.824368">
        <ele>271.589694</ele>
        <time>2024-05-11T11:47:19.000Z</time>
      </trkpt>
      <trkpt lat="46.863611" lon="15.824313">
        <ele>271.492115</ele>
        <time>2024-05-11T11:47:21.000Z</time>
      </trkpt>
      <trkpt lat="46.863433" lon="15.824276">
        <ele>271.40636</ele>
        <time>2024-05-11T11:47:23.000Z</time>
      </trkpt>
      <trkpt lat="46.862694" lon="15.823965">
        <ele>271.018317</ele>
        <time>2024-05-11T11:47:32.000Z</time>
      </trkpt>
      <trkpt lat="46.862314" lon="15.823817">
        <ele>270.994632</ele>
        <time>2024-05-11T11:47:36.000Z</time>
      </trkpt>
      <trkpt lat="46.861496" lon="15.823654">
        <ele>271.016547</ele>
        <time>2024-05-11T11:47:45.000Z</time>
      </trkpt>
      <trkpt lat="46.861237" lon="15.823648">
        <ele>271.023401</ele>
        <time>2024-05-11T11:47:48.000Z</time>
      </trkpt>
      <trkpt lat="46.861039" lon="15.82359">
        <ele>271.028509</ele>
        <time>2024-05-11T11:47:50.000Z</time>
      </trkpt>
      <trkpt lat="46.860953" lon="15.823552">
        <ele>271.030817</ele>
        <time>2024-05-11T11:47:51.000Z</time>
      </trkpt>
      <trkpt lat="46.860857" lon="15.823509">
        <ele>271.034765</ele>
        <time>2024-05-11T11:47:52.000Z</time>
      </trkpt>
      <trkpt lat="46.860602" lon="15.823329">
        <ele>271.102198</ele>
        <time>2024-05-11T11:47:55.000Z</time>
      </trkpt>
      <trkpt lat="46.860468" lon="15.823267">
        <ele>271.132088</ele>
        <time>2024-05-11T11:47:57.000Z</time>
      </trkpt>
      <trkpt lat="46.860344" lon="15.823194">
        <ele>271.163699</ele>
        <time>2024-05-11T11:47:58.000Z</time>
      </trkpt>
      <trkpt lat="46.860108" lon="15.823053">
        <ele>271.224613</ele>
        <time>2024-05-11T11:48:01.000Z</time>
      </trkpt>
      <trkpt lat="46.859984" lon="15.823001">
        <ele>271.255549</ele>
        <time>2024-05-11T11:48:02.000Z</time>
      </trkpt>
      <trkpt lat="46.859824" lon="15.822946">
        <ele>271.293476</ele>
        <time>2024-05-11T11:48:04.000Z</time>
      </trkpt>
      <trkpt lat="46.859613" lon="15.822873">
        <ele>271.343647</ele>
        <time>2024-05-11T11:48:06.000Z</time>
      </trkpt>
      <trkpt lat="46.858963" lon="15.822735">
        <ele>271.514168</ele>
        <time>2024-05-11T11:48:13.000Z</time>
      </trkpt>
      <trkpt lat="46.857181" lon="15.822707">
        <ele>272.001542</ele>
        <time>2024-05-11T11:48:33.000Z</time>
      </trkpt>
      <trkpt lat="46.856943" lon="15.822678">
        <ele>271.936332</ele>
        <time>2024-05-11T11:48:36.000Z</time>
      </trkpt>
      <trkpt lat="46.856646" lon="15.82261">
        <ele>271.849105</ele>
        <time>2024-05-11T11:48:39.000Z</time>
      </trkpt>
      <trkpt lat="46.85581" lon="15.822447">
        <ele>271.607716</ele>
        <time>2024-05-11T11:48:48.000Z</time>
      </trkpt>
      <trkpt lat="46.855638" lon="15.822428">
        <ele>271.55719</ele>
        <time>2024-05-11T11:48:50.000Z</time>
      </trkpt>
      <trkpt lat="46.855359" lon="15.822467">
        <ele>271.479047</ele>
        <time>2024-05-11T11:48:53.000Z</time>
      </trkpt>
      <trkpt lat="46.855049" lon="15.822505">
        <ele>271.39493</ele>
        <time>2024-05-11T11:48:56.000Z</time>
      </trkpt>
      <trkpt lat="46.85458" lon="15.822566">
        <ele>271.268654</ele>
        <time>2024-05-11T11:49:01.000Z</time>
      </trkpt>
      <trkpt lat="46.854354" lon="15.822596">
        <ele>271.203431</ele>
        <time>2024-05-11T11:49:04.000Z</time>
      </trkpt>
      <trkpt lat="46.854157" lon="15.822647">
        <ele>271.151359</ele>
        <time>2024-05-11T11:49:06.000Z</time>
      </trkpt>
      <trkpt lat="46.854033" lon="15.822669">
        <ele>271.118106</ele>
        <time>2024-05-11T11:49:07.000Z</time>
      </trkpt>
      <trkpt lat="46.853544" lon="15.822958">
        <ele>270.942556</ele>
        <time>2024-05-11T11:49:13.000Z</time>
      </trkpt>
      <trkpt lat="46.852857" lon="15.823515">
        <ele>270.629679</ele>
        <time>2024-05-11T11:49:22.000Z</time>
      </trkpt>
      <trkpt lat="46.852465" lon="15.823713">
        <ele>270.468184</ele>
        <time>2024-05-11T11:49:27.000Z</time>
      </trkpt>
      <trkpt lat="46.851036" lon="15.823716">
        <ele>269.744617</ele>
        <time>2024-05-11T11:49:43.000Z</time>
      </trkpt>
      <trkpt lat="46.850604" lon="15.823579">
        <ele>269.508616</ele>
        <time>2024-05-11T11:49:48.000Z</time>
      </trkpt>
      <trkpt lat="46.850438" lon="15.82346">
        <ele>269.410456</ele>
        <time>2024-05-11T11:49:50.000Z</time>
      </trkpt>
      <trkpt lat="46.850243" lon="15.823249">
        <ele>269.49457</ele>
        <time>2024-05-11T11:49:53.000Z</time>
      </trkpt>
      <trkpt lat="46.84999" lon="15.822817">
        <ele>269.79601</ele>
        <time>2024-05-11T11:49:57.000Z</time>
      </trkpt>
      <trkpt lat="46.849668" lon="15.821867">
        <ele>270.35899</ele>
        <time>2024-05-11T11:50:05.000Z</time>
      </trkpt>
      <trkpt lat="46.849629" lon="15.8218">
        <ele>270.406828</ele>
        <time>2024-05-11T11:50:06.000Z</time>
      </trkpt>
      <trkpt lat="46.849535" lon="15.821642">
        <ele>270.505259</ele>
        <time>2024-05-11T11:50:08.000Z</time>
      </trkpt>
      <trkpt lat="46.849171" lon="15.821373">
        <ele>270.769262</ele>
        <time>2024-05-11T11:50:13.000Z</time>
      </trkpt>
      <trkpt lat="46.849064" lon="15.821345">
        <ele>270.783803</ele>
        <time>2024-05-11T11:50:14.000Z</time>
      </trkpt>
      <trkpt lat="46.84898" lon="15.821318">
        <ele>270.794865</ele>
        <time>2024-05-11T11:50:15.000Z</time>
      </trkpt>
      <trkpt lat="46.848871" lon="15.821327">
        <ele>270.809624</ele>
        <time>2024-05-11T11:50:16.000Z</time>
      </trkpt>
      <trkpt lat="46.848738" lon="15.821356">
        <ele>270.827549</ele>
        <time>2024-05-11T11:50:17.000Z</time>
      </trkpt>
      <trkpt lat="46.848601" lon="15.821409">
        <ele>270.845927</ele>
        <time>2024-05-11T11:50:19.000Z</time>
      </trkpt>
      <trkpt lat="46.848347" lon="15.821604">
        <ele>270.881342</ele>
        <time>2024-05-11T11:50:22.000Z</time>
      </trkpt>
      <trkpt lat="46.848104" lon="15.821827">
        <ele>270.919773</ele>
        <time>2024-05-11T11:50:25.000Z</time>
      </trkpt>
      <trkpt lat="46.848086" lon="15.821836">
        <ele>270.922207</ele>
        <time>2024-05-11T11:50:25.000Z</time>
      </trkpt>
      <trkpt lat="46.847943" lon="15.821968">
        <ele>270.944309</ele>
        <time>2024-05-11T11:50:27.000Z</time>
      </trkpt>
      <trkpt lat="46.847791" lon="15.822093">
        <ele>270.967549</ele>
        <time>2024-05-11T11:50:29.000Z</time>
      </trkpt>
      <trkpt lat="46.847692" lon="15.822147">
        <ele>270.981887</ele>
        <time>2024-05-11T11:50:30.000Z</time>
      </trkpt>
      <trkpt lat="46.847583" lon="15.822216">
        <ele>270.978487</ele>
        <time>2024-05-11T11:50:31.000Z</time>
      </trkpt>
      <trkpt lat="46.847459" lon="15.822267">
        <ele>270.898023</ele>
        <time>2024-05-11T11:50:32.000Z</time>
      </trkpt>
      <trkpt lat="46.847184" lon="15.82235">
        <ele>270.729072</ele>
        <time>2024-05-11T11:50:35.000Z</time>
      </trkpt>
      <trkpt lat="46.846967" lon="15.822385">
        <ele>270.60177</ele>
        <time>2024-05-11T11:50:37.000Z</time>
      </trkpt>
      <trkpt lat="46.846784" lon="15.822423">
        <ele>270.496303</ele>
        <time>2024-05-11T11:50:39.000Z</time>
      </trkpt>
      <trkpt lat="46.846596" lon="15.82247">
        <ele>270.381932</ele>
        <time>2024-05-11T11:50:41.000Z</time>
      </trkpt>
      <trkpt lat="46.846356" lon="15.822534">
        <ele>270.23758</ele>
        <time>2024-05-11T11:50:44.000Z</time>
      </trkpt>
      <trkpt lat="46.845967" lon="15.822551">
        <ele>270.007235</ele>
        <time>2024-05-11T11:50:48.000Z</time>
      </trkpt>
      <trkpt lat="46.8458" lon="15.822543">
        <ele>269.917275</ele>
        <time>2024-05-11T11:50:50.000Z</time>
      </trkpt>
      <trkpt lat="46.845652" lon="15.822489">
        <ele>269.866943</ele>
        <time>2024-05-11T11:50:52.000Z</time>
      </trkpt>
      <trkpt lat="46.845484" lon="15.822424">
        <ele>269.816319</ele>
        <time>2024-05-11T11:50:54.000Z</time>
      </trkpt>
      <trkpt lat="46.845302" lon="15.822309">
        <ele>269.750171</ele>
        <time>2024-05-11T11:50:56.000Z</time>
      </trkpt>
      <trkpt lat="46.845204" lon="15.822238">
        <ele>269.720276</ele>
        <time>2024-05-11T11:50:57.000Z</time>
      </trkpt>
      <trkpt lat="46.845054" lon="15.822119">
        <ele>269.666121</ele>
        <time>2024-05-11T11:50:59.000Z</time>
      </trkpt>
      <trkpt lat="46.844665" lon="15.821759">
        <ele>269.524283</ele>
        <time>2024-05-11T11:51:04.000Z</time>
      </trkpt>
      <trkpt lat="46.844551" lon="15.821695">
        <ele>269.489854</ele>
        <time>2024-05-11T11:51:05.000Z</time>
      </trkpt>
      <trkpt lat="46.844475" lon="15.821672">
        <ele>269.466093</ele>
        <time>2024-05-11T11:51:06.000Z</time>
      </trkpt>
      <trkpt lat="46.844383" lon="15.821667">
        <ele>269.436181</ele>
        <time>2024-05-11T11:51:07.000Z</time>
      </trkpt>
      <trkpt lat="46.844255" lon="15.82171">
        <ele>269.397313</ele>
        <time>2024-05-11T11:51:08.000Z</time>
      </trkpt>
      <trkpt lat="46.844164" lon="15.821779">
        <ele>269.334605</ele>
        <time>2024-05-11T11:51:09.000Z</time>
      </trkpt>
      <trkpt lat="46.844069" lon="15.821923">
        <ele>269.186294</ele>
        <time>2024-05-11T11:51:11.000Z</time>
      </trkpt>
      <trkpt lat="46.843974" lon="15.822096">
        <ele>269.021661</ele>
        <time>2024-05-11T11:51:13.000Z</time>
      </trkpt>
      <trkpt lat="46.843914" lon="15.822198">
        <ele>268.932203</ele>
        <time>2024-05-11T11:51:14.000Z</time>
      </trkpt>
      <trkpt lat="46.843878" lon="15.822257">
        <ele>268.868681</ele>
        <time>2024-05-11T11:51:15.000Z</time>
      </trkpt>
      <trkpt lat="46.843815" lon="15.82236">
        <ele>268.761417</ele>
        <time>2024-05-11T11:51:16.000Z</time>
      </trkpt>
      <trkpt lat="46.843649" lon="15.822586">
        <ele>268.525686</ele>
        <time>2024-05-11T11:51:19.000Z</time>
      </trkpt>
      <trkpt lat="46.843401" lon="15.822927">
        <ele>268.15555</ele>
        <time>2024-05-11T11:51:23.000Z</time>
      </trkpt>
      <trkpt lat="46.843371" lon="15.822955">
        <ele>268.114074</ele>
        <time>2024-05-11T11:51:23.000Z</time>
      </trkpt>
      <trkpt lat="46.84331" lon="15.823035">
        <ele>268.027667</ele>
        <time>2024-05-11T11:51:24.000Z</time>
      </trkpt>
      <trkpt lat="46.843261" lon="15.823121">
        <ele>267.932416</ele>
        <time>2024-05-11T11:51:25.000Z</time>
      </trkpt>
      <trkpt lat="46.843203" lon="15.823177">
        <ele>267.867524</ele>
        <time>2024-05-11T11:51:26.000Z</time>
      </trkpt>
      <trkpt lat="46.843069" lon="15.823325">
        <ele>267.685699</ele>
        <time>2024-05-11T11:51:28.000Z</time>
      </trkpt>
      <trkpt lat="46.843" lon="15.823401">
        <ele>267.596792</ele>
        <time>2024-05-11T11:51:29.000Z</time>
      </trkpt>
      <trkpt lat="46.842929" lon="15.823458">
        <ele>267.496872</ele>
        <time>2024-05-11T11:51:30.000Z</time>
      </trkpt>
      <trkpt lat="46.842902" lon="15.823491">
        <ele>267.455621</ele>
        <time>2024-05-11T11:51:30.000Z</time>
      </trkpt>
      <trkpt lat="46.84268" lon="15.8236">
        <ele>267.181799</ele>
        <time>2024-05-11T11:51:33.000Z</time>
      </trkpt>
      <trkpt lat="46.842639" lon="15.823636">
        <ele>267.111763</ele>
        <time>2024-05-11T11:51:34.000Z</time>
      </trkpt>
      <trkpt lat="46.842314" lon="15.823831">
        <ele>266.681701</ele>
        <time>2024-05-11T11:51:38.000Z</time>
      </trkpt>
      <trkpt lat="46.842046" lon="15.824147">
        <ele>266.270933</ele>
        <time>2024-05-11T11:51:42.000Z</time>
      </trkpt>
      <trkpt lat="46.842012" lon="15.824223">
        <ele>266.19472</ele>
        <time>2024-05-11T11:51:43.000Z</time>
      </trkpt>
      <trkpt lat="46.841951" lon="15.82436">
        <ele>266.044334</ele>
        <time>2024-05-11T11:51:44.000Z</time>
      </trkpt>
      <trkpt lat="46.841886" lon="15.824478">
        <ele>265.925881</ele>
        <time>2024-05-11T11:51:45.000Z</time>
      </trkpt>
      <trkpt lat="46.841814" lon="15.824586">
        <ele>265.801861</ele>
        <time>2024-05-11T11:51:46.000Z</time>
      </trkpt>
      <trkpt lat="46.841758" lon="15.824659">
        <ele>265.704236</ele>
        <time>2024-05-11T11:51:47.000Z</time>
      </trkpt>
      <trkpt lat="46.841685" lon="15.824712">
        <ele>265.606739</ele>
        <time>2024-05-11T11:51:48.000Z</time>
      </trkpt>
      <trkpt lat="46.841364" lon="15.824756">
        <ele>265.209117</ele>
        <time>2024-05-11T11:51:52.000Z</time>
      </trkpt>
      <trkpt lat="46.841158" lon="15.824707">
        <ele>265.044848</ele>
        <time>2024-05-11T11:51:54.000Z</time>
      </trkpt>
      <trkpt lat="46.841057" lon="15.824668">
        <ele>264.953274</ele>
        <time>2024-05-11T11:51:55.000Z</time>
      </trkpt>
      <trkpt lat="46.840967" lon="15.824642">
        <ele>264.877712</ele>
        <time>2024-05-11T11:51:56.000Z</time>
      </trkpt>
      <trkpt lat="46.840672" lon="15.824497">
        <ele>264.633044</ele>
        <time>2024-05-11T11:51:59.000Z</time>
      </trkpt>
      <trkpt lat="46.839944" lon="15.824154">
        <ele>264.012009</ele>
        <time>2024-05-11T11:52:08.000Z</time>
      </trkpt>
      <trkpt lat="46.839671" lon="15.824063">
        <ele>263.798898</ele>
        <time>2024-05-11T11:52:11.000Z</time>
      </trkpt>
      <trkpt lat="46.839299" lon="15.823945">
        <ele>263.513293</ele>
        <time>2024-05-11T11:52:15.000Z</time>
      </trkpt>
      <trkpt lat="46.837763" lon="15.823411">
        <ele>262.484263</ele>
        <time>2024-05-11T11:52:33.000Z</time>
      </trkpt>
      <trkpt lat="46.837548" lon="15.823277">
        <ele>262.513227</ele>
        <time>2024-05-11T11:52:36.000Z</time>
      </trkpt>
      <trkpt lat="46.837254" lon="15.82311">
        <ele>262.553198</ele>
        <time>2024-05-11T11:52:40.000Z</time>
      </trkpt>
      <trkpt lat="46.837035" lon="15.823005">
        <ele>262.58253</ele>
        <time>2024-05-11T11:52:43.000Z</time>
      </trkpt>
      <trkpt lat="46.836912" lon="15.822946">
        <ele>262.599819</ele>
        <time>2024-05-11T11:52:44.000Z</time>
      </trkpt>
      <trkpt lat="46.836779" lon="15.822917">
        <ele>262.616703</ele>
        <time>2024-05-11T11:52:45.000Z</time>
      </trkpt>
      <trkpt lat="46.836139" lon="15.822772">
        <ele>262.701126</ele>
        <time>2024-05-11T11:52:52.000Z</time>
      </trkpt>
      <trkpt lat="46.836021" lon="15.822708">
        <ele>262.796393</ele>
        <time>2024-05-11T11:52:53.000Z</time>
      </trkpt>
      <trkpt lat="46.835958" lon="15.822683">
        <ele>262.836201</ele>
        <time>2024-05-11T11:52:54.000Z</time>
      </trkpt>
      <trkpt lat="46.83562" lon="15.822488">
        <ele>263.101815</ele>
        <time>2024-05-11T11:52:58.000Z</time>
      </trkpt>
      <trkpt lat="46.835264" lon="15.822434">
        <ele>263.35294</ele>
        <time>2024-05-11T11:53:02.000Z</time>
      </trkpt>
      <trkpt lat="46.834867" lon="15.822455">
        <ele>263.62752</ele>
        <time>2024-05-11T11:53:06.000Z</time>
      </trkpt>
      <trkpt lat="46.834535" lon="15.822445">
        <ele>263.862301</ele>
        <time>2024-05-11T11:53:10.000Z</time>
      </trkpt>
      <trkpt lat="46.83435" lon="15.822415">
        <ele>263.971791</ele>
        <time>2024-05-11T11:53:12.000Z</time>
      </trkpt>
      <trkpt lat="46.834024" lon="15.822327">
        <ele>263.960038</ele>
        <time>2024-05-11T11:53:16.000Z</time>
      </trkpt>
      <trkpt lat="46.833718" lon="15.822205">
        <ele>263.94853</ele>
        <time>2024-05-11T11:53:20.000Z</time>
      </trkpt>
      <trkpt lat="46.83367" lon="15.822189">
        <ele>263.946751</ele>
        <time>2024-05-11T11:53:21.000Z</time>
      </trkpt>
      <trkpt lat="46.833483" lon="15.822125">
        <ele>263.939444</ele>
        <time>2024-05-11T11:53:23.000Z</time>
      </trkpt>
      <trkpt lat="46.832748" lon="15.821798">
        <ele>263.911181</ele>
        <time>2024-05-11T11:53:32.000Z</time>
      </trkpt>
      <trkpt lat="46.832474" lon="15.821631">
        <ele>263.837201</ele>
        <time>2024-05-11T11:53:35.000Z</time>
      </trkpt>
      <trkpt lat="46.832316" lon="15.821545">
        <ele>263.771065</ele>
        <time>2024-05-11T11:53:37.000Z</time>
      </trkpt>
      <trkpt lat="46.831826" lon="15.821187">
        <ele>263.572228</ele>
        <time>2024-05-11T11:53:43.000Z</time>
      </trkpt>
      <trkpt lat="46.83167" lon="15.821076">
        <ele>263.510117</ele>
        <time>2024-05-11T11:53:45.000Z</time>
      </trkpt>
      <trkpt lat="46.831476" lon="15.820923">
        <ele>263.427339</ele>
        <time>2024-05-11T11:53:47.000Z</time>
      </trkpt>
      <trkpt lat="46.831311" lon="15.820839">
        <ele>263.361953</ele>
        <time>2024-05-11T11:53:49.000Z</time>
      </trkpt>
      <trkpt lat="46.831219" lon="15.820798">
        <ele>263.32827</ele>
        <time>2024-05-11T11:53:50.000Z</time>
      </trkpt>
      <trkpt lat="46.831193" lon="15.82079">
        <ele>263.318696</ele>
        <time>2024-05-11T11:53:50.000Z</time>
      </trkpt>
      <trkpt lat="46.831082" lon="15.820727">
        <ele>263.270784</ele>
        <time>2024-05-11T11:53:51.000Z</time>
      </trkpt>
      <trkpt lat="46.830937" lon="15.820684">
        <ele>263.210699</ele>
        <time>2024-05-11T11:53:53.000Z</time>
      </trkpt>
      <trkpt lat="46.830854" lon="15.820632">
        <ele>263.164703</ele>
        <time>2024-05-11T11:53:54.000Z</time>
      </trkpt>
      <trkpt lat="46.830376" lon="15.820487">
        <ele>262.937022</ele>
        <time>2024-05-11T11:53:59.000Z</time>
      </trkpt>
      <trkpt lat="46.82983" lon="15.820394">
        <ele>262.669832</ele>
        <time>2024-05-11T11:54:05.000Z</time>
      </trkpt>
      <trkpt lat="46.829572" lon="15.820368">
        <ele>262.541321</ele>
        <time>2024-05-11T11:54:08.000Z</time>
      </trkpt>
      <trkpt lat="46.828993" lon="15.820311">
        <ele>262.449538</ele>
        <time>2024-05-11T11:54:14.000Z</time>
      </trkpt>
      <trkpt lat="46.82873" lon="15.82024">
        <ele>262.531054</ele>
        <time>2024-05-11T11:54:17.000Z</time>
      </trkpt>
      <trkpt lat="46.828384" lon="15.820138">
        <ele>262.638109</ele>
        <time>2024-05-11T11:54:21.000Z</time>
      </trkpt>
      <trkpt lat="46.827788" lon="15.819945">
        <ele>262.830505</ele>
        <time>2024-05-11T11:54:28.000Z</time>
      </trkpt>
      <trkpt lat="46.827516" lon="15.819903">
        <ele>262.915071</ele>
        <time>2024-05-11T11:54:31.000Z</time>
      </trkpt>
      <trkpt lat="46.82737" lon="15.8199">
        <ele>262.970611</ele>
        <time>2024-05-11T11:54:33.000Z</time>
      </trkpt>
      <trkpt lat="46.827253" lon="15.819895">
        <ele>263.019441</ele>
        <time>2024-05-11T11:54:34.000Z</time>
      </trkpt>
      <trkpt lat="46.826787" lon="15.819885">
        <ele>263.214342</ele>
        <time>2024-05-11T11:54:39.000Z</time>
      </trkpt>
      <trkpt lat="46.826722" lon="15.819867">
        <ele>263.241104</ele>
        <time>2024-05-11T11:54:40.000Z</time>
      </trkpt>
      <trkpt lat="46.826493" lon="15.819864">
        <ele>263.340982</ele>
        <time>2024-05-11T11:54:43.000Z</time>
      </trkpt>
      <trkpt lat="46.826166" lon="15.819831">
        <ele>263.478239</ele>
        <time>2024-05-11T11:54:47.000Z</time>
      </trkpt>
      <trkpt lat="46.825944" lon="15.819837">
        <ele>263.572056</ele>
        <time>2024-05-11T11:54:49.000Z</time>
      </trkpt>
      <trkpt lat="46.825897" lon="15.819838">
        <ele>263.59542</ele>
        <time>2024-05-11T11:54:50.000Z</time>
      </trkpt>
      <trkpt lat="46.825571" lon="15.819858">
        <ele>263.648408</ele>
        <time>2024-05-11T11:54:54.000Z</time>
      </trkpt>
      <trkpt lat="46.825343" lon="15.819832">
        <ele>263.541711</ele>
        <time>2024-05-11T11:54:57.000Z</time>
      </trkpt>
      <trkpt lat="46.825085" lon="15.819715">
        <ele>263.414277</ele>
        <time>2024-05-11T11:55:00.000Z</time>
      </trkpt>
      <trkpt lat="46.824826" lon="15.819612">
        <ele>263.278757</ele>
        <time>2024-05-11T11:55:03.000Z</time>
      </trkpt>
      <trkpt lat="46.82452" lon="15.819468">
        <ele>263.128149</ele>
        <time>2024-05-11T11:55:07.000Z</time>
      </trkpt>
      <trkpt lat="46.824396" lon="15.819413">
        <ele>263.067263</ele>
        <time>2024-05-11T11:55:08.000Z</time>
      </trkpt>
      <trkpt lat="46.824317" lon="15.819356">
        <ele>263.024235</ele>
        <time>2024-05-11T11:55:09.000Z</time>
      </trkpt>
      <trkpt lat="46.824237" lon="15.819316">
        <ele>262.985129</ele>
        <time>2024-05-11T11:55:10.000Z</time>
      </trkpt>
      <trkpt lat="46.824163" lon="15.81927">
        <ele>262.940406</ele>
        <time>2024-05-11T11:55:11.000Z</time>
      </trkpt>
      <trkpt lat="46.823975" lon="15.819138">
        <ele>262.840704</ele>
        <time>2024-05-11T11:55:13.000Z</time>
      </trkpt>
      <trkpt lat="46.82371" lon="15.818983">
        <ele>262.786996</ele>
        <time>2024-05-11T11:55:16.000Z</time>
      </trkpt>
      <trkpt lat="46.823555" lon="15.818923">
        <ele>262.761143</ele>
        <time>2024-05-11T11:55:18.000Z</time>
      </trkpt>
      <trkpt lat="46.82339" lon="15.818882">
        <ele>262.729256</ele>
        <time>2024-05-11T11:55:20.000Z</time>
      </trkpt>
      <trkpt lat="46.823194" lon="15.818855">
        <ele>262.695776</ele>
        <time>2024-05-11T11:55:22.000Z</time>
      </trkpt>
      <trkpt lat="46.823048" lon="15.818829">
        <ele>262.671425</ele>
        <time>2024-05-11T11:55:24.000Z</time>
      </trkpt>
      <trkpt lat="46.822746" lon="15.818786">
        <ele>262.620557</ele>
        <time>2024-05-11T11:55:27.000Z</time>
      </trkpt>
      <trkpt lat="46.822366" lon="15.818712">
        <ele>262.55254</ele>
        <time>2024-05-11T11:55:31.000Z</time>
      </trkpt>
      <trkpt lat="46.822162" lon="15.818685">
        <ele>262.538002</ele>
        <time>2024-05-11T11:55:33.000Z</time>
      </trkpt>
      <trkpt lat="46.821596" lon="15.818575">
        <ele>263.007505</ele>
        <time>2024-05-11T11:55:39.000Z</time>
      </trkpt>
      <trkpt lat="46.821112" lon="15.818485">
        <ele>263.399634</ele>
        <time>2024-05-11T11:55:44.000Z</time>
      </trkpt>
      <trkpt lat="46.820907" lon="15.818464">
        <ele>263.556456</ele>
        <time>2024-05-11T11:55:46.000Z</time>
      </trkpt>
      <trkpt lat="46.820723" lon="15.818382">
        <ele>263.717776</ele>
        <time>2024-05-11T11:55:48.000Z</time>
      </trkpt>
      <trkpt lat="46.820611" lon="15.818364">
        <ele>263.80718</ele>
        <time>2024-05-11T11:55:49.000Z</time>
      </trkpt>
      <trkpt lat="46.82008" lon="15.818045">
        <ele>264.591203</ele>
        <time>2024-05-11T11:55:55.000Z</time>
      </trkpt>
      <trkpt lat="46.819636" lon="15.817713">
        <ele>265.424833</ele>
        <time>2024-05-11T11:56:01.000Z</time>
      </trkpt>
      <trkpt lat="46.818896" lon="15.817173">
        <ele>266.825841</ele>
        <time>2024-05-11T11:56:10.000Z</time>
      </trkpt>
      <trkpt lat="46.818329" lon="15.816745">
        <ele>268.17558</ele>
        <time>2024-05-11T11:56:17.000Z</time>
      </trkpt>
      <trkpt lat="46.818297" lon="15.816722">
        <ele>268.248103</ele>
        <time>2024-05-11T11:56:17.000Z</time>
      </trkpt>
      <trkpt lat="46.818121" lon="15.816573">
        <ele>268.698958</ele>
        <time>2024-05-11T11:56:19.000Z</time>
      </trkpt>
      <trkpt lat="46.818052" lon="15.816526">
        <ele>268.832062</ele>
        <time>2024-05-11T11:56:20.000Z</time>
      </trkpt>
      <trkpt lat="46.817802" lon="15.816279">
        <ele>269.485065</ele>
        <time>2024-05-11T11:56:23.000Z</time>
      </trkpt>
      <trkpt lat="46.817334" lon="15.815705">
        <ele>270.809549</ele>
        <time>2024-05-11T11:56:30.000Z</time>
      </trkpt>
      <trkpt lat="46.817316" lon="15.815676">
        <ele>270.857733</ele>
        <time>2024-05-11T11:56:30.000Z</time>
      </trkpt>
      <trkpt lat="46.81651" lon="15.814625">
        <ele>272.498755</ele>
        <time>2024-05-11T11:56:42.000Z</time>
      </trkpt>
      <trkpt lat="46.816107" lon="15.814231">
        <ele>273.243564</ele>
        <time>2024-05-11T11:56:47.000Z</time>
      </trkpt>
      <trkpt lat="46.815369" lon="15.813813">
        <ele>273.840322</ele>
        <time>2024-05-11T11:56:56.000Z</time>
      </trkpt>
      <trkpt lat="46.814542" lon="15.813716">
        <ele>274.187387</ele>
        <time>2024-05-11T11:57:05.000Z</time>
      </trkpt>
      <trkpt lat="46.813881" lon="15.813696">
        <ele>274.38995</ele>
        <time>2024-05-11T11:57:12.000Z</time>
      </trkpt>
      <trkpt lat="46.813404" lon="15.813685">
        <ele>274.437163</ele>
        <time>2024-05-11T11:57:17.000Z</time>
      </trkpt>
      <trkpt lat="46.812814" lon="15.813677">
        <ele>274.494321</ele>
        <time>2024-05-11T11:57:24.000Z</time>
      </trkpt>
      <trkpt lat="46.812652" lon="15.813663">
        <ele>274.510386</ele>
        <time>2024-05-11T11:57:26.000Z</time>
      </trkpt>
      <trkpt lat="46.81244" lon="15.813649">
        <ele>274.531326</ele>
        <time>2024-05-11T11:57:28.000Z</time>
      </trkpt>
      <trkpt lat="46.812419" lon="15.813648">
        <ele>274.533492</ele>
        <time>2024-05-11T11:57:28.000Z</time>
      </trkpt>
      <trkpt lat="46.8116" lon="15.81348">
        <ele>274.206541</ele>
        <time>2024-05-11T11:57:37.000Z</time>
      </trkpt>
      <trkpt lat="46.811275" lon="15.813431">
        <ele>274.056312</ele>
        <time>2024-05-11T11:57:41.000Z</time>
      </trkpt>
      <trkpt lat="46.811271" lon="15.813423">
        <ele>274.052102</ele>
        <time>2024-05-11T11:57:41.000Z</time>
      </trkpt>
      <trkpt lat="46.811169" lon="15.813361">
        <ele>274.001919</ele>
        <time>2024-05-11T11:57:42.000Z</time>
      </trkpt>
      <trkpt lat="46.810869" lon="15.813235">
        <ele>273.855062</ele>
        <time>2024-05-11T11:57:45.000Z</time>
      </trkpt>
      <trkpt lat="46.810344" lon="15.812854">
        <ele>273.869953</ele>
        <time>2024-05-11T11:57:52.000Z</time>
      </trkpt>
      <trkpt lat="46.810276" lon="15.812819">
        <ele>273.909983</ele>
        <time>2024-05-11T11:57:53.000Z</time>
      </trkpt>
      <trkpt lat="46.809742" lon="15.812464">
        <ele>274.252494</ele>
        <time>2024-05-11T11:58:00.000Z</time>
      </trkpt>
      <trkpt lat="46.809704" lon="15.81245">
        <ele>274.275243</ele>
        <time>2024-05-11T11:58:00.000Z</time>
      </trkpt>
      <trkpt lat="46.809542" lon="15.812334">
        <ele>274.385781</ele>
        <time>2024-05-11T11:58:02.000Z</time>
      </trkpt>
      <trkpt lat="46.809383" lon="15.812227">
        <ele>274.480615</ele>
        <time>2024-05-11T11:58:04.000Z</time>
      </trkpt>
      <trkpt lat="46.809291" lon="15.812205">
        <ele>274.534392</ele>
        <time>2024-05-11T11:58:05.000Z</time>
      </trkpt>
      <trkpt lat="46.809146" lon="15.812201">
        <ele>274.625858</ele>
        <time>2024-05-11T11:58:07.000Z</time>
      </trkpt>
      <trkpt lat="46.809047" lon="15.812232">
        <ele>274.681353</ele>
        <time>2024-05-11T11:58:08.000Z</time>
      </trkpt>
      <trkpt lat="46.80894" lon="15.812299">
        <ele>274.752282</ele>
        <time>2024-05-11T11:58:09.000Z</time>
      </trkpt>
      <trkpt lat="46.808484" lon="15.812779">
        <ele>274.685216</ele>
        <time>2024-05-11T11:58:15.000Z</time>
      </trkpt>
      <trkpt lat="46.80843" lon="15.812828">
        <ele>274.678716</ele>
        <time>2024-05-11T11:58:16.000Z</time>
      </trkpt>
      <trkpt lat="46.808097" lon="15.813169">
        <ele>274.622207</ele>
        <time>2024-05-11T11:58:21.000Z</time>
      </trkpt>
      <trkpt lat="46.807787" lon="15.813533">
        <ele>274.56983</ele>
        <time>2024-05-11T11:58:25.000Z</time>
      </trkpt>
      <trkpt lat="46.807617" lon="15.813881">
        <ele>274.530505</ele>
        <time>2024-05-11T11:58:28.000Z</time>
      </trkpt>
      <trkpt lat="46.807501" lon="15.814216">
        <ele>274.048944</ele>
        <time>2024-05-11T11:58:31.000Z</time>
      </trkpt>
      <trkpt lat="46.807305" lon="15.814628">
        <ele>273.075492</ele>
        <time>2024-05-11T11:58:35.000Z</time>
      </trkpt>
      <trkpt lat="46.807108" lon="15.814947">
        <ele>272.242143</ele>
        <time>2024-05-11T11:58:38.000Z</time>
      </trkpt>
      <trkpt lat="46.807053" lon="15.81503">
        <ele>272.000911</ele>
        <time>2024-05-11T11:58:39.000Z</time>
      </trkpt>
      <trkpt lat="46.805539" lon="15.816587">
        <ele>266.729055</ele>
        <time>2024-05-11T11:59:00.000Z</time>
      </trkpt>
      <trkpt lat="46.804131" lon="15.817735">
        <ele>262.695035</ele>
        <time>2024-05-11T11:59:18.000Z</time>
      </trkpt>
      <trkpt lat="46.803915" lon="15.817895">
        <ele>262.193377</ele>
        <time>2024-05-11T11:59:21.000Z</time>
      </trkpt>
      <trkpt lat="46.80388" lon="15.817928">
        <ele>262.126104</ele>
        <time>2024-05-11T11:59:21.000Z</time>
      </trkpt>
      <trkpt lat="46.803582" lon="15.818079">
        <ele>261.472756</ele>
        <time>2024-05-11T11:59:25.000Z</time>
      </trkpt>
      <trkpt lat="46.803487" lon="15.818132">
        <ele>261.256021</ele>
        <time>2024-05-11T11:59:26.000Z</time>
      </trkpt>
      <trkpt lat="46.803454" lon="15.818151">
        <ele>261.176624</ele>
        <time>2024-05-11T11:59:26.000Z</time>
      </trkpt>
      <trkpt lat="46.802741" lon="15.818494">
        <ele>260.084533</ele>
        <time>2024-05-11T11:59:34.000Z</time>
      </trkpt>
      <trkpt lat="46.801816" lon="15.81877">
        <ele>259.118865</ele>
        <time>2024-05-11T11:59:44.000Z</time>
      </trkpt>
      <trkpt lat="46.800137" lon="15.819073">
        <ele>257.399221</ele>
        <time>2024-05-11T12:00:03.000Z</time>
      </trkpt>
      <trkpt lat="46.800092" lon="15.819087">
        <ele>257.346539</ele>
        <time>2024-05-11T12:00:04.000Z</time>
      </trkpt>
      <trkpt lat="46.79941" lon="15.819182">
        <ele>256.504116</ele>
        <time>2024-05-11T12:00:12.000Z</time>
      </trkpt>
      <trkpt lat="46.79899" lon="15.819264">
        <ele>255.783225</ele>
        <time>2024-05-11T12:00:17.000Z</time>
      </trkpt>
      <trkpt lat="46.7984" lon="15.819335">
        <ele>254.771877</ele>
        <time>2024-05-11T12:00:24.000Z</time>
      </trkpt>
      <trkpt lat="46.798133" lon="15.819268">
        <ele>254.299089</ele>
        <time>2024-05-11T12:00:27.000Z</time>
      </trkpt>
      <trkpt lat="46.79724" lon="15.818858">
        <ele>253.25866</ele>
        <time>2024-05-11T12:00:37.000Z</time>
      </trkpt>
      <trkpt lat="46.796857" lon="15.81884">
        <ele>252.96445</ele>
        <time>2024-05-11T12:00:41.000Z</time>
      </trkpt>
      <trkpt lat="46.796763" lon="15.818854">
        <ele>252.885504</ele>
        <time>2024-05-11T12:00:42.000Z</time>
      </trkpt>
      <trkpt lat="46.796596" lon="15.818931">
        <ele>252.745086</ele>
        <time>2024-05-11T12:00:44.000Z</time>
      </trkpt>
      <trkpt lat="46.795485" lon="15.819414">
        <ele>252.370802</ele>
        <time>2024-05-11T12:00:57.000Z</time>
      </trkpt>
      <trkpt lat="46.795238" lon="15.819487">
        <ele>252.382508</ele>
        <time>2024-05-11T12:01:00.000Z</time>
      </trkpt>
      <trkpt lat="46.79484" lon="15.819576">
        <ele>252.40029</ele>
        <time>2024-05-11T12:01:04.000Z</time>
      </trkpt>
      <trkpt lat="46.79466" lon="15.819645">
        <ele>252.408536</ele>
        <time>2024-05-11T12:01:06.000Z</time>
      </trkpt>
      <trkpt lat="46.794333" lon="15.819809">
        <ele>252.401147</ele>
        <time>2024-05-11T12:01:10.000Z</time>
      </trkpt>
      <trkpt lat="46.794027" lon="15.820066">
        <ele>252.028901</ele>
        <time>2024-05-11T12:01:14.000Z</time>
      </trkpt>
      <trkpt lat="46.793887" lon="15.820272">
        <ele>251.827527</ele>
        <time>2024-05-11T12:01:16.000Z</time>
      </trkpt>
      <trkpt lat="46.793612" lon="15.820675">
        <ele>251.430139</ele>
        <time>2024-05-11T12:01:20.000Z</time>
      </trkpt>
      <trkpt lat="46.793336" lon="15.821107">
        <ele>251.015807</ele>
        <time>2024-05-11T12:01:24.000Z</time>
      </trkpt>
      <trkpt lat="46.792797" lon="15.821676">
        <ele>250.24258</ele>
        <time>2024-05-11T12:01:31.000Z</time>
      </trkpt>
      <trkpt lat="46.792075" lon="15.822283">
        <ele>249.089141</ele>
        <time>2024-05-11T12:01:40.000Z</time>
      </trkpt>
      <trkpt lat="46.790541" lon="15.823557">
        <ele>247.15193</ele>
        <time>2024-05-11T12:02:00.000Z</time>
      </trkpt>
      <trkpt lat="46.790513" lon="15.823584">
        <ele>247.126587</ele>
        <time>2024-05-11T12:02:00.000Z</time>
      </trkpt>
      <trkpt lat="46.789931" lon="15.82399">
        <ele>246.559127</ele>
        <time>2024-05-11T12:02:07.000Z</time>
      </trkpt>
      <trkpt lat="46.789442" lon="15.824259">
        <ele>246.298877</ele>
        <time>2024-05-11T12:02:13.000Z</time>
      </trkpt>
      <trkpt lat="46.788567" lon="15.824632">
        <ele>245.894663</ele>
        <time>2024-05-11T12:02:23.000Z</time>
      </trkpt>
      <trkpt lat="46.788519" lon="15.82465">
        <ele>245.873598</ele>
        <time>2024-05-11T12:02:24.000Z</time>
      </trkpt>
      <trkpt lat="46.788369" lon="15.824715">
        <ele>245.805893</ele>
        <time>2024-05-11T12:02:26.000Z</time>
      </trkpt>
      <trkpt lat="46.787321" lon="15.825001">
        <ele>245.690728</ele>
        <time>2024-05-11T12:02:38.000Z</time>
      </trkpt>
      <trkpt lat="46.786614" lon="15.825184">
        <ele>245.685501</ele>
        <time>2024-05-11T12:02:46.000Z</time>
      </trkpt>
      <trkpt lat="46.785095" lon="15.825627">
        <ele>245.62103</ele>
        <time>2024-05-11T12:03:03.000Z</time>
      </trkpt>
      <trkpt lat="46.784601" lon="15.825687">
        <ele>245.596718</ele>
        <time>2024-05-11T12:03:09.000Z</time>
      </trkpt>
      <trkpt lat="46.784108" lon="15.825535">
        <ele>245.550446</ele>
        <time>2024-05-11T12:03:15.000Z</time>
      </trkpt>
      <trkpt lat="46.78246" lon="15.824746">
        <ele>245.401293</ele>
        <time>2024-05-11T12:03:34.000Z</time>
      </trkpt>
      <trkpt lat="46.782124" lon="15.824411">
        <ele>245.375709</ele>
        <time>2024-05-11T12:03:39.000Z</time>
      </trkpt>
      <trkpt lat="46.78177" lon="15.823859">
        <ele>245.344389</ele>
        <time>2024-05-11T12:03:45.000Z</time>
      </trkpt>
      <trkpt lat="46.781564" lon="15.823651">
        <ele>245.328487</ele>
        <time>2024-05-11T12:03:48.000Z</time>
      </trkpt>
      <trkpt lat="46.78109" lon="15.823414">
        <ele>245.213293</ele>
        <time>2024-05-11T12:03:54.000Z</time>
      </trkpt>
      <trkpt lat="46.780825" lon="15.823365">
        <ele>245.121389</ele>
        <time>2024-05-11T12:03:57.000Z</time>
      </trkpt>
      <trkpt lat="46.780253" lon="15.823472">
        <ele>244.917394</ele>
        <time>2024-05-11T12:04:03.000Z</time>
      </trkpt>
      <trkpt lat="46.779053" lon="15.82405">
        <ele>244.500484</ele>
        <time>2024-05-11T12:04:17.000Z</time>
      </trkpt>
      <trkpt lat="46.778577" lon="15.824158">
        <ele>244.344566</ele>
        <time>2024-05-11T12:04:22.000Z</time>
      </trkpt>
      <trkpt lat="46.778501" lon="15.824168">
        <ele>244.316677</ele>
        <time>2024-05-11T12:04:23.000Z</time>
      </trkpt>
      <trkpt lat="46.778394" lon="15.824164">
        <ele>244.286215</ele>
        <time>2024-05-11T12:04:24.000Z</time>
      </trkpt>
      <trkpt lat="46.777524" lon="15.823919">
        <ele>244.012469</ele>
        <time>2024-05-11T12:04:34.000Z</time>
      </trkpt>
      <trkpt lat="46.777049" lon="15.823742">
        <ele>243.876891</ele>
        <time>2024-05-11T12:04:39.000Z</time>
      </trkpt>
      <trkpt lat="46.776507" lon="15.823532">
        <ele>243.713668</ele>
        <time>2024-05-11T12:04:45.000Z</time>
      </trkpt>
      <trkpt lat="46.776131" lon="15.823439">
        <ele>243.604306</ele>
        <time>2024-05-11T12:04:49.000Z</time>
      </trkpt>
      <trkpt lat="46.776003" lon="15.823412">
        <ele>243.538402</ele>
        <time>2024-05-11T12:04:50.000Z</time>
      </trkpt>
      <trkpt lat="46.774654" lon="15.823301">
        <ele>242.774166</ele>
        <time>2024-05-11T12:05:05.000Z</time>
      </trkpt>
      <trkpt lat="46.774535" lon="15.823294">
        <ele>242.703954</ele>
        <time>2024-05-11T12:05:06.000Z</time>
      </trkpt>
      <trkpt lat="46.77423" lon="15.823351">
        <ele>242.477763</ele>
        <time>2024-05-11T12:05:09.000Z</time>
      </trkpt>
      <trkpt lat="46.773968" lon="15.823463">
        <ele>242.207388</ele>
        <time>2024-05-11T12:05:12.000Z</time>
      </trkpt>
      <trkpt lat="46.773226" lon="15.82377">
        <ele>241.465025</ele>
        <time>2024-05-11T12:05:21.000Z</time>
      </trkpt>
      <trkpt lat="46.773077" lon="15.823828">
        <ele>241.309286</ele>
        <time>2024-05-11T12:05:23.000Z</time>
      </trkpt>
      <trkpt lat="46.772641" lon="15.824001">
        <ele>240.863982</ele>
        <time>2024-05-11T12:05:28.000Z</time>
      </trkpt>
      <trkpt lat="46.771581" lon="15.824566">
        <ele>240.164785</ele>
        <time>2024-05-11T12:05:41.000Z</time>
      </trkpt>
      <trkpt lat="46.770856" lon="15.824858">
        <ele>239.755588</ele>
        <time>2024-05-11T12:05:49.000Z</time>
      </trkpt>
      <trkpt lat="46.77046" lon="15.824939">
        <ele>240.015709</ele>
        <time>2024-05-11T12:05:53.000Z</time>
      </trkpt>
      <trkpt lat="46.76978" lon="15.824844">
        <ele>240.444287</ele>
        <time>2024-05-11T12:06:01.000Z</time>
      </trkpt>
      <trkpt lat="46.769714" lon="15.824825">
        <ele>240.483566</ele>
        <time>2024-05-11T12:06:02.000Z</time>
      </trkpt>
      <trkpt lat="46.769544" lon="15.824803">
        <ele>240.595033</ele>
        <time>2024-05-11T12:06:04.000Z</time>
      </trkpt>
      <trkpt lat="46.768966" lon="15.824951">
        <ele>240.860583</ele>
        <time>2024-05-11T12:06:11.000Z</time>
      </trkpt>
      <trkpt lat="46.768673" lon="15.825037">
        <ele>240.841741</ele>
        <time>2024-05-11T12:06:14.000Z</time>
      </trkpt>
      <trkpt lat="46.76839" lon="15.825105">
        <ele>240.824163</ele>
        <time>2024-05-11T12:06:17.000Z</time>
      </trkpt>
      <trkpt lat="46.766671" lon="15.825358">
        <ele>240.498404</ele>
        <time>2024-05-11T12:06:36.000Z</time>
      </trkpt>
      <trkpt lat="46.766651" lon="15.825379">
        <ele>240.491403</ele>
        <time>2024-05-11T12:06:36.000Z</time>
      </trkpt>
      <trkpt lat="46.766246" lon="15.825571">
        <ele>240.31866</ele>
        <time>2024-05-11T12:06:41.000Z</time>
      </trkpt>
      <trkpt lat="46.765666" lon="15.825954">
        <ele>240.073963</ele>
        <time>2024-05-11T12:06:48.000Z</time>
      </trkpt>
      <trkpt lat="46.765477" lon="15.826073">
        <ele>239.999589</ele>
        <time>2024-05-11T12:06:50.000Z</time>
      </trkpt>
      <trkpt lat="46.76478" lon="15.826533">
        <ele>239.749562</ele>
        <time>2024-05-11T12:06:59.000Z</time>
      </trkpt>
      <trkpt lat="46.764543" lon="15.826712">
        <ele>239.661991</ele>
        <time>2024-05-11T12:07:02.000Z</time>
      </trkpt>
      <trkpt lat="46.764156" lon="15.82706">
        <ele>239.513258</ele>
        <time>2024-05-11T12:07:07.000Z</time>
      </trkpt>
      <trkpt lat="46.763242" lon="15.828005">
        <ele>238.972107</ele>
        <time>2024-05-11T12:07:19.000Z</time>
      </trkpt>
      <trkpt lat="46.763225" lon="15.828029">
        <ele>238.956002</ele>
        <time>2024-05-11T12:07:19.000Z</time>
      </trkpt>
      <trkpt lat="46.763027" lon="15.828184">
        <ele>238.840191</ele>
        <time>2024-05-11T12:07:21.000Z</time>
      </trkpt>
      <trkpt lat="46.76237" lon="15.828515">
        <ele>238.527309</ele>
        <time>2024-05-11T12:07:29.000Z</time>
      </trkpt>
      <trkpt lat="46.761941" lon="15.82858">
        <ele>238.485189</ele>
        <time>2024-05-11T12:07:34.000Z</time>
      </trkpt>
      <trkpt lat="46.761679" lon="15.828605">
        <ele>238.45988</ele>
        <time>2024-05-11T12:07:37.000Z</time>
      </trkpt>
      <trkpt lat="46.761238" lon="15.828633">
        <ele>238.417468</ele>
        <time>2024-05-11T12:07:42.000Z</time>
      </trkpt>
      <trkpt lat="46.760478" lon="15.828669">
        <ele>238.65112</ele>
        <time>2024-05-11T12:07:50.000Z</time>
      </trkpt>
      <trkpt lat="46.759953" lon="15.82877">
        <ele>239.412408</ele>
        <time>2024-05-11T12:07:56.000Z</time>
      </trkpt>
      <trkpt lat="46.75934" lon="15.828952">
        <ele>240.316535</ele>
        <time>2024-05-11T12:08:03.000Z</time>
      </trkpt>
      <trkpt lat="46.759018" lon="15.829051">
        <ele>240.795142</ele>
        <time>2024-05-11T12:08:07.000Z</time>
      </trkpt>
      <trkpt lat="46.758813" lon="15.829095">
        <ele>241.10655</ele>
        <time>2024-05-11T12:08:09.000Z</time>
      </trkpt>
      <trkpt lat="46.758677" lon="15.829119">
        <ele>241.333704</ele>
        <time>2024-05-11T12:08:11.000Z</time>
      </trkpt>
      <trkpt lat="46.758272" lon="15.829171">
        <ele>242.006641</ele>
        <time>2024-05-11T12:08:16.000Z</time>
      </trkpt>
      <trkpt lat="46.757955" lon="15.829172">
        <ele>242.52814</ele>
        <time>2024-05-11T12:08:20.000Z</time>
      </trkpt>
      <trkpt lat="46.757666" lon="15.829153">
        <ele>243.006255</ele>
        <time>2024-05-11T12:08:23.000Z</time>
      </trkpt>
      <trkpt lat="46.757514" lon="15.829119">
        <ele>243.252591</ele>
        <time>2024-05-11T12:08:25.000Z</time>
      </trkpt>
      <trkpt lat="46.757252" lon="15.829075">
        <ele>243.691551</ele>
        <time>2024-05-11T12:08:28.000Z</time>
      </trkpt>
      <trkpt lat="46.756791" lon="15.828938">
        <ele>243.870065</ele>
        <time>2024-05-11T12:08:33.000Z</time>
      </trkpt>
      <trkpt lat="46.756548" lon="15.828863">
        <ele>243.840539</ele>
        <time>2024-05-11T12:08:36.000Z</time>
      </trkpt>
      <trkpt lat="46.75639" lon="15.828805">
        <ele>243.822287</ele>
        <time>2024-05-11T12:08:38.000Z</time>
      </trkpt>
      <trkpt lat="46.756245" lon="15.828782">
        <ele>243.804206</ele>
        <time>2024-05-11T12:08:40.000Z</time>
      </trkpt>
      <trkpt lat="46.756119" lon="15.828763">
        <ele>243.788741</ele>
        <time>2024-05-11T12:08:41.000Z</time>
      </trkpt>
      <trkpt lat="46.756007" lon="15.828758">
        <ele>243.777007</ele>
        <time>2024-05-11T12:08:42.000Z</time>
      </trkpt>
      <trkpt lat="46.755876" lon="15.828776">
        <ele>243.760125</ele>
        <time>2024-05-11T12:08:43.000Z</time>
      </trkpt>
      <trkpt lat="46.755758" lon="15.828774">
        <ele>243.747002</ele>
        <time>2024-05-11T12:08:44.000Z</time>
      </trkpt>
      <trkpt lat="46.755659" lon="15.828786">
        <ele>243.73526</ele>
        <time>2024-05-11T12:08:45.000Z</time>
      </trkpt>
      <trkpt lat="46.7555" lon="15.828814">
        <ele>243.716107</ele>
        <time>2024-05-11T12:08:47.000Z</time>
      </trkpt>
      <trkpt lat="46.755392" lon="15.828812">
        <ele>243.705189</ele>
        <time>2024-05-11T12:08:48.000Z</time>
      </trkpt>
      <trkpt lat="46.755059" lon="15.828862">
        <ele>243.661572</ele>
        <time>2024-05-11T12:08:52.000Z</time>
      </trkpt>
      <trkpt lat="46.754729" lon="15.828875">
        <ele>243.61816</ele>
        <time>2024-05-11T12:08:56.000Z</time>
      </trkpt>
      <trkpt lat="46.754395" lon="15.828924">
        <ele>243.574177</ele>
        <time>2024-05-11T12:09:00.000Z</time>
      </trkpt>
      <trkpt lat="46.754028" lon="15.828967">
        <ele>243.524081</ele>
        <time>2024-05-11T12:09:04.000Z</time>
      </trkpt>
      <trkpt lat="46.753867" lon="15.828976">
        <ele>243.503698</ele>
        <time>2024-05-11T12:09:06.000Z</time>
      </trkpt>
      <trkpt lat="46.75371" lon="15.829024">
        <ele>243.482152</ele>
        <time>2024-05-11T12:09:08.000Z</time>
      </trkpt>
      <trkpt lat="46.753643" lon="15.829062">
        <ele>243.472256</ele>
        <time>2024-05-11T12:09:09.000Z</time>
      </trkpt>
      <trkpt lat="46.752868" lon="15.829459">
        <ele>243.860925</ele>
        <time>2024-05-11T12:09:18.000Z</time>
      </trkpt>
      <trkpt lat="46.752555" lon="15.829646">
        <ele>244.042742</ele>
        <time>2024-05-11T12:09:22.000Z</time>
      </trkpt>
      <trkpt lat="46.752484" lon="15.829682">
        <ele>244.074667</ele>
        <time>2024-05-11T12:09:23.000Z</time>
      </trkpt>
      <trkpt lat="46.752445" lon="15.829716">
        <ele>244.103047</ele>
        <time>2024-05-11T12:09:24.000Z</time>
      </trkpt>
      <trkpt lat="46.752294" lon="15.829748">
        <ele>244.186307</ele>
        <time>2024-05-11T12:09:26.000Z</time>
      </trkpt>
      <trkpt lat="46.75217" lon="15.829749">
        <ele>244.24728</ele>
        <time>2024-05-11T12:09:27.000Z</time>
      </trkpt>
      <trkpt lat="46.752165" lon="15.82972">
        <ele>244.264041</ele>
        <time>2024-05-11T12:09:27.000Z</time>
      </trkpt>
      <trkpt lat="46.752149" lon="15.82966">
        <ele>244.28821</ele>
        <time>2024-05-11T12:09:27.000Z</time>
      </trkpt>
      <trkpt lat="46.752103" lon="15.829577">
        <ele>244.325506</ele>
        <time>2024-05-11T12:09:28.000Z</time>
      </trkpt>
      <trkpt lat="46.751999" lon="15.829597">
        <ele>244.378108</ele>
        <time>2024-05-11T12:09:29.000Z</time>
      </trkpt>
      <trkpt lat="46.751962" lon="15.829633">
        <ele>244.401101</ele>
        <time>2024-05-11T12:09:29.000Z</time>
      </trkpt>
      <trkpt lat="46.751955" lon="15.829646">
        <ele>244.40976</ele>
        <time>2024-05-11T12:09:29.000Z</time>
      </trkpt>
      <trkpt lat="46.751871" lon="15.829542">
        <ele>244.489218</ele>
        <time>2024-05-11T12:09:30.000Z</time>
      </trkpt>
      <trkpt lat="46.751827" lon="15.829431">
        <ele>244.570696</ele>
        <time>2024-05-11T12:09:31.000Z</time>
      </trkpt>
      <trkpt lat="46.751633" lon="15.829041">
        <ele>244.861638</ele>
        <time>2024-05-11T12:09:35.000Z</time>
      </trkpt>
      <trkpt lat="46.751605" lon="15.828995">
        <ele>244.899212</ele>
        <time>2024-05-11T12:09:35.000Z</time>
      </trkpt>
      <trkpt lat="46.751568" lon="15.828895">
        <ele>244.976899</ele>
        <time>2024-05-11T12:09:36.000Z</time>
      </trkpt>
      <trkpt lat="46.751481" lon="15.828736">
        <ele>245.096235</ele>
        <time>2024-05-11T12:09:38.000Z</time>
      </trkpt>
      <trkpt lat="46.75133" lon="15.828419">
        <ele>245.338635</ele>
        <time>2024-05-11T12:09:41.000Z</time>
      </trkpt>
      <trkpt lat="46.751313" lon="15.828398">
        <ele>245.350662</ele>
        <time>2024-05-11T12:09:41.000Z</time>
      </trkpt>
      <trkpt lat="46.751281" lon="15.828329">
        <ele>245.409563</ele>
        <time>2024-05-11T12:09:42.000Z</time>
      </trkpt>
      <trkpt lat="46.751193" lon="15.828155">
        <ele>245.537528</ele>
        <time>2024-05-11T12:09:44.000Z</time>
      </trkpt>
      <trkpt lat="46.751175" lon="15.828124">
        <ele>245.564055</ele>
        <time>2024-05-11T12:09:44.000Z</time>
      </trkpt>
      <trkpt lat="46.750977" lon="15.827787">
        <ele>245.829047</ele>
        <time>2024-05-11T12:09:47.000Z</time>
      </trkpt>
      <trkpt lat="46.750922" lon="15.827691">
        <ele>245.911086</ele>
        <time>2024-05-11T12:09:48.000Z</time>
      </trkpt>
      <trkpt lat="46.750847" lon="15.827559">
        <ele>246.019675</ele>
        <time>2024-05-11T12:09:49.000Z</time>
      </trkpt>
      <trkpt lat="46.750737" lon="15.827362">
        <ele>246.153172</ele>
        <time>2024-05-11T12:09:51.000Z</time>
      </trkpt>
      <trkpt lat="46.750533" lon="15.827026">
        <ele>246.382411</ele>
        <time>2024-05-11T12:09:54.000Z</time>
      </trkpt>
      <trkpt lat="46.75048" lon="15.826949">
        <ele>246.432966</ele>
        <time>2024-05-11T12:09:55.000Z</time>
      </trkpt>
      <trkpt lat="46.750383" lon="15.826792">
        <ele>246.532747</ele>
        <time>2024-05-11T12:09:57.000Z</time>
      </trkpt>
      <trkpt lat="46.750229" lon="15.826515">
        <ele>246.715999</ele>
        <time>2024-05-11T12:10:00.000Z</time>
      </trkpt>
      <trkpt lat="46.750195" lon="15.826485">
        <ele>246.743933</ele>
        <time>2024-05-11T12:10:00.000Z</time>
      </trkpt>
      <trkpt lat="46.750044" lon="15.826229">
        <ele>246.913923</ele>
        <time>2024-05-11T12:10:03.000Z</time>
      </trkpt>
      <trkpt lat="46.749636" lon="15.825636">
        <ele>247.338865</ele>
        <time>2024-05-11T12:10:09.000Z</time>
      </trkpt>
      <trkpt lat="46.749401" lon="15.825313">
        <ele>246.95032</ele>
        <time>2024-05-11T12:10:13.000Z</time>
      </trkpt>
      <trkpt lat="46.748999" lon="15.824687">
        <ele>246.123778</ele>
        <time>2024-05-11T12:10:20.000Z</time>
      </trkpt>
      <trkpt lat="46.748852" lon="15.824444">
        <ele>245.808161</ele>
        <time>2024-05-11T12:10:22.000Z</time>
      </trkpt>
      <trkpt lat="46.748662" lon="15.824086">
        <ele>245.367137</ele>
        <time>2024-05-11T12:10:25.000Z</time>
      </trkpt>
      <trkpt lat="46.748535" lon="15.823839">
        <ele>245.064314</ele>
        <time>2024-05-11T12:10:27.000Z</time>
      </trkpt>
      <trkpt lat="46.748095" lon="15.822927">
        <ele>243.900672</ele>
        <time>2024-05-11T12:10:35.000Z</time>
      </trkpt>
      <trkpt lat="46.748049" lon="15.822808">
        <ele>243.754774</ele>
        <time>2024-05-11T12:10:36.000Z</time>
      </trkpt>
      <trkpt lat="46.748032" lon="15.822782">
        <ele>243.715349</ele>
        <time>2024-05-11T12:10:36.000Z</time>
      </trkpt>
      <trkpt lat="46.747887" lon="15.822537">
        <ele>243.394421</ele>
        <time>2024-05-11T12:10:38.000Z</time>
      </trkpt>
      <trkpt lat="46.747838" lon="15.822441">
        <ele>243.245227</ele>
        <time>2024-05-11T12:10:39.000Z</time>
      </trkpt>
      <trkpt lat="46.747746" lon="15.822273">
        <ele>243.029466</ele>
        <time>2024-05-11T12:10:41.000Z</time>
      </trkpt>
      <trkpt lat="46.746944" lon="15.821172">
        <ele>241.769601</ele>
        <time>2024-05-11T12:10:53.000Z</time>
      </trkpt>
      <trkpt lat="46.746738" lon="15.820966">
        <ele>241.622634</ele>
        <time>2024-05-11T12:10:56.000Z</time>
      </trkpt>
      <trkpt lat="46.746424" lon="15.820738">
        <ele>241.422402</ele>
        <time>2024-05-11T12:11:00.000Z</time>
      </trkpt>
      <trkpt lat="46.746257" lon="15.82065">
        <ele>241.310466</ele>
        <time>2024-05-11T12:11:02.000Z</time>
      </trkpt>
      <trkpt lat="46.746059" lon="15.820582">
        <ele>241.195067</ele>
        <time>2024-05-11T12:11:04.000Z</time>
      </trkpt>
      <trkpt lat="46.745775" lon="15.820465">
        <ele>241.022369</ele>
        <time>2024-05-11T12:11:07.000Z</time>
      </trkpt>
      <trkpt lat="46.745516" lon="15.82031">
        <ele>240.995295</ele>
        <time>2024-05-11T12:11:10.000Z</time>
      </trkpt>
      <trkpt lat="46.745468" lon="15.820287">
        <ele>240.997696</ele>
        <time>2024-05-11T12:11:11.000Z</time>
      </trkpt>
      <trkpt lat="46.745361" lon="15.820213">
        <ele>241.002469</ele>
        <time>2024-05-11T12:11:12.000Z</time>
      </trkpt>
      <trkpt lat="46.745296" lon="15.820148">
        <ele>241.005995</ele>
        <time>2024-05-11T12:11:13.000Z</time>
      </trkpt>
      <trkpt lat="46.745144" lon="15.819969">
        <ele>241.013758</ele>
        <time>2024-05-11T12:11:15.000Z</time>
      </trkpt>
      <trkpt lat="46.744987" lon="15.819679">
        <ele>241.024265</ele>
        <time>2024-05-11T12:11:18.000Z</time>
      </trkpt>
      <trkpt lat="46.744815" lon="15.819399">
        <ele>241.034643</ele>
        <time>2024-05-11T12:11:21.000Z</time>
      </trkpt>
      <trkpt lat="46.744625" lon="15.819061">
        <ele>241.046985</ele>
        <time>2024-05-11T12:11:24.000Z</time>
      </trkpt>
      <trkpt lat="46.74454" lon="15.818922">
        <ele>241.052521</ele>
        <time>2024-05-11T12:11:25.000Z</time>
      </trkpt>
      <trkpt lat="46.744355" lon="15.818597">
        <ele>241.005065</ele>
        <time>2024-05-11T12:11:28.000Z</time>
      </trkpt>
      <trkpt lat="46.744314" lon="15.818543">
        <ele>240.971112</ele>
        <time>2024-05-11T12:11:29.000Z</time>
      </trkpt>
      <trkpt lat="46.744281" lon="15.818469">
        <ele>240.932622</ele>
        <time>2024-05-11T12:11:30.000Z</time>
      </trkpt>
      <trkpt lat="46.74424" lon="15.818424">
        <ele>240.901185</ele>
        <time>2024-05-11T12:11:31.000Z</time>
      </trkpt>
      <trkpt lat="46.7442" lon="15.818345">
        <ele>240.854528</ele>
        <time>2024-05-11T12:11:32.000Z</time>
      </trkpt>
      <trkpt lat="46.744019" lon="15.818137">
        <ele>240.705707</ele>
        <time>2024-05-11T12:11:35.000Z</time>
      </trkpt>
      <trkpt lat="46.743963" lon="15.818069">
        <ele>240.654198</ele>
        <time>2024-05-11T12:11:36.000Z</time>
      </trkpt>
      <trkpt lat="46.743898" lon="15.817982">
        <ele>240.597669</ele>
        <time>2024-05-11T12:11:37.000Z</time>
      </trkpt>
      <trkpt lat="46.743462" lon="15.817594">
        <ele>240.268763</ele>
        <time>2024-05-11T12:11:43.000Z</time>
      </trkpt>
      <trkpt lat="46.74334" lon="15.817464">
        <ele>240.161775</ele>
        <time>2024-05-11T12:11:45.000Z</time>
      </trkpt>
      <trkpt lat="46.743079" lon="15.817126">
        <ele>239.94112</ele>
        <time>2024-05-11T12:11:49.000Z</time>
      </trkpt>
      <trkpt lat="46.742816" lon="15.816762">
        <ele>239.28206</ele>
        <time>2024-05-11T12:11:53.000Z</time>
      </trkpt>
      <trkpt lat="46.742489" lon="15.816309">
        <ele>238.32398</ele>
        <time>2024-05-11T12:11:58.000Z</time>
      </trkpt>
      <trkpt lat="46.742473" lon="15.816292">
        <ele>238.28187</ele>
        <time>2024-05-11T12:11:58.000Z</time>
      </trkpt>
      <trkpt lat="46.742242" lon="15.816023">
        <ele>237.613765</ele>
        <time>2024-05-11T12:12:01.000Z</time>
      </trkpt>
      <trkpt lat="46.742044" lon="15.815812">
        <ele>237.118816</ele>
        <time>2024-05-11T12:12:04.000Z</time>
      </trkpt>
      <trkpt lat="46.741986" lon="15.815769">
        <ele>236.965429</ele>
        <time>2024-05-11T12:12:05.000Z</time>
      </trkpt>
      <trkpt lat="46.741667" lon="15.815504">
        <ele>236.16605</ele>
        <time>2024-05-11T12:12:09.000Z</time>
      </trkpt>
      <trkpt lat="46.741393" lon="15.815308">
        <ele>235.588869</ele>
        <time>2024-05-11T12:12:12.000Z</time>
      </trkpt>
      <trkpt lat="46.741124" lon="15.815099">
        <ele>235.026982</ele>
        <time>2024-05-11T12:12:15.000Z</time>
      </trkpt>
      <trkpt lat="46.740795" lon="15.814807">
        <ele>234.314423</ele>
        <time>2024-05-11T12:12:19.000Z</time>
      </trkpt>
      <trkpt lat="46.740613" lon="15.814585">
        <ele>233.854807</ele>
        <time>2024-05-11T12:12:22.000Z</time>
      </trkpt>
      <trkpt lat="46.740399" lon="15.814331">
        <ele>233.375496</ele>
        <time>2024-05-11T12:12:25.000Z</time>
      </trkpt>
      <trkpt lat="46.740275" lon="15.81415">
        <ele>233.038943</ele>
        <time>2024-05-11T12:12:27.000Z</time>
      </trkpt>
      <trkpt lat="46.739979" lon="15.813666">
        <ele>232.492314</ele>
        <time>2024-05-11T12:12:32.000Z</time>
      </trkpt>
      <trkpt lat="46.739478" lon="15.81281">
        <ele>231.897965</ele>
        <time>2024-05-11T12:12:41.000Z</time>
      </trkpt>
      <trkpt lat="46.739133" lon="15.812398">
        <ele>231.56242</ele>
        <time>2024-05-11T12:12:46.000Z</time>
      </trkpt>
      <trkpt lat="46.738861" lon="15.81212">
        <ele>231.307829</ele>
        <time>2024-05-11T12:12:50.000Z</time>
      </trkpt>
      <trkpt lat="46.738831" lon="15.812098">
        <ele>231.310426</ele>
        <time>2024-05-11T12:12:50.000Z</time>
      </trkpt>
      <trkpt lat="46.738757" lon="15.811974">
        <ele>231.32121</ele>
        <time>2024-05-11T12:12:51.000Z</time>
      </trkpt>
      <trkpt lat="46.738485" lon="15.811666">
        <ele>231.35235</ele>
        <time>2024-05-11T12:12:55.000Z</time>
      </trkpt>
      <trkpt lat="46.738491" lon="15.811593">
        <ele>231.35708</ele>
        <time>2024-05-11T12:12:56.000Z</time>
      </trkpt>
      <trkpt lat="46.738441" lon="15.811528">
        <ele>231.363283</ele>
        <time>2024-05-11T12:12:57.000Z</time>
      </trkpt>
      <trkpt lat="46.738128" lon="15.81105">
        <ele>231.403978</ele>
        <time>2024-05-11T12:13:02.000Z</time>
      </trkpt>
      <trkpt lat="46.737429" lon="15.809726">
        <ele>231.647566</ele>
        <time>2024-05-11T12:13:15.000Z</time>
      </trkpt>
      <trkpt lat="46.736724" lon="15.808605">
        <ele>232.092627</ele>
        <time>2024-05-11T12:13:27.000Z</time>
      </trkpt>
      <trkpt lat="46.736397" lon="15.808003">
        <ele>232.224835</ele>
        <time>2024-05-11T12:13:33.000Z</time>
      </trkpt>
      <trkpt lat="46.736355" lon="15.807852">
        <ele>232.21806</ele>
        <time>2024-05-11T12:13:34.000Z</time>
      </trkpt>
      <trkpt lat="46.736306" lon="15.807694">
        <ele>232.212134</ele>
        <time>2024-05-11T12:13:35.000Z</time>
      </trkpt>
      <trkpt lat="46.736212" lon="15.807463">
        <ele>232.201616</ele>
        <time>2024-05-11T12:13:37.000Z</time>
      </trkpt>
      <trkpt lat="46.735856" lon="15.805798">
        <ele>232.134613</ele>
        <time>2024-05-11T12:13:50.000Z</time>
      </trkpt>
      <trkpt lat="46.735763" lon="15.805501">
        <ele>232.045925</ele>
        <time>2024-05-11T12:13:52.000Z</time>
      </trkpt>
      <trkpt lat="46.735488" lon="15.804998">
        <ele>231.872706</ele>
        <time>2024-05-11T12:13:57.000Z</time>
      </trkpt>
      <trkpt lat="46.735388" lon="15.80486">
        <ele>231.823968</ele>
        <time>2024-05-11T12:13:59.000Z</time>
      </trkpt>
      <trkpt lat="46.735358" lon="15.804917">
        <ele>231.805057</ele>
        <time>2024-05-11T12:14:00.000Z</time>
      </trkpt>
      <trkpt lat="46.735056" lon="15.804622">
        <ele>231.660924</ele>
        <time>2024-05-11T12:14:04.000Z</time>
      </trkpt>
      <trkpt lat="46.734717" lon="15.804311">
        <ele>231.507945</ele>
        <time>2024-05-11T12:14:08.000Z</time>
      </trkpt>
      <trkpt lat="46.734309" lon="15.804108">
        <ele>231.401143</ele>
        <time>2024-05-11T12:14:13.000Z</time>
      </trkpt>
      <trkpt lat="46.732305" lon="15.803482">
        <ele>231.362284</ele>
        <time>2024-05-11T12:14:36.000Z</time>
      </trkpt>
      <trkpt lat="46.730984" lon="15.802659">
        <ele>231.807095</ele>
        <time>2024-05-11T12:14:52.000Z</time>
      </trkpt>
      <trkpt lat="46.730578" lon="15.802432">
        <ele>231.728986</ele>
        <time>2024-05-11T12:14:57.000Z</time>
      </trkpt>
      <trkpt lat="46.730135" lon="15.802296">
        <ele>231.652523</ele>
        <time>2024-05-11T12:15:02.000Z</time>
      </trkpt>
      <trkpt lat="46.729839" lon="15.802152">
        <ele>231.598318</ele>
        <time>2024-05-11T12:15:05.000Z</time>
      </trkpt>
      <trkpt lat="46.729377" lon="15.801941">
        <ele>231.514548</ele>
        <time>2024-05-11T12:15:10.000Z</time>
      </trkpt>
      <trkpt lat="46.729107" lon="15.801696">
        <ele>231.451901</ele>
        <time>2024-05-11T12:15:14.000Z</time>
      </trkpt>
      <trkpt lat="46.72894" lon="15.801541">
        <ele>231.414699</ele>
        <time>2024-05-11T12:15:16.000Z</time>
      </trkpt>
      <trkpt lat="46.728672" lon="15.801203">
        <ele>231.349019</ele>
        <time>2024-05-11T12:15:20.000Z</time>
      </trkpt>
      <trkpt lat="46.728481" lon="15.800945">
        <ele>231.298617</ele>
        <time>2024-05-11T12:15:23.000Z</time>
      </trkpt>
      <trkpt lat="46.728127" lon="15.800401">
        <ele>231.201636</ele>
        <time>2024-05-11T12:15:29.000Z</time>
      </trkpt>
      <trkpt lat="46.728012" lon="15.800236">
        <ele>231.192418</ele>
        <time>2024-05-11T12:15:31.000Z</time>
      </trkpt>
      <trkpt lat="46.727835" lon="15.800016">
        <ele>231.333587</ele>
        <time>2024-05-11T12:15:34.000Z</time>
      </trkpt>
      <trkpt lat="46.727684" lon="15.799848">
        <ele>231.456612</ele>
        <time>2024-05-11T12:15:36.000Z</time>
      </trkpt>
      <trkpt lat="46.727511" lon="15.799712">
        <ele>231.567166</ele>
        <time>2024-05-11T12:15:38.000Z</time>
      </trkpt>
      <trkpt lat="46.727156" lon="15.799504">
        <ele>231.801216</ele>
        <time>2024-05-11T12:15:42.000Z</time>
      </trkpt>
      <trkpt lat="46.727002" lon="15.799436">
        <ele>231.902337</ele>
        <time>2024-05-11T12:15:44.000Z</time>
      </trkpt>
      <trkpt lat="46.726926" lon="15.799421">
        <ele>231.955332</ele>
        <time>2024-05-11T12:15:45.000Z</time>
      </trkpt>
      <trkpt lat="46.726832" lon="15.799404">
        <ele>232.003741</ele>
        <time>2024-05-11T12:15:46.000Z</time>
      </trkpt>
      <trkpt lat="46.726681" lon="15.799363">
        <ele>232.099559</ele>
        <time>2024-05-11T12:15:48.000Z</time>
      </trkpt>
      <trkpt lat="46.726252" lon="15.799358">
        <ele>232.257042</ele>
        <time>2024-05-11T12:15:53.000Z</time>
      </trkpt>
      <trkpt lat="46.725827" lon="15.799376">
        <ele>232.207842</ele>
        <time>2024-05-11T12:15:58.000Z</time>
      </trkpt>
      <trkpt lat="46.725506" lon="15.799568">
        <ele>232.168605</ele>
        <time>2024-05-11T12:16:02.000Z</time>
      </trkpt>
      <trkpt lat="46.725417" lon="15.799629">
        <ele>232.157875</ele>
        <time>2024-05-11T12:16:03.000Z</time>
      </trkpt>
      <trkpt lat="46.725385" lon="15.79956">
        <ele>232.151307</ele>
        <time>2024-05-11T12:16:04.000Z</time>
      </trkpt>
      <trkpt lat="46.725237" lon="15.79927">
        <ele>232.12374</ele>
        <time>2024-05-11T12:16:07.000Z</time>
      </trkpt>
      <trkpt lat="46.72521" lon="15.799236">
        <ele>232.119342</ele>
        <time>2024-05-11T12:16:07.000Z</time>
      </trkpt>
      <trkpt lat="46.725027" lon="15.798924">
        <ele>232.087502</ele>
        <time>2024-05-11T12:16:10.000Z</time>
      </trkpt>
      <trkpt lat="46.724814" lon="15.798637">
        <ele>231.985392</ele>
        <time>2024-05-11T12:16:13.000Z</time>
      </trkpt>
      <trkpt lat="46.724639" lon="15.798434">
        <ele>231.845059</ele>
        <time>2024-05-11T12:16:15.000Z</time>
      </trkpt>
      <trkpt lat="46.724544" lon="15.798324">
        <ele>231.778053</ele>
        <time>2024-05-11T12:16:16.000Z</time>
      </trkpt>
      <trkpt lat="46.724509" lon="15.798283">
        <ele>231.740504</ele>
        <time>2024-05-11T12:16:16.000Z</time>
      </trkpt>
      <trkpt lat="46.724425" lon="15.798179">
        <ele>231.673508</ele>
        <time>2024-05-11T12:16:17.000Z</time>
      </trkpt>
      <trkpt lat="46.724297" lon="15.798049">
        <ele>231.579848</ele>
        <time>2024-05-11T12:16:19.000Z</time>
      </trkpt>
      <trkpt lat="46.724062" lon="15.797783">
        <ele>231.391052</ele>
        <time>2024-05-11T12:16:22.000Z</time>
      </trkpt>
      <trkpt lat="46.72349" lon="15.797105">
        <ele>230.935282</ele>
        <time>2024-05-11T12:16:30.000Z</time>
      </trkpt>
      <trkpt lat="46.723138" lon="15.796697">
        <ele>230.816026</ele>
        <time>2024-05-11T12:16:35.000Z</time>
      </trkpt>
      <trkpt lat="46.723131" lon="15.796689">
        <ele>230.811894</ele>
        <time>2024-05-11T12:16:35.000Z</time>
      </trkpt>
      <trkpt lat="46.72299" lon="15.796547">
        <ele>230.767299</ele>
        <time>2024-05-11T12:16:37.000Z</time>
      </trkpt>
      <trkpt lat="46.722856" lon="15.796454">
        <ele>230.729728</ele>
        <time>2024-05-11T12:16:39.000Z</time>
      </trkpt>
      <trkpt lat="46.722761" lon="15.796396">
        <ele>230.702657</ele>
        <time>2024-05-11T12:16:40.000Z</time>
      </trkpt>
      <trkpt lat="46.722613" lon="15.796333">
        <ele>230.665899</ele>
        <time>2024-05-11T12:16:42.000Z</time>
      </trkpt>
      <trkpt lat="46.722566" lon="15.796338">
        <ele>230.653769</ele>
        <time>2024-05-11T12:16:43.000Z</time>
      </trkpt>
      <trkpt lat="46.722228" lon="15.796252">
        <ele>230.560105</ele>
        <time>2024-05-11T12:16:47.000Z</time>
      </trkpt>
      <trkpt lat="46.721969" lon="15.796181">
        <ele>230.493065</ele>
        <time>2024-05-11T12:16:50.000Z</time>
      </trkpt>
      <trkpt lat="46.721796" lon="15.796088">
        <ele>230.534868</ele>
        <time>2024-05-11T12:16:52.000Z</time>
      </trkpt>
      <trkpt lat="46.72118" lon="15.79545">
        <ele>231.017921</ele>
        <time>2024-05-11T12:17:00.000Z</time>
      </trkpt>
      <trkpt lat="46.721035" lon="15.795364">
        <ele>231.118891</ele>
        <time>2024-05-11T12:17:02.000Z</time>
      </trkpt>
      <trkpt lat="46.721015" lon="15.795349">
        <ele>231.137026</ele>
        <time>2024-05-11T12:17:02.000Z</time>
      </trkpt>
      <trkpt lat="46.720877" lon="15.795283">
        <ele>231.228357</ele>
        <time>2024-05-11T12:17:04.000Z</time>
      </trkpt>
      <trkpt lat="46.720795" lon="15.795264">
        <ele>231.278702</ele>
        <time>2024-05-11T12:17:05.000Z</time>
      </trkpt>
      <trkpt lat="46.720575" lon="15.795167">
        <ele>231.433477</ele>
        <time>2024-05-11T12:17:08.000Z</time>
      </trkpt>
      <trkpt lat="46.720404" lon="15.795143">
        <ele>231.537876</ele>
        <time>2024-05-11T12:17:10.000Z</time>
      </trkpt>
      <trkpt lat="46.72012" lon="15.795089">
        <ele>231.718794</ele>
        <time>2024-05-11T12:17:13.000Z</time>
      </trkpt>
      <trkpt lat="46.719543" lon="15.795121">
        <ele>232.03275</ele>
        <time>2024-05-11T12:17:19.000Z</time>
      </trkpt>
      <trkpt lat="46.719262" lon="15.795132">
        <ele>232.19114</ele>
        <time>2024-05-11T12:17:22.000Z</time>
      </trkpt>
      <trkpt lat="46.719192" lon="15.795124">
        <ele>232.235046</ele>
        <time>2024-05-11T12:17:23.000Z</time>
      </trkpt>
      <trkpt lat="46.718851" lon="15.795144">
        <ele>232.425085</ele>
        <time>2024-05-11T12:17:27.000Z</time>
      </trkpt>
      <trkpt lat="46.71853" lon="15.795096">
        <ele>232.603021</ele>
        <time>2024-05-11T12:17:31.000Z</time>
      </trkpt>
      <trkpt lat="46.718266" lon="15.795023">
        <ele>232.603436</ele>
        <time>2024-05-11T12:17:34.000Z</time>
      </trkpt>
      <trkpt lat="46.717949" lon="15.794869">
        <ele>232.551879</ele>
        <time>2024-05-11T12:17:38.000Z</time>
      </trkpt>
      <trkpt lat="46.717874" lon="15.794832">
        <ele>232.541047</ele>
        <time>2024-05-11T12:17:39.000Z</time>
      </trkpt>
      <trkpt lat="46.717632" lon="15.794706">
        <ele>232.499319</ele>
        <time>2024-05-11T12:17:42.000Z</time>
      </trkpt>
      <trkpt lat="46.717126" lon="15.794488">
        <ele>232.419191</ele>
        <time>2024-05-11T12:17:48.000Z</time>
      </trkpt>
      <trkpt lat="46.717044" lon="15.794458">
        <ele>232.406645</ele>
        <time>2024-05-11T12:17:49.000Z</time>
      </trkpt>
      <trkpt lat="46.716943" lon="15.794416">
        <ele>232.390779</ele>
        <time>2024-05-11T12:17:50.000Z</time>
      </trkpt>
      <trkpt lat="46.716751" lon="15.794355">
        <ele>232.361532</ele>
        <time>2024-05-11T12:17:52.000Z</time>
      </trkpt>
      <trkpt lat="46.716684" lon="15.794332">
        <ele>232.334123</ele>
        <time>2024-05-11T12:17:53.000Z</time>
      </trkpt>
      <trkpt lat="46.716566" lon="15.794317">
        <ele>232.27156</ele>
        <time>2024-05-11T12:17:54.000Z</time>
      </trkpt>
      <trkpt lat="46.716363" lon="15.794253">
        <ele>232.164039</ele>
        <time>2024-05-11T12:17:56.000Z</time>
      </trkpt>
      <trkpt lat="46.716359" lon="15.79442">
        <ele>232.104753</ele>
        <time>2024-05-11T12:17:57.000Z</time>
      </trkpt>
      <trkpt lat="46.716397" lon="15.7947">
        <ele>232.007772</ele>
        <time>2024-05-11T12:17:59.000Z</time>
      </trkpt>
      <trkpt lat="46.716421" lon="15.794773">
        <ele>231.982323</ele>
        <time>2024-05-11T12:18:00.000Z</time>
      </trkpt>
      <trkpt lat="46.716399" lon="15.795036">
        <ele>231.896631</ele>
        <time>2024-05-11T12:18:02.000Z</time>
      </trkpt>
      <trkpt lat="46.716391" lon="15.795117">
        <ele>231.865114</ele>
        <time>2024-05-11T12:18:03.000Z</time>
      </trkpt>
      <trkpt lat="46.716361" lon="15.795356">
        <ele>231.78551</ele>
        <time>2024-05-11T12:18:05.000Z</time>
      </trkpt>
      <trkpt lat="46.716331" lon="15.795709">
        <ele>231.664877</ele>
        <time>2024-05-11T12:18:08.000Z</time>
      </trkpt>
      <trkpt lat="46.716282" lon="15.795877">
        <ele>231.598621</ele>
        <time>2024-05-11T12:18:09.000Z</time>
      </trkpt>
      <trkpt lat="46.716266" lon="15.795965">
        <ele>231.570232</ele>
        <time>2024-05-11T12:18:10.000Z</time>
      </trkpt>
      <trkpt lat="46.716486" lon="15.796336">
        <ele>231.450482463</ele>
        <time>2024-05-11T12:18:14.000Z</time>
      </trkpt>
      <trkpt lat="46.716679" lon="15.79674">
        <ele>231.330273107</ele>
        <time>2024-05-11T12:18:18.000Z</time>
      </trkpt>
      <trkpt lat="46.717107" lon="15.797648">
        <ele>231.061270409</ele>
        <time>2024-05-11T12:18:26.000Z</time>
      </trkpt>
      <trkpt lat="46.717305" lon="15.798103">
        <ele>230.929707334</ele>
        <time>2024-05-11T12:18:30.000Z</time>
      </trkpt>
      <trkpt lat="46.717635" lon="15.798769">
        <ele>230.72910325</ele>
        <time>2024-05-11T12:18:36.000Z</time>
      </trkpt>
    </trkseg>
  </trk>
</gpx>

<!--
Performance optimized by W3 Total Cache. Learn more: https://www.boldgrid.com/w3-total-cache/?utm_source=w3tc&utm_medium=footer_comment&utm_campaign=free_plugin

Page Caching using Disk: Enhanced{w3tc_pagecache_reject_reason} 

Served from: www.aquabike.world @ 2026-05-10 18:49:32 by W3 Total Cache
-->